<?xml version="1.0" encoding="UTF-8" standalone="no" ?>
<gpx xmlns="http://www.topografix.com/GPX/1/1" xmlns:xsi="http://www.w3.org/2001/XMLSchema-instance" xsi:schemaLocation="http://www.topografix.com/GPX/1/1 http://www.topografix.com/GPX/1/1/gpx.xsd" version="1.1" creator="VisuGPX - https://www.visugpx.com">
  <metadata>
    <name>Pas de l'Olan (Valgaudemar)</name>
    <desc><![CDATA[Passage étroit et spectaculaire au-dessus du refuge de l'Olan pour rejoindre la combe voisine. L'Olan, majestueux, domine.]]></desc>
  </metadata>
  <trk>
    <name><![CDATA[27-OCT-16 15:38:38]]></name>
    <trkseg>
      <trkpt lat="44.82063" lon="6.20048">
        <ele>1105.17</ele>
        <time>2016-10-27T06:50:56Z</time>
      </trkpt>
      <trkpt lat="44.82061" lon="6.20047">
        <ele>1105.17</ele>
        <time>2016-10-27T06:51:23Z</time>
      </trkpt>
      <trkpt lat="44.82071" lon="6.20048">
        <ele>1106.13</ele>
        <time>2016-10-27T06:51:37Z</time>
      </trkpt>
      <trkpt lat="44.82078" lon="6.20045">
        <ele>1107.1</ele>
        <time>2016-10-27T06:51:47Z</time>
      </trkpt>
      <trkpt lat="44.82095" lon="6.2005">
        <ele>1109.98</ele>
        <time>2016-10-27T06:52:03Z</time>
      </trkpt>
      <trkpt lat="44.82111" lon="6.20057">
        <ele>1111.42</ele>
        <time>2016-10-27T06:52:20Z</time>
      </trkpt>
      <trkpt lat="44.82122" lon="6.20065">
        <ele>1113.34</ele>
        <time>2016-10-27T06:52:34Z</time>
      </trkpt>
      <trkpt lat="44.82136" lon="6.20075">
        <ele>1114.79</ele>
        <time>2016-10-27T06:52:48Z</time>
      </trkpt>
      <trkpt lat="44.82137" lon="6.20074">
        <ele>1115.27</ele>
        <time>2016-10-27T06:52:51Z</time>
      </trkpt>
      <trkpt lat="44.82158" lon="6.20084">
        <ele>1117.19</ele>
        <time>2016-10-27T06:53:04Z</time>
      </trkpt>
      <trkpt lat="44.82164" lon="6.20086">
        <ele>1118.63</ele>
        <time>2016-10-27T06:53:17Z</time>
      </trkpt>
      <trkpt lat="44.82166" lon="6.20085">
        <ele>1119.11</ele>
        <time>2016-10-27T06:53:38Z</time>
      </trkpt>
      <trkpt lat="44.82166" lon="6.20082">
        <ele>1119.59</ele>
        <time>2016-10-27T06:54:02Z</time>
      </trkpt>
      <trkpt lat="44.82179" lon="6.20088">
        <ele>1121.03</ele>
        <time>2016-10-27T06:54:14Z</time>
      </trkpt>
      <trkpt lat="44.82189" lon="6.20087">
        <ele>1122.96</ele>
        <time>2016-10-27T06:54:28Z</time>
      </trkpt>
      <trkpt lat="44.82196" lon="6.20084">
        <ele>1124.4</ele>
        <time>2016-10-27T06:54:37Z</time>
      </trkpt>
      <trkpt lat="44.8221" lon="6.20077">
        <ele>1125.84</ele>
        <time>2016-10-27T06:54:51Z</time>
      </trkpt>
      <trkpt lat="44.82212" lon="6.20078">
        <ele>1126.32</ele>
        <time>2016-10-27T06:54:53Z</time>
      </trkpt>
      <trkpt lat="44.82222" lon="6.20077">
        <ele>1129.21</ele>
        <time>2016-10-27T06:55:06Z</time>
      </trkpt>
      <trkpt lat="44.82228" lon="6.20092">
        <ele>1131.13</ele>
        <time>2016-10-27T06:55:20Z</time>
      </trkpt>
      <trkpt lat="44.82222" lon="6.20112">
        <ele>1133.53</ele>
        <time>2016-10-27T06:55:35Z</time>
      </trkpt>
      <trkpt lat="44.82223" lon="6.20126">
        <ele>1136.42</ele>
        <time>2016-10-27T06:55:50Z</time>
      </trkpt>
      <trkpt lat="44.82226" lon="6.20142">
        <ele>1138.82</ele>
        <time>2016-10-27T06:56:05Z</time>
      </trkpt>
      <trkpt lat="44.82227" lon="6.20147">
        <ele>1140.26</ele>
        <time>2016-10-27T06:56:10Z</time>
      </trkpt>
      <trkpt lat="44.8223" lon="6.20162">
        <ele>1143.14</ele>
        <time>2016-10-27T06:56:24Z</time>
      </trkpt>
      <trkpt lat="44.8223" lon="6.20175">
        <ele>1145.55</ele>
        <time>2016-10-27T06:56:38Z</time>
      </trkpt>
      <trkpt lat="44.82233" lon="6.20173">
        <ele>1146.51</ele>
        <time>2016-10-27T06:56:51Z</time>
      </trkpt>
      <trkpt lat="44.82233" lon="6.20171">
        <ele>1146.99</ele>
        <time>2016-10-27T06:57:22Z</time>
      </trkpt>
      <trkpt lat="44.82238" lon="6.20162">
        <ele>1150.35</ele>
        <time>2016-10-27T06:57:36Z</time>
      </trkpt>
      <trkpt lat="44.8224" lon="6.20158">
        <ele>1150.84</ele>
        <time>2016-10-27T06:57:41Z</time>
      </trkpt>
      <trkpt lat="44.82242" lon="6.20154">
        <ele>1151.32</ele>
        <time>2016-10-27T06:57:46Z</time>
      </trkpt>
      <trkpt lat="44.82247" lon="6.20143">
        <ele>1154.2</ele>
        <time>2016-10-27T06:57:59Z</time>
      </trkpt>
      <trkpt lat="44.82255" lon="6.20135">
        <ele>1155.64</ele>
        <time>2016-10-27T06:58:12Z</time>
      </trkpt>
      <trkpt lat="44.82265" lon="6.20125">
        <ele>1159.01</ele>
        <time>2016-10-27T06:58:28Z</time>
      </trkpt>
      <trkpt lat="44.82272" lon="6.20114">
        <ele>1161.41</ele>
        <time>2016-10-27T06:58:43Z</time>
      </trkpt>
      <trkpt lat="44.82271" lon="6.20109">
        <ele>1161.89</ele>
        <time>2016-10-27T06:59:06Z</time>
      </trkpt>
      <trkpt lat="44.82279" lon="6.20101">
        <ele>1164.77</ele>
        <time>2016-10-27T06:59:19Z</time>
      </trkpt>
      <trkpt lat="44.82287" lon="6.20092">
        <ele>1167.66</ele>
        <time>2016-10-27T06:59:33Z</time>
      </trkpt>
      <trkpt lat="44.82285" lon="6.20108">
        <ele>1169.58</ele>
        <time>2016-10-27T06:59:46Z</time>
      </trkpt>
      <trkpt lat="44.82285" lon="6.20115">
        <ele>1170.54</ele>
        <time>2016-10-27T06:59:51Z</time>
      </trkpt>
      <trkpt lat="44.82287" lon="6.20131">
        <ele>1172.95</ele>
        <time>2016-10-27T07:00:01Z</time>
      </trkpt>
      <trkpt lat="44.82287" lon="6.20148">
        <ele>1175.35</ele>
        <time>2016-10-27T07:00:16Z</time>
      </trkpt>
      <trkpt lat="44.82288" lon="6.20152">
        <ele>1176.31</ele>
        <time>2016-10-27T07:00:20Z</time>
      </trkpt>
      <trkpt lat="44.82287" lon="6.20164">
        <ele>1177.75</ele>
        <time>2016-10-27T07:00:35Z</time>
      </trkpt>
      <trkpt lat="44.82286" lon="6.20172">
        <ele>1180.16</ele>
        <time>2016-10-27T07:00:48Z</time>
      </trkpt>
      <trkpt lat="44.82285" lon="6.20183">
        <ele>1183.52</ele>
        <time>2016-10-27T07:00:59Z</time>
      </trkpt>
      <trkpt lat="44.82289" lon="6.20177">
        <ele>1185.44</ele>
        <time>2016-10-27T07:01:14Z</time>
      </trkpt>
      <trkpt lat="44.8229" lon="6.20175">
        <ele>1186.4</ele>
        <time>2016-10-27T07:01:18Z</time>
      </trkpt>
      <trkpt lat="44.82299" lon="6.20165">
        <ele>1189.77</ele>
        <time>2016-10-27T07:01:34Z</time>
      </trkpt>
      <trkpt lat="44.82306" lon="6.20158">
        <ele>1192.65</ele>
        <time>2016-10-27T07:01:49Z</time>
      </trkpt>
      <trkpt lat="44.82309" lon="6.20156">
        <ele>1193.61</ele>
        <time>2016-10-27T07:01:54Z</time>
      </trkpt>
      <trkpt lat="44.82318" lon="6.20149">
        <ele>1196.5</ele>
        <time>2016-10-27T07:02:08Z</time>
      </trkpt>
      <trkpt lat="44.82327" lon="6.20137">
        <ele>1199.86</ele>
        <time>2016-10-27T07:02:24Z</time>
      </trkpt>
      <trkpt lat="44.82329" lon="6.20146">
        <ele>1201.79</ele>
        <time>2016-10-27T07:02:36Z</time>
      </trkpt>
      <trkpt lat="44.8233" lon="6.20147">
        <ele>1201.79</ele>
        <time>2016-10-27T07:02:37Z</time>
      </trkpt>
      <trkpt lat="44.8233" lon="6.20164">
        <ele>1204.19</ele>
        <time>2016-10-27T07:02:50Z</time>
      </trkpt>
      <trkpt lat="44.82328" lon="6.20177">
        <ele>1205.63</ele>
        <time>2016-10-27T07:03:02Z</time>
      </trkpt>
      <trkpt lat="44.82327" lon="6.2019">
        <ele>1209</ele>
        <time>2016-10-27T07:03:13Z</time>
      </trkpt>
      <trkpt lat="44.82326" lon="6.20195">
        <ele>1210.92</ele>
        <time>2016-10-27T07:03:26Z</time>
      </trkpt>
      <trkpt lat="44.82326" lon="6.20208">
        <ele>1212.84</ele>
        <time>2016-10-27T07:03:38Z</time>
      </trkpt>
      <trkpt lat="44.82328" lon="6.20213">
        <ele>1214.28</ele>
        <time>2016-10-27T07:03:43Z</time>
      </trkpt>
      <trkpt lat="44.82328" lon="6.20234">
        <ele>1216.69</ele>
        <time>2016-10-27T07:04:00Z</time>
      </trkpt>
      <trkpt lat="44.82329" lon="6.20249">
        <ele>1219.09</ele>
        <time>2016-10-27T07:04:14Z</time>
      </trkpt>
      <trkpt lat="44.82333" lon="6.20241">
        <ele>1221.49</ele>
        <time>2016-10-27T07:04:28Z</time>
      </trkpt>
      <trkpt lat="44.82342" lon="6.20229">
        <ele>1224.86</ele>
        <time>2016-10-27T07:04:43Z</time>
      </trkpt>
      <trkpt lat="44.82348" lon="6.20224">
        <ele>1227.74</ele>
        <time>2016-10-27T07:04:56Z</time>
      </trkpt>
      <trkpt lat="44.82359" lon="6.2021">
        <ele>1231.11</ele>
        <time>2016-10-27T07:05:12Z</time>
      </trkpt>
      <trkpt lat="44.82366" lon="6.20198">
        <ele>1233.99</ele>
        <time>2016-10-27T07:05:24Z</time>
      </trkpt>
      <trkpt lat="44.8237" lon="6.2019">
        <ele>1236.39</ele>
        <time>2016-10-27T07:05:34Z</time>
      </trkpt>
      <trkpt lat="44.82383" lon="6.20179">
        <ele>1239.28</ele>
        <time>2016-10-27T07:05:49Z</time>
      </trkpt>
      <trkpt lat="44.82386" lon="6.20176">
        <ele>1241.2</ele>
        <time>2016-10-27T07:05:57Z</time>
      </trkpt>
      <trkpt lat="44.82381" lon="6.20192">
        <ele>1244.08</ele>
        <time>2016-10-27T07:06:11Z</time>
      </trkpt>
      <trkpt lat="44.8238" lon="6.20205">
        <ele>1246.49</ele>
        <time>2016-10-27T07:06:23Z</time>
      </trkpt>
      <trkpt lat="44.8238" lon="6.20222">
        <ele>1249.85</ele>
        <time>2016-10-27T07:06:37Z</time>
      </trkpt>
      <trkpt lat="44.82384" lon="6.20226">
        <ele>1252.25</ele>
        <time>2016-10-27T07:06:50Z</time>
      </trkpt>
      <trkpt lat="44.82389" lon="6.2022">
        <ele>1254.66</ele>
        <time>2016-10-27T07:06:58Z</time>
      </trkpt>
      <trkpt lat="44.8239" lon="6.20218">
        <ele>1255.14</ele>
        <time>2016-10-27T07:07:00Z</time>
      </trkpt>
      <trkpt lat="44.82396" lon="6.20205">
        <ele>1258.02</ele>
        <time>2016-10-27T07:07:14Z</time>
      </trkpt>
      <trkpt lat="44.82405" lon="6.20196">
        <ele>1260.43</ele>
        <time>2016-10-27T07:07:26Z</time>
      </trkpt>
      <trkpt lat="44.8241" lon="6.20195">
        <ele>1261.87</ele>
        <time>2016-10-27T07:07:31Z</time>
      </trkpt>
      <trkpt lat="44.82413" lon="6.2019">
        <ele>1262.35</ele>
        <time>2016-10-27T07:07:46Z</time>
      </trkpt>
      <trkpt lat="44.82413" lon="6.20191">
        <ele>1258.5</ele>
        <time>2016-10-27T07:07:53Z</time>
      </trkpt>
      <trkpt lat="44.82414" lon="6.20191">
        <ele>1262.35</ele>
        <time>2016-10-27T07:07:54Z</time>
      </trkpt>
      <trkpt lat="44.82413" lon="6.2019">
        <ele>1263.79</ele>
        <time>2016-10-27T07:07:56Z</time>
      </trkpt>
      <trkpt lat="44.82413" lon="6.2019">
        <ele>1262.83</ele>
        <time>2016-10-27T07:07:58Z</time>
      </trkpt>
      <trkpt lat="44.82412" lon="6.2019">
        <ele>1262.83</ele>
        <time>2016-10-27T07:08:17Z</time>
      </trkpt>
      <trkpt lat="44.82411" lon="6.20193">
        <ele>1263.31</ele>
        <time>2016-10-27T07:08:22Z</time>
      </trkpt>
      <trkpt lat="44.82407" lon="6.20205">
        <ele>1264.75</ele>
        <time>2016-10-27T07:08:31Z</time>
      </trkpt>
      <trkpt lat="44.82406" lon="6.20215">
        <ele>1266.67</ele>
        <time>2016-10-27T07:08:38Z</time>
      </trkpt>
      <trkpt lat="44.82406" lon="6.20222">
        <ele>1268.6</ele>
        <time>2016-10-27T07:08:46Z</time>
      </trkpt>
      <trkpt lat="44.82409" lon="6.20239">
        <ele>1272.44</ele>
        <time>2016-10-27T07:09:00Z</time>
      </trkpt>
      <trkpt lat="44.82411" lon="6.20243">
        <ele>1273.4</ele>
        <time>2016-10-27T07:09:07Z</time>
      </trkpt>
      <trkpt lat="44.82417" lon="6.20231">
        <ele>1276.77</ele>
        <time>2016-10-27T07:09:21Z</time>
      </trkpt>
      <trkpt lat="44.82418" lon="6.20228">
        <ele>1277.73</ele>
        <time>2016-10-27T07:09:26Z</time>
      </trkpt>
      <trkpt lat="44.82426" lon="6.20216">
        <ele>1280.61</ele>
        <time>2016-10-27T07:09:38Z</time>
      </trkpt>
      <trkpt lat="44.8243" lon="6.20212">
        <ele>1282.54</ele>
        <time>2016-10-27T07:09:45Z</time>
      </trkpt>
      <trkpt lat="44.8244" lon="6.20207">
        <ele>1285.42</ele>
        <time>2016-10-27T07:09:58Z</time>
      </trkpt>
      <trkpt lat="44.82448" lon="6.20203">
        <ele>1286.86</ele>
        <time>2016-10-27T07:10:11Z</time>
      </trkpt>
      <trkpt lat="44.8245" lon="6.20197">
        <ele>1288.3</ele>
        <time>2016-10-27T07:10:18Z</time>
      </trkpt>
      <trkpt lat="44.82454" lon="6.20187">
        <ele>1291.19</ele>
        <time>2016-10-27T07:10:31Z</time>
      </trkpt>
      <trkpt lat="44.8246" lon="6.20181">
        <ele>1293.59</ele>
        <time>2016-10-27T07:10:43Z</time>
      </trkpt>
      <trkpt lat="44.82464" lon="6.20175">
        <ele>1295.99</ele>
        <time>2016-10-27T07:10:52Z</time>
      </trkpt>
      <trkpt lat="44.82468" lon="6.20168">
        <ele>1297.92</ele>
        <time>2016-10-27T07:11:01Z</time>
      </trkpt>
      <trkpt lat="44.82472" lon="6.20161">
        <ele>1298.88</ele>
        <time>2016-10-27T07:11:09Z</time>
      </trkpt>
      <trkpt lat="44.82479" lon="6.20158">
        <ele>1302.24</ele>
        <time>2016-10-27T07:11:22Z</time>
      </trkpt>
      <trkpt lat="44.82478" lon="6.20143">
        <ele>1304.65</ele>
        <time>2016-10-27T07:11:39Z</time>
      </trkpt>
      <trkpt lat="44.82478" lon="6.20142">
        <ele>1304.65</ele>
        <time>2016-10-27T07:11:40Z</time>
      </trkpt>
      <trkpt lat="44.82479" lon="6.20124">
        <ele>1306.09</ele>
        <time>2016-10-27T07:11:54Z</time>
      </trkpt>
      <trkpt lat="44.82485" lon="6.20115">
        <ele>1309.45</ele>
        <time>2016-10-27T07:12:08Z</time>
      </trkpt>
      <trkpt lat="44.82488" lon="6.20101">
        <ele>1311.38</ele>
        <time>2016-10-27T07:12:20Z</time>
      </trkpt>
      <trkpt lat="44.82493" lon="6.20092">
        <ele>1314.74</ele>
        <time>2016-10-27T07:12:33Z</time>
      </trkpt>
      <trkpt lat="44.82497" lon="6.20082">
        <ele>1316.66</ele>
        <time>2016-10-27T07:12:44Z</time>
      </trkpt>
      <trkpt lat="44.82505" lon="6.20073">
        <ele>1318.59</ele>
        <time>2016-10-27T07:12:58Z</time>
      </trkpt>
      <trkpt lat="44.82511" lon="6.2006">
        <ele>1320.99</ele>
        <time>2016-10-27T07:13:13Z</time>
      </trkpt>
      <trkpt lat="44.82513" lon="6.20049">
        <ele>1324.35</ele>
        <time>2016-10-27T07:13:26Z</time>
      </trkpt>
      <trkpt lat="44.82518" lon="6.20041">
        <ele>1326.76</ele>
        <time>2016-10-27T07:13:38Z</time>
      </trkpt>
      <trkpt lat="44.82521" lon="6.2003">
        <ele>1329.64</ele>
        <time>2016-10-27T07:13:51Z</time>
      </trkpt>
      <trkpt lat="44.82526" lon="6.20027">
        <ele>1332.04</ele>
        <time>2016-10-27T07:14:03Z</time>
      </trkpt>
      <trkpt lat="44.8253" lon="6.20019">
        <ele>1333.49</ele>
        <time>2016-10-27T07:14:14Z</time>
      </trkpt>
      <trkpt lat="44.82537" lon="6.2001">
        <ele>1335.89</ele>
        <time>2016-10-27T07:14:27Z</time>
      </trkpt>
      <trkpt lat="44.82542" lon="6.20002">
        <ele>1338.77</ele>
        <time>2016-10-27T07:14:40Z</time>
      </trkpt>
      <trkpt lat="44.82545" lon="6.19996">
        <ele>1340.22</ele>
        <time>2016-10-27T07:14:49Z</time>
      </trkpt>
      <trkpt lat="44.8255" lon="6.19996">
        <ele>1341.66</ele>
        <time>2016-10-27T07:14:56Z</time>
      </trkpt>
      <trkpt lat="44.82552" lon="6.19992">
        <ele>1343.1</ele>
        <time>2016-10-27T07:15:00Z</time>
      </trkpt>
      <trkpt lat="44.82555" lon="6.19991">
        <ele>1342.62</ele>
        <time>2016-10-27T07:15:03Z</time>
      </trkpt>
      <trkpt lat="44.82563" lon="6.19986">
        <ele>1345.98</ele>
        <time>2016-10-27T07:15:14Z</time>
      </trkpt>
      <trkpt lat="44.82571" lon="6.19979">
        <ele>1348.39</ele>
        <time>2016-10-27T07:15:26Z</time>
      </trkpt>
      <trkpt lat="44.82576" lon="6.19977">
        <ele>1350.79</ele>
        <time>2016-10-27T07:15:40Z</time>
      </trkpt>
      <trkpt lat="44.82582" lon="6.19972">
        <ele>1353.19</ele>
        <time>2016-10-27T07:15:50Z</time>
      </trkpt>
      <trkpt lat="44.82592" lon="6.19964">
        <ele>1355.6</ele>
        <time>2016-10-27T07:16:02Z</time>
      </trkpt>
      <trkpt lat="44.82598" lon="6.19964">
        <ele>1357.04</ele>
        <time>2016-10-27T07:16:15Z</time>
      </trkpt>
      <trkpt lat="44.82607" lon="6.19959">
        <ele>1358.48</ele>
        <time>2016-10-27T07:16:25Z</time>
      </trkpt>
      <trkpt lat="44.82608" lon="6.19959">
        <ele>1359.44</ele>
        <time>2016-10-27T07:16:27Z</time>
      </trkpt>
      <trkpt lat="44.82615" lon="6.19957">
        <ele>1361.84</ele>
        <time>2016-10-27T07:16:39Z</time>
      </trkpt>
      <trkpt lat="44.82625" lon="6.19952">
        <ele>1363.77</ele>
        <time>2016-10-27T07:16:51Z</time>
      </trkpt>
      <trkpt lat="44.82635" lon="6.19952">
        <ele>1365.69</ele>
        <time>2016-10-27T07:17:02Z</time>
      </trkpt>
      <trkpt lat="44.82642" lon="6.19949">
        <ele>1368.57</ele>
        <time>2016-10-27T07:17:14Z</time>
      </trkpt>
      <trkpt lat="44.8265" lon="6.19944">
        <ele>1370.98</ele>
        <time>2016-10-27T07:17:28Z</time>
      </trkpt>
      <trkpt lat="44.82657" lon="6.19942">
        <ele>1374.34</ele>
        <time>2016-10-27T07:17:41Z</time>
      </trkpt>
      <trkpt lat="44.82659" lon="6.19938">
        <ele>1375.3</ele>
        <time>2016-10-27T07:17:48Z</time>
      </trkpt>
      <trkpt lat="44.82671" lon="6.19926">
        <ele>1376.75</ele>
        <time>2016-10-27T07:18:02Z</time>
      </trkpt>
      <trkpt lat="44.8268" lon="6.19917">
        <ele>1379.63</ele>
        <time>2016-10-27T07:18:17Z</time>
      </trkpt>
      <trkpt lat="44.82681" lon="6.19917">
        <ele>1379.15</ele>
        <time>2016-10-27T07:18:18Z</time>
      </trkpt>
      <trkpt lat="44.82688" lon="6.19906">
        <ele>1381.07</ele>
        <time>2016-10-27T07:18:30Z</time>
      </trkpt>
      <trkpt lat="44.82689" lon="6.19905">
        <ele>1381.55</ele>
        <time>2016-10-27T07:18:31Z</time>
      </trkpt>
      <trkpt lat="44.82699" lon="6.199">
        <ele>1383.96</ele>
        <time>2016-10-27T07:18:43Z</time>
      </trkpt>
      <trkpt lat="44.82707" lon="6.19899">
        <ele>1386.84</ele>
        <time>2016-10-27T07:18:55Z</time>
      </trkpt>
      <trkpt lat="44.8271" lon="6.19898">
        <ele>1387.8</ele>
        <time>2016-10-27T07:19:03Z</time>
      </trkpt>
      <trkpt lat="44.82716" lon="6.19892">
        <ele>1389.72</ele>
        <time>2016-10-27T07:19:16Z</time>
      </trkpt>
      <trkpt lat="44.82721" lon="6.19886">
        <ele>1391.17</ele>
        <time>2016-10-27T07:19:24Z</time>
      </trkpt>
      <trkpt lat="44.82724" lon="6.19871">
        <ele>1394.53</ele>
        <time>2016-10-27T07:19:39Z</time>
      </trkpt>
      <trkpt lat="44.82721" lon="6.1987">
        <ele>1395.01</ele>
        <time>2016-10-27T07:19:56Z</time>
      </trkpt>
      <trkpt lat="44.82721" lon="6.19872">
        <ele>1395.01</ele>
        <time>2016-10-27T07:20:23Z</time>
      </trkpt>
      <trkpt lat="44.82717" lon="6.19864">
        <ele>1397.41</ele>
        <time>2016-10-27T07:20:36Z</time>
      </trkpt>
      <trkpt lat="44.8272" lon="6.19851">
        <ele>1399.34</ele>
        <time>2016-10-27T07:20:49Z</time>
      </trkpt>
      <trkpt lat="44.82728" lon="6.19838">
        <ele>1402.7</ele>
        <time>2016-10-27T07:21:01Z</time>
      </trkpt>
      <trkpt lat="44.82733" lon="6.19831">
        <ele>1403.66</ele>
        <time>2016-10-27T07:21:12Z</time>
      </trkpt>
      <trkpt lat="44.82737" lon="6.19836">
        <ele>1405.58</ele>
        <time>2016-10-27T07:21:27Z</time>
      </trkpt>
      <trkpt lat="44.82741" lon="6.19833">
        <ele>1407.51</ele>
        <time>2016-10-27T07:21:38Z</time>
      </trkpt>
      <trkpt lat="44.82746" lon="6.19828">
        <ele>1409.43</ele>
        <time>2016-10-27T07:21:49Z</time>
      </trkpt>
      <trkpt lat="44.82755" lon="6.1983">
        <ele>1411.83</ele>
        <time>2016-10-27T07:22:01Z</time>
      </trkpt>
      <trkpt lat="44.82765" lon="6.19832">
        <ele>1414.72</ele>
        <time>2016-10-27T07:22:17Z</time>
      </trkpt>
      <trkpt lat="44.82762" lon="6.19831">
        <ele>1415.68</ele>
        <time>2016-10-27T07:22:24Z</time>
      </trkpt>
      <trkpt lat="44.82763" lon="6.19814">
        <ele>1418.08</ele>
        <time>2016-10-27T07:22:37Z</time>
      </trkpt>
      <trkpt lat="44.8277" lon="6.19808">
        <ele>1420.49</ele>
        <time>2016-10-27T07:22:49Z</time>
      </trkpt>
      <trkpt lat="44.8278" lon="6.19804">
        <ele>1423.85</ele>
        <time>2016-10-27T07:23:01Z</time>
      </trkpt>
      <trkpt lat="44.8278" lon="6.19803">
        <ele>1423.37</ele>
        <time>2016-10-27T07:23:02Z</time>
      </trkpt>
      <trkpt lat="44.82788" lon="6.19801">
        <ele>1426.25</ele>
        <time>2016-10-27T07:23:16Z</time>
      </trkpt>
      <trkpt lat="44.82787" lon="6.19813">
        <ele>1428.18</ele>
        <time>2016-10-27T07:23:26Z</time>
      </trkpt>
      <trkpt lat="44.82792" lon="6.19819">
        <ele>1430.1</ele>
        <time>2016-10-27T07:23:38Z</time>
      </trkpt>
      <trkpt lat="44.82792" lon="6.19817">
        <ele>1430.58</ele>
        <time>2016-10-27T07:23:40Z</time>
      </trkpt>
      <trkpt lat="44.82801" lon="6.19806">
        <ele>1433.94</ele>
        <time>2016-10-27T07:23:56Z</time>
      </trkpt>
      <trkpt lat="44.82803" lon="6.19802">
        <ele>1435.39</ele>
        <time>2016-10-27T07:24:09Z</time>
      </trkpt>
      <trkpt lat="44.82803" lon="6.198">
        <ele>1435.39</ele>
        <time>2016-10-27T07:24:35Z</time>
      </trkpt>
      <trkpt lat="44.82804" lon="6.198">
        <ele>1435.39</ele>
        <time>2016-10-27T07:24:57Z</time>
      </trkpt>
      <trkpt lat="44.8281" lon="6.1979">
        <ele>1437.31</ele>
        <time>2016-10-27T07:25:09Z</time>
      </trkpt>
      <trkpt lat="44.82817" lon="6.19787">
        <ele>1439.23</ele>
        <time>2016-10-27T07:25:19Z</time>
      </trkpt>
      <trkpt lat="44.82817" lon="6.19788">
        <ele>1439.71</ele>
        <time>2016-10-27T07:25:22Z</time>
      </trkpt>
      <trkpt lat="44.82819" lon="6.19798">
        <ele>1442.11</ele>
        <time>2016-10-27T07:25:35Z</time>
      </trkpt>
      <trkpt lat="44.82828" lon="6.19809">
        <ele>1444.52</ele>
        <time>2016-10-27T07:25:47Z</time>
      </trkpt>
      <trkpt lat="44.8283" lon="6.19821">
        <ele>1446.92</ele>
        <time>2016-10-27T07:26:00Z</time>
      </trkpt>
      <trkpt lat="44.82831" lon="6.19822">
        <ele>1447.4</ele>
        <time>2016-10-27T07:26:03Z</time>
      </trkpt>
      <trkpt lat="44.82837" lon="6.19811">
        <ele>1449.81</ele>
        <time>2016-10-27T07:26:17Z</time>
      </trkpt>
      <trkpt lat="44.82844" lon="6.19802">
        <ele>1451.73</ele>
        <time>2016-10-27T07:26:30Z</time>
      </trkpt>
      <trkpt lat="44.82847" lon="6.19792">
        <ele>1453.65</ele>
        <time>2016-10-27T07:26:43Z</time>
      </trkpt>
      <trkpt lat="44.82848" lon="6.19792">
        <ele>1454.13</ele>
        <time>2016-10-27T07:26:44Z</time>
      </trkpt>
      <trkpt lat="44.82856" lon="6.19811">
        <ele>1457.02</ele>
        <time>2016-10-27T07:27:00Z</time>
      </trkpt>
      <trkpt lat="44.82857" lon="6.19813">
        <ele>1457.5</ele>
        <time>2016-10-27T07:27:03Z</time>
      </trkpt>
      <trkpt lat="44.82861" lon="6.19826">
        <ele>1459.9</ele>
        <time>2016-10-27T07:27:18Z</time>
      </trkpt>
      <trkpt lat="44.82861" lon="6.19828">
        <ele>1460.38</ele>
        <time>2016-10-27T07:27:19Z</time>
      </trkpt>
      <trkpt lat="44.82861" lon="6.19833">
        <ele>1460.86</ele>
        <time>2016-10-27T07:27:22Z</time>
      </trkpt>
      <trkpt lat="44.82863" lon="6.19836">
        <ele>1462.3</ele>
        <time>2016-10-27T07:27:30Z</time>
      </trkpt>
      <trkpt lat="44.82865" lon="6.19834">
        <ele>1462.78</ele>
        <time>2016-10-27T07:27:33Z</time>
      </trkpt>
      <trkpt lat="44.82872" lon="6.19822">
        <ele>1464.71</ele>
        <time>2016-10-27T07:27:46Z</time>
      </trkpt>
      <trkpt lat="44.82879" lon="6.19812">
        <ele>1467.11</ele>
        <time>2016-10-27T07:27:59Z</time>
      </trkpt>
      <trkpt lat="44.8288" lon="6.19808">
        <ele>1468.55</ele>
        <time>2016-10-27T07:28:03Z</time>
      </trkpt>
      <trkpt lat="44.82888" lon="6.19799">
        <ele>1470.95</ele>
        <time>2016-10-27T07:28:18Z</time>
      </trkpt>
      <trkpt lat="44.82892" lon="6.19796">
        <ele>1473.36</ele>
        <time>2016-10-27T07:28:32Z</time>
      </trkpt>
      <trkpt lat="44.82895" lon="6.19809">
        <ele>1475.76</ele>
        <time>2016-10-27T07:28:45Z</time>
      </trkpt>
      <trkpt lat="44.82896" lon="6.19813">
        <ele>1476.72</ele>
        <time>2016-10-27T07:28:50Z</time>
      </trkpt>
      <trkpt lat="44.82899" lon="6.19829">
        <ele>1479.13</ele>
        <time>2016-10-27T07:29:04Z</time>
      </trkpt>
      <trkpt lat="44.82904" lon="6.1984">
        <ele>1481.53</ele>
        <time>2016-10-27T07:29:19Z</time>
      </trkpt>
      <trkpt lat="44.82908" lon="6.1985">
        <ele>1483.93</ele>
        <time>2016-10-27T07:29:32Z</time>
      </trkpt>
      <trkpt lat="44.82908" lon="6.19851">
        <ele>1484.41</ele>
        <time>2016-10-27T07:29:33Z</time>
      </trkpt>
      <trkpt lat="44.82911" lon="6.19856">
        <ele>1484.89</ele>
        <time>2016-10-27T07:29:39Z</time>
      </trkpt>
      <trkpt lat="44.82913" lon="6.19839">
        <ele>1486.82</ele>
        <time>2016-10-27T07:29:52Z</time>
      </trkpt>
      <trkpt lat="44.82915" lon="6.19834">
        <ele>1488.26</ele>
        <time>2016-10-27T07:30:01Z</time>
      </trkpt>
      <trkpt lat="44.82922" lon="6.19824">
        <ele>1490.66</ele>
        <time>2016-10-27T07:30:13Z</time>
      </trkpt>
      <trkpt lat="44.82929" lon="6.19813">
        <ele>1492.58</ele>
        <time>2016-10-27T07:30:26Z</time>
      </trkpt>
      <trkpt lat="44.82932" lon="6.19825">
        <ele>1494.51</ele>
        <time>2016-10-27T07:30:38Z</time>
      </trkpt>
      <trkpt lat="44.82934" lon="6.19834">
        <ele>1497.39</ele>
        <time>2016-10-27T07:30:51Z</time>
      </trkpt>
      <trkpt lat="44.82937" lon="6.19849">
        <ele>1499.31</ele>
        <time>2016-10-27T07:31:06Z</time>
      </trkpt>
      <trkpt lat="44.82947" lon="6.19858">
        <ele>1502.2</ele>
        <time>2016-10-27T07:31:21Z</time>
      </trkpt>
      <trkpt lat="44.82947" lon="6.19851">
        <ele>1503.64</ele>
        <time>2016-10-27T07:31:33Z</time>
      </trkpt>
      <trkpt lat="44.82948" lon="6.19844">
        <ele>1505.56</ele>
        <time>2016-10-27T07:31:42Z</time>
      </trkpt>
      <trkpt lat="44.82949" lon="6.19841">
        <ele>1506.04</ele>
        <time>2016-10-27T07:31:45Z</time>
      </trkpt>
      <trkpt lat="44.82956" lon="6.19829">
        <ele>1507.97</ele>
        <time>2016-10-27T07:31:59Z</time>
      </trkpt>
      <trkpt lat="44.82961" lon="6.19819">
        <ele>1510.37</ele>
        <time>2016-10-27T07:32:13Z</time>
      </trkpt>
      <trkpt lat="44.82964" lon="6.19813">
        <ele>1511.33</ele>
        <time>2016-10-27T07:32:18Z</time>
      </trkpt>
      <trkpt lat="44.82969" lon="6.19805">
        <ele>1511.81</ele>
        <time>2016-10-27T07:32:24Z</time>
      </trkpt>
      <trkpt lat="44.82972" lon="6.19784">
        <ele>1514.21</ele>
        <time>2016-10-27T07:32:40Z</time>
      </trkpt>
      <trkpt lat="44.82971" lon="6.19776">
        <ele>1515.66</ele>
        <time>2016-10-27T07:32:48Z</time>
      </trkpt>
      <trkpt lat="44.82968" lon="6.1976">
        <ele>1519.02</ele>
        <time>2016-10-27T07:33:02Z</time>
      </trkpt>
      <trkpt lat="44.82974" lon="6.19758">
        <ele>1519.98</ele>
        <time>2016-10-27T07:33:17Z</time>
      </trkpt>
      <trkpt lat="44.82975" lon="6.19758">
        <ele>1520.46</ele>
        <time>2016-10-27T07:33:18Z</time>
      </trkpt>
      <trkpt lat="44.82982" lon="6.19765">
        <ele>1522.39</ele>
        <time>2016-10-27T07:33:30Z</time>
      </trkpt>
      <trkpt lat="44.82989" lon="6.19771">
        <ele>1524.79</ele>
        <time>2016-10-27T07:33:43Z</time>
      </trkpt>
      <trkpt lat="44.82996" lon="6.19782">
        <ele>1527.19</ele>
        <time>2016-10-27T07:33:57Z</time>
      </trkpt>
      <trkpt lat="44.82999" lon="6.19789">
        <ele>1530.08</ele>
        <time>2016-10-27T07:34:12Z</time>
      </trkpt>
      <trkpt lat="44.82999" lon="6.1978">
        <ele>1531.52</ele>
        <time>2016-10-27T07:34:22Z</time>
      </trkpt>
      <trkpt lat="44.83001" lon="6.19766">
        <ele>1534.4</ele>
        <time>2016-10-27T07:34:37Z</time>
      </trkpt>
      <trkpt lat="44.83001" lon="6.19754">
        <ele>1536.8</ele>
        <time>2016-10-27T07:34:50Z</time>
      </trkpt>
      <trkpt lat="44.82999" lon="6.19745">
        <ele>1539.69</ele>
        <time>2016-10-27T07:35:02Z</time>
      </trkpt>
      <trkpt lat="44.83006" lon="6.19745">
        <ele>1541.13</ele>
        <time>2016-10-27T07:35:14Z</time>
      </trkpt>
      <trkpt lat="44.83009" lon="6.19745">
        <ele>1542.09</ele>
        <time>2016-10-27T07:35:20Z</time>
      </trkpt>
      <trkpt lat="44.83015" lon="6.1975">
        <ele>1544.98</ele>
        <time>2016-10-27T07:35:35Z</time>
      </trkpt>
      <trkpt lat="44.83016" lon="6.19742">
        <ele>1546.9</ele>
        <time>2016-10-27T07:35:48Z</time>
      </trkpt>
      <trkpt lat="44.8301" lon="6.19732">
        <ele>1548.34</ele>
        <time>2016-10-27T07:35:59Z</time>
      </trkpt>
      <trkpt lat="44.83007" lon="6.19726">
        <ele>1550.74</ele>
        <time>2016-10-27T07:36:12Z</time>
      </trkpt>
      <trkpt lat="44.83002" lon="6.19717">
        <ele>1552.67</ele>
        <time>2016-10-27T07:36:25Z</time>
      </trkpt>
      <trkpt lat="44.83001" lon="6.19713">
        <ele>1553.63</ele>
        <time>2016-10-27T07:36:28Z</time>
      </trkpt>
      <trkpt lat="44.82999" lon="6.19712">
        <ele>1554.11</ele>
        <time>2016-10-27T07:36:31Z</time>
      </trkpt>
      <trkpt lat="44.82991" lon="6.19711">
        <ele>1555.07</ele>
        <time>2016-10-27T07:36:39Z</time>
      </trkpt>
      <trkpt lat="44.82986" lon="6.19704">
        <ele>1556.51</ele>
        <time>2016-10-27T07:36:51Z</time>
      </trkpt>
      <trkpt lat="44.82992" lon="6.19704">
        <ele>1559.4</ele>
        <time>2016-10-27T07:37:05Z</time>
      </trkpt>
      <trkpt lat="44.82996" lon="6.19699">
        <ele>1561.8</ele>
        <time>2016-10-27T07:37:20Z</time>
      </trkpt>
      <trkpt lat="44.82998" lon="6.19695">
        <ele>1563.72</ele>
        <time>2016-10-27T07:37:33Z</time>
      </trkpt>
      <trkpt lat="44.82999" lon="6.19693">
        <ele>1563.72</ele>
        <time>2016-10-27T07:37:45Z</time>
      </trkpt>
      <trkpt lat="44.82996" lon="6.19693">
        <ele>1563.24</ele>
        <time>2016-10-27T07:37:57Z</time>
      </trkpt>
      <trkpt lat="44.82998" lon="6.19688">
        <ele>1563.24</ele>
        <time>2016-10-27T07:38:27Z</time>
      </trkpt>
      <trkpt lat="44.83003" lon="6.19692">
        <ele>1563.72</ele>
        <time>2016-10-27T07:38:40Z</time>
      </trkpt>
      <trkpt lat="44.8301" lon="6.19695">
        <ele>1565.64</ele>
        <time>2016-10-27T07:38:57Z</time>
      </trkpt>
      <trkpt lat="44.83013" lon="6.19695">
        <ele>1567.57</ele>
        <time>2016-10-27T07:39:09Z</time>
      </trkpt>
      <trkpt lat="44.83021" lon="6.19696">
        <ele>1569.49</ele>
        <time>2016-10-27T07:39:22Z</time>
      </trkpt>
      <trkpt lat="44.83033" lon="6.19699">
        <ele>1572.37</ele>
        <time>2016-10-27T07:39:36Z</time>
      </trkpt>
      <trkpt lat="44.83036" lon="6.19697">
        <ele>1574.3</ele>
        <time>2016-10-27T07:39:48Z</time>
      </trkpt>
      <trkpt lat="44.83043" lon="6.19701">
        <ele>1576.7</ele>
        <time>2016-10-27T07:40:01Z</time>
      </trkpt>
      <trkpt lat="44.83046" lon="6.19702">
        <ele>1578.62</ele>
        <time>2016-10-27T07:40:11Z</time>
      </trkpt>
      <trkpt lat="44.83054" lon="6.19695">
        <ele>1581.51</ele>
        <time>2016-10-27T07:40:25Z</time>
      </trkpt>
      <trkpt lat="44.83061" lon="6.19689">
        <ele>1583.43</ele>
        <time>2016-10-27T07:40:38Z</time>
      </trkpt>
      <trkpt lat="44.83065" lon="6.1969">
        <ele>1585.83</ele>
        <time>2016-10-27T07:40:51Z</time>
      </trkpt>
      <trkpt lat="44.83071" lon="6.19685">
        <ele>1589.2</ele>
        <time>2016-10-27T07:41:03Z</time>
      </trkpt>
      <trkpt lat="44.83071" lon="6.19687">
        <ele>1588.72</ele>
        <time>2016-10-27T07:41:05Z</time>
      </trkpt>
      <trkpt lat="44.83072" lon="6.19698">
        <ele>1591.6</ele>
        <time>2016-10-27T07:41:19Z</time>
      </trkpt>
      <trkpt lat="44.83072" lon="6.19704">
        <ele>1593.04</ele>
        <time>2016-10-27T07:41:38Z</time>
      </trkpt>
      <trkpt lat="44.83076" lon="6.197">
        <ele>1594</ele>
        <time>2016-10-27T07:41:52Z</time>
      </trkpt>
      <trkpt lat="44.83077" lon="6.197">
        <ele>1594.96</ele>
        <time>2016-10-27T07:41:54Z</time>
      </trkpt>
      <trkpt lat="44.83083" lon="6.19706">
        <ele>1597.37</ele>
        <time>2016-10-27T07:42:06Z</time>
      </trkpt>
      <trkpt lat="44.83085" lon="6.19709">
        <ele>1599.77</ele>
        <time>2016-10-27T07:42:20Z</time>
      </trkpt>
      <trkpt lat="44.83088" lon="6.19714">
        <ele>1602.66</ele>
        <time>2016-10-27T07:42:35Z</time>
      </trkpt>
      <trkpt lat="44.8309" lon="6.19705">
        <ele>1604.1</ele>
        <time>2016-10-27T07:42:51Z</time>
      </trkpt>
      <trkpt lat="44.83095" lon="6.1971">
        <ele>1607.46</ele>
        <time>2016-10-27T07:43:03Z</time>
      </trkpt>
      <trkpt lat="44.83098" lon="6.19708">
        <ele>1608.9</ele>
        <time>2016-10-27T07:43:16Z</time>
      </trkpt>
      <trkpt lat="44.83102" lon="6.19699">
        <ele>1611.79</ele>
        <time>2016-10-27T07:43:32Z</time>
      </trkpt>
      <trkpt lat="44.83104" lon="6.1969">
        <ele>1614.19</ele>
        <time>2016-10-27T07:43:44Z</time>
      </trkpt>
      <trkpt lat="44.83105" lon="6.1969">
        <ele>1614.67</ele>
        <time>2016-10-27T07:43:45Z</time>
      </trkpt>
      <trkpt lat="44.83117" lon="6.1969">
        <ele>1616.59</ele>
        <time>2016-10-27T07:43:59Z</time>
      </trkpt>
      <trkpt lat="44.83118" lon="6.1969">
        <ele>1617.07</ele>
        <time>2016-10-27T07:44:01Z</time>
      </trkpt>
      <trkpt lat="44.83129" lon="6.19683">
        <ele>1619</ele>
        <time>2016-10-27T07:44:16Z</time>
      </trkpt>
      <trkpt lat="44.83137" lon="6.19675">
        <ele>1621.88</ele>
        <time>2016-10-27T07:44:30Z</time>
      </trkpt>
      <trkpt lat="44.83144" lon="6.19676">
        <ele>1624.77</ele>
        <time>2016-10-27T07:44:45Z</time>
      </trkpt>
      <trkpt lat="44.83148" lon="6.19674">
        <ele>1625.73</ele>
        <time>2016-10-27T07:44:52Z</time>
      </trkpt>
      <trkpt lat="44.83155" lon="6.19665">
        <ele>1628.13</ele>
        <time>2016-10-27T07:45:03Z</time>
      </trkpt>
      <trkpt lat="44.83162" lon="6.19658">
        <ele>1629.57</ele>
        <time>2016-10-27T07:45:16Z</time>
      </trkpt>
      <trkpt lat="44.83167" lon="6.19655">
        <ele>1631.98</ele>
        <time>2016-10-27T07:45:30Z</time>
      </trkpt>
      <trkpt lat="44.83175" lon="6.19648">
        <ele>1633.9</ele>
        <time>2016-10-27T07:45:43Z</time>
      </trkpt>
      <trkpt lat="44.83182" lon="6.19647">
        <ele>1633.9</ele>
        <time>2016-10-27T07:45:56Z</time>
      </trkpt>
      <trkpt lat="44.83191" lon="6.19638">
        <ele>1631.49</ele>
        <time>2016-10-27T07:46:09Z</time>
      </trkpt>
      <trkpt lat="44.83197" lon="6.19626">
        <ele>1630.53</ele>
        <time>2016-10-27T07:46:21Z</time>
      </trkpt>
      <trkpt lat="44.83206" lon="6.1961">
        <ele>1631.01</ele>
        <time>2016-10-27T07:46:32Z</time>
      </trkpt>
      <trkpt lat="44.83206" lon="6.19607">
        <ele>1631.01</ele>
        <time>2016-10-27T07:46:35Z</time>
      </trkpt>
      <trkpt lat="44.83209" lon="6.19592">
        <ele>1631.49</ele>
        <time>2016-10-27T07:46:47Z</time>
      </trkpt>
      <trkpt lat="44.83209" lon="6.19577">
        <ele>1632.46</ele>
        <time>2016-10-27T07:46:57Z</time>
      </trkpt>
      <trkpt lat="44.8321" lon="6.1957">
        <ele>1633.9</ele>
        <time>2016-10-27T07:47:04Z</time>
      </trkpt>
      <trkpt lat="44.8321" lon="6.1956">
        <ele>1635.34</ele>
        <time>2016-10-27T07:47:15Z</time>
      </trkpt>
      <trkpt lat="44.8321" lon="6.19539">
        <ele>1637.26</ele>
        <time>2016-10-27T07:47:30Z</time>
      </trkpt>
      <trkpt lat="44.83211" lon="6.19523">
        <ele>1639.67</ele>
        <time>2016-10-27T07:47:43Z</time>
      </trkpt>
      <trkpt lat="44.83216" lon="6.19513">
        <ele>1641.59</ele>
        <time>2016-10-27T07:48:00Z</time>
      </trkpt>
      <trkpt lat="44.83218" lon="6.19501">
        <ele>1644.95</ele>
        <time>2016-10-27T07:48:18Z</time>
      </trkpt>
      <trkpt lat="44.83226" lon="6.19492">
        <ele>1646.88</ele>
        <time>2016-10-27T07:48:31Z</time>
      </trkpt>
      <trkpt lat="44.83229" lon="6.19497">
        <ele>1649.76</ele>
        <time>2016-10-27T07:48:44Z</time>
      </trkpt>
      <trkpt lat="44.83233" lon="6.19491">
        <ele>1652.64</ele>
        <time>2016-10-27T07:49:00Z</time>
      </trkpt>
      <trkpt lat="44.83235" lon="6.19485">
        <ele>1655.53</ele>
        <time>2016-10-27T07:49:14Z</time>
      </trkpt>
      <trkpt lat="44.83241" lon="6.19483">
        <ele>1658.89</ele>
        <time>2016-10-27T07:49:29Z</time>
      </trkpt>
      <trkpt lat="44.83242" lon="6.19483">
        <ele>1658.89</ele>
        <time>2016-10-27T07:49:31Z</time>
      </trkpt>
      <trkpt lat="44.83248" lon="6.19485">
        <ele>1662.74</ele>
        <time>2016-10-27T07:49:44Z</time>
      </trkpt>
      <trkpt lat="44.83258" lon="6.19489">
        <ele>1665.62</ele>
        <time>2016-10-27T07:50:00Z</time>
      </trkpt>
      <trkpt lat="44.83261" lon="6.19492">
        <ele>1668.99</ele>
        <time>2016-10-27T07:50:13Z</time>
      </trkpt>
      <trkpt lat="44.83262" lon="6.19498">
        <ele>1670.91</ele>
        <time>2016-10-27T07:50:26Z</time>
      </trkpt>
      <trkpt lat="44.83266" lon="6.19495">
        <ele>1672.83</ele>
        <time>2016-10-27T07:50:40Z</time>
      </trkpt>
      <trkpt lat="44.83268" lon="6.19492">
        <ele>1675.23</ele>
        <time>2016-10-27T07:50:53Z</time>
      </trkpt>
      <trkpt lat="44.83274" lon="6.19491">
        <ele>1678.6</ele>
        <time>2016-10-27T07:51:04Z</time>
      </trkpt>
      <trkpt lat="44.83281" lon="6.19499">
        <ele>1680.52</ele>
        <time>2016-10-27T07:51:18Z</time>
      </trkpt>
      <trkpt lat="44.83283" lon="6.19508">
        <ele>1682.44</ele>
        <time>2016-10-27T07:51:29Z</time>
      </trkpt>
      <trkpt lat="44.83284" lon="6.19509">
        <ele>1684.85</ele>
        <time>2016-10-27T07:51:43Z</time>
      </trkpt>
      <trkpt lat="44.83289" lon="6.19499">
        <ele>1686.77</ele>
        <time>2016-10-27T07:51:56Z</time>
      </trkpt>
      <trkpt lat="44.8329" lon="6.19494">
        <ele>1689.17</ele>
        <time>2016-10-27T07:52:09Z</time>
      </trkpt>
      <trkpt lat="44.83289" lon="6.19482">
        <ele>1690.62</ele>
        <time>2016-10-27T07:52:21Z</time>
      </trkpt>
      <trkpt lat="44.83285" lon="6.19473">
        <ele>1693.5</ele>
        <time>2016-10-27T07:52:35Z</time>
      </trkpt>
      <trkpt lat="44.83281" lon="6.19466">
        <ele>1696.38</ele>
        <time>2016-10-27T07:52:51Z</time>
      </trkpt>
      <trkpt lat="44.83287" lon="6.19457">
        <ele>1699.27</ele>
        <time>2016-10-27T07:53:04Z</time>
      </trkpt>
      <trkpt lat="44.83287" lon="6.19453">
        <ele>1699.27</ele>
        <time>2016-10-27T07:53:08Z</time>
      </trkpt>
      <trkpt lat="44.8329" lon="6.19447">
        <ele>1700.23</ele>
        <time>2016-10-27T07:53:14Z</time>
      </trkpt>
      <trkpt lat="44.83295" lon="6.19433">
        <ele>1701.67</ele>
        <time>2016-10-27T07:53:27Z</time>
      </trkpt>
      <trkpt lat="44.83299" lon="6.19448">
        <ele>1704.07</ele>
        <time>2016-10-27T07:53:40Z</time>
      </trkpt>
      <trkpt lat="44.83304" lon="6.19453">
        <ele>1706</ele>
        <time>2016-10-27T07:53:48Z</time>
      </trkpt>
      <trkpt lat="44.83312" lon="6.19462">
        <ele>1707.92</ele>
        <time>2016-10-27T07:54:01Z</time>
      </trkpt>
      <trkpt lat="44.83324" lon="6.19471">
        <ele>1710.8</ele>
        <time>2016-10-27T07:54:15Z</time>
      </trkpt>
      <trkpt lat="44.83326" lon="6.19481">
        <ele>1712.73</ele>
        <time>2016-10-27T07:54:29Z</time>
      </trkpt>
      <trkpt lat="44.83326" lon="6.19484">
        <ele>1713.69</ele>
        <time>2016-10-27T07:54:32Z</time>
      </trkpt>
      <trkpt lat="44.83327" lon="6.195">
        <ele>1716.09</ele>
        <time>2016-10-27T07:54:46Z</time>
      </trkpt>
      <trkpt lat="44.83327" lon="6.19511">
        <ele>1718.49</ele>
        <time>2016-10-27T07:55:00Z</time>
      </trkpt>
      <trkpt lat="44.83329" lon="6.19518">
        <ele>1719.94</ele>
        <time>2016-10-27T07:55:09Z</time>
      </trkpt>
      <trkpt lat="44.83331" lon="6.1951">
        <ele>1720.42</ele>
        <time>2016-10-27T07:55:14Z</time>
      </trkpt>
      <trkpt lat="44.83338" lon="6.19493">
        <ele>1722.82</ele>
        <time>2016-10-27T07:55:30Z</time>
      </trkpt>
      <trkpt lat="44.8334" lon="6.19475">
        <ele>1725.7</ele>
        <time>2016-10-27T07:55:47Z</time>
      </trkpt>
      <trkpt lat="44.8334" lon="6.19459">
        <ele>1727.63</ele>
        <time>2016-10-27T07:56:02Z</time>
      </trkpt>
      <trkpt lat="44.83342" lon="6.19449">
        <ele>1729.55</ele>
        <time>2016-10-27T07:56:16Z</time>
      </trkpt>
      <trkpt lat="44.83347" lon="6.19458">
        <ele>1732.91</ele>
        <time>2016-10-27T07:56:31Z</time>
      </trkpt>
      <trkpt lat="44.83352" lon="6.19468">
        <ele>1734.84</ele>
        <time>2016-10-27T07:56:43Z</time>
      </trkpt>
      <trkpt lat="44.83354" lon="6.19471">
        <ele>1735.8</ele>
        <time>2016-10-27T07:56:54Z</time>
      </trkpt>
      <trkpt lat="44.83358" lon="6.19484">
        <ele>1737.72</ele>
        <time>2016-10-27T07:57:07Z</time>
      </trkpt>
      <trkpt lat="44.83362" lon="6.19497">
        <ele>1739.64</ele>
        <time>2016-10-27T07:57:21Z</time>
      </trkpt>
      <trkpt lat="44.83367" lon="6.19507">
        <ele>1743.01</ele>
        <time>2016-10-27T07:57:34Z</time>
      </trkpt>
      <trkpt lat="44.83371" lon="6.19519">
        <ele>1744.45</ele>
        <time>2016-10-27T07:57:49Z</time>
      </trkpt>
      <trkpt lat="44.83371" lon="6.19532">
        <ele>1746.85</ele>
        <time>2016-10-27T07:58:01Z</time>
      </trkpt>
      <trkpt lat="44.83371" lon="6.19545">
        <ele>1748.78</ele>
        <time>2016-10-27T07:58:13Z</time>
      </trkpt>
      <trkpt lat="44.83372" lon="6.19557">
        <ele>1750.22</ele>
        <time>2016-10-27T07:58:25Z</time>
      </trkpt>
      <trkpt lat="44.8337" lon="6.19559">
        <ele>1750.7</ele>
        <time>2016-10-27T07:58:31Z</time>
      </trkpt>
      <trkpt lat="44.83365" lon="6.19573">
        <ele>1752.14</ele>
        <time>2016-10-27T07:58:45Z</time>
      </trkpt>
      <trkpt lat="44.83361" lon="6.19584">
        <ele>1753.58</ele>
        <time>2016-10-27T07:58:59Z</time>
      </trkpt>
      <trkpt lat="44.83358" lon="6.19592">
        <ele>1755.5</ele>
        <time>2016-10-27T07:59:12Z</time>
      </trkpt>
      <trkpt lat="44.83351" lon="6.19597">
        <ele>1756.47</ele>
        <time>2016-10-27T07:59:22Z</time>
      </trkpt>
      <trkpt lat="44.83346" lon="6.19602">
        <ele>1757.91</ele>
        <time>2016-10-27T07:59:33Z</time>
      </trkpt>
      <trkpt lat="44.83346" lon="6.19607">
        <ele>1758.39</ele>
        <time>2016-10-27T07:59:48Z</time>
      </trkpt>
      <trkpt lat="44.83348" lon="6.19619">
        <ele>1760.79</ele>
        <time>2016-10-27T08:00:01Z</time>
      </trkpt>
      <trkpt lat="44.83346" lon="6.19628">
        <ele>1763.2</ele>
        <time>2016-10-27T08:00:15Z</time>
      </trkpt>
      <trkpt lat="44.83354" lon="6.19624">
        <ele>1765.12</ele>
        <time>2016-10-27T08:00:31Z</time>
      </trkpt>
      <trkpt lat="44.8336" lon="6.19622">
        <ele>1767.04</ele>
        <time>2016-10-27T08:00:42Z</time>
      </trkpt>
      <trkpt lat="44.83368" lon="6.19611">
        <ele>1768.96</ele>
        <time>2016-10-27T08:00:58Z</time>
      </trkpt>
      <trkpt lat="44.83373" lon="6.19616">
        <ele>1770.41</ele>
        <time>2016-10-27T08:01:12Z</time>
      </trkpt>
      <trkpt lat="44.83372" lon="6.19618">
        <ele>1771.37</ele>
        <time>2016-10-27T08:01:15Z</time>
      </trkpt>
      <trkpt lat="44.83367" lon="6.19629">
        <ele>1772.33</ele>
        <time>2016-10-27T08:01:28Z</time>
      </trkpt>
      <trkpt lat="44.83377" lon="6.19626">
        <ele>1774.73</ele>
        <time>2016-10-27T08:01:43Z</time>
      </trkpt>
      <trkpt lat="44.83378" lon="6.19635">
        <ele>1775.69</ele>
        <time>2016-10-27T08:01:54Z</time>
      </trkpt>
      <trkpt lat="44.83373" lon="6.19647">
        <ele>1777.61</ele>
        <time>2016-10-27T08:02:09Z</time>
      </trkpt>
      <trkpt lat="44.83379" lon="6.19646">
        <ele>1779.54</ele>
        <time>2016-10-27T08:02:24Z</time>
      </trkpt>
      <trkpt lat="44.83381" lon="6.19646">
        <ele>1779.54</ele>
        <time>2016-10-27T08:02:26Z</time>
      </trkpt>
      <trkpt lat="44.83388" lon="6.19636">
        <ele>1781.94</ele>
        <time>2016-10-27T08:02:41Z</time>
      </trkpt>
      <trkpt lat="44.83389" lon="6.19636">
        <ele>1781.94</ele>
        <time>2016-10-27T08:02:43Z</time>
      </trkpt>
      <trkpt lat="44.83391" lon="6.19628">
        <ele>1782.42</ele>
        <time>2016-10-27T08:02:56Z</time>
      </trkpt>
      <trkpt lat="44.83397" lon="6.19615">
        <ele>1783.86</ele>
        <time>2016-10-27T08:03:09Z</time>
      </trkpt>
      <trkpt lat="44.83403" lon="6.19604">
        <ele>1786.75</ele>
        <time>2016-10-27T08:03:24Z</time>
      </trkpt>
      <trkpt lat="44.83405" lon="6.19592">
        <ele>1788.67</ele>
        <time>2016-10-27T08:03:39Z</time>
      </trkpt>
      <trkpt lat="44.83405" lon="6.19586">
        <ele>1792.03</ele>
        <time>2016-10-27T08:03:53Z</time>
      </trkpt>
      <trkpt lat="44.83405" lon="6.1957">
        <ele>1793.48</ele>
        <time>2016-10-27T08:04:09Z</time>
      </trkpt>
      <trkpt lat="44.83406" lon="6.19567">
        <ele>1796.84</ele>
        <time>2016-10-27T08:04:18Z</time>
      </trkpt>
      <trkpt lat="44.83412" lon="6.19574">
        <ele>1798.28</ele>
        <time>2016-10-27T08:04:34Z</time>
      </trkpt>
      <trkpt lat="44.83416" lon="6.19579">
        <ele>1800.21</ele>
        <time>2016-10-27T08:04:48Z</time>
      </trkpt>
      <trkpt lat="44.83417" lon="6.19588">
        <ele>1802.13</ele>
        <time>2016-10-27T08:05:04Z</time>
      </trkpt>
      <trkpt lat="44.83419" lon="6.19592">
        <ele>1803.57</ele>
        <time>2016-10-27T08:05:12Z</time>
      </trkpt>
      <trkpt lat="44.83421" lon="6.19601">
        <ele>1804.53</ele>
        <time>2016-10-27T08:05:21Z</time>
      </trkpt>
      <trkpt lat="44.83423" lon="6.1961">
        <ele>1805.49</ele>
        <time>2016-10-27T08:05:34Z</time>
      </trkpt>
      <trkpt lat="44.83424" lon="6.19613">
        <ele>1805.97</ele>
        <time>2016-10-27T08:05:37Z</time>
      </trkpt>
      <trkpt lat="44.8343" lon="6.19626">
        <ele>1808.86</ele>
        <time>2016-10-27T08:05:51Z</time>
      </trkpt>
      <trkpt lat="44.83433" lon="6.19618">
        <ele>1811.26</ele>
        <time>2016-10-27T08:06:06Z</time>
      </trkpt>
      <trkpt lat="44.83433" lon="6.19602">
        <ele>1814.15</ele>
        <time>2016-10-27T08:06:21Z</time>
      </trkpt>
      <trkpt lat="44.83434" lon="6.19599">
        <ele>1814.15</ele>
        <time>2016-10-27T08:06:24Z</time>
      </trkpt>
      <trkpt lat="44.83439" lon="6.19595">
        <ele>1816.07</ele>
        <time>2016-10-27T08:06:37Z</time>
      </trkpt>
      <trkpt lat="44.83444" lon="6.19608">
        <ele>1819.43</ele>
        <time>2016-10-27T08:06:53Z</time>
      </trkpt>
      <trkpt lat="44.8345" lon="6.19615">
        <ele>1821.84</ele>
        <time>2016-10-27T08:07:07Z</time>
      </trkpt>
      <trkpt lat="44.83451" lon="6.19617">
        <ele>1822.8</ele>
        <time>2016-10-27T08:07:11Z</time>
      </trkpt>
      <trkpt lat="44.83453" lon="6.19629">
        <ele>1824.24</ele>
        <time>2016-10-27T08:07:23Z</time>
      </trkpt>
      <trkpt lat="44.83456" lon="6.19635">
        <ele>1827.12</ele>
        <time>2016-10-27T08:07:38Z</time>
      </trkpt>
      <trkpt lat="44.83456" lon="6.19635">
        <ele>1827.12</ele>
        <time>2016-10-27T08:08:01Z</time>
      </trkpt>
      <trkpt lat="44.83457" lon="6.19641">
        <ele>1828.56</ele>
        <time>2016-10-27T08:08:17Z</time>
      </trkpt>
      <trkpt lat="44.83456" lon="6.19649">
        <ele>1829.05</ele>
        <time>2016-10-27T08:08:30Z</time>
      </trkpt>
      <trkpt lat="44.83456" lon="6.19658">
        <ele>1829.05</ele>
        <time>2016-10-27T08:08:41Z</time>
      </trkpt>
      <trkpt lat="44.83456" lon="6.19661">
        <ele>1829.05</ele>
        <time>2016-10-27T08:08:47Z</time>
      </trkpt>
      <trkpt lat="44.8345" lon="6.19671">
        <ele>1827.6</ele>
        <time>2016-10-27T08:08:58Z</time>
      </trkpt>
      <trkpt lat="44.83448" lon="6.19672">
        <ele>1827.6</ele>
        <time>2016-10-27T08:09:00Z</time>
      </trkpt>
      <trkpt lat="44.8344" lon="6.19691">
        <ele>1828.08</ele>
        <time>2016-10-27T08:09:12Z</time>
      </trkpt>
      <trkpt lat="44.83439" lon="6.19698">
        <ele>1828.56</ele>
        <time>2016-10-27T08:09:17Z</time>
      </trkpt>
      <trkpt lat="44.83434" lon="6.19708">
        <ele>1830.01</ele>
        <time>2016-10-27T08:09:33Z</time>
      </trkpt>
      <trkpt lat="44.83433" lon="6.19711">
        <ele>1830.97</ele>
        <time>2016-10-27T08:09:43Z</time>
      </trkpt>
      <trkpt lat="44.83431" lon="6.19713">
        <ele>1829.53</ele>
        <time>2016-10-27T08:10:00Z</time>
      </trkpt>
      <trkpt lat="44.83428" lon="6.19716">
        <ele>1830.49</ele>
        <time>2016-10-27T08:10:04Z</time>
      </trkpt>
      <trkpt lat="44.83425" lon="6.19726">
        <ele>1831.93</ele>
        <time>2016-10-27T08:10:15Z</time>
      </trkpt>
      <trkpt lat="44.83424" lon="6.19732">
        <ele>1833.37</ele>
        <time>2016-10-27T08:10:22Z</time>
      </trkpt>
      <trkpt lat="44.8342" lon="6.19739">
        <ele>1834.81</ele>
        <time>2016-10-27T08:10:29Z</time>
      </trkpt>
      <trkpt lat="44.83421" lon="6.19742">
        <ele>1836.74</ele>
        <time>2016-10-27T08:10:43Z</time>
      </trkpt>
      <trkpt lat="44.83422" lon="6.19738">
        <ele>1837.7</ele>
        <time>2016-10-27T08:10:52Z</time>
      </trkpt>
      <trkpt lat="44.83425" lon="6.19736">
        <ele>1837.7</ele>
        <time>2016-10-27T08:10:55Z</time>
      </trkpt>
      <trkpt lat="44.83433" lon="6.19729">
        <ele>1840.1</ele>
        <time>2016-10-27T08:11:09Z</time>
      </trkpt>
      <trkpt lat="44.83435" lon="6.19727">
        <ele>1840.58</ele>
        <time>2016-10-27T08:11:11Z</time>
      </trkpt>
      <trkpt lat="44.83441" lon="6.19721">
        <ele>1842.5</ele>
        <time>2016-10-27T08:11:24Z</time>
      </trkpt>
      <trkpt lat="44.83447" lon="6.19713">
        <ele>1844.43</ele>
        <time>2016-10-27T08:11:38Z</time>
      </trkpt>
      <trkpt lat="44.83448" lon="6.19716">
        <ele>1844.91</ele>
        <time>2016-10-27T08:11:41Z</time>
      </trkpt>
      <trkpt lat="44.83449" lon="6.19732">
        <ele>1848.27</ele>
        <time>2016-10-27T08:11:54Z</time>
      </trkpt>
      <trkpt lat="44.83448" lon="6.19743">
        <ele>1848.75</ele>
        <time>2016-10-27T08:12:03Z</time>
      </trkpt>
      <trkpt lat="44.83447" lon="6.19751">
        <ele>1849.71</ele>
        <time>2016-10-27T08:12:10Z</time>
      </trkpt>
      <trkpt lat="44.83445" lon="6.19764">
        <ele>1851.16</ele>
        <time>2016-10-27T08:12:24Z</time>
      </trkpt>
      <trkpt lat="44.83443" lon="6.19762">
        <ele>1851.64</ele>
        <time>2016-10-27T08:12:46Z</time>
      </trkpt>
      <trkpt lat="44.83443" lon="6.19764">
        <ele>1852.12</ele>
        <time>2016-10-27T08:13:04Z</time>
      </trkpt>
      <trkpt lat="44.83443" lon="6.19766">
        <ele>1851.64</ele>
        <time>2016-10-27T08:13:33Z</time>
      </trkpt>
      <trkpt lat="44.83444" lon="6.19768">
        <ele>1851.64</ele>
        <time>2016-10-27T08:14:01Z</time>
      </trkpt>
      <trkpt lat="44.83444" lon="6.19766">
        <ele>1851.64</ele>
        <time>2016-10-27T08:14:26Z</time>
      </trkpt>
      <trkpt lat="44.83444" lon="6.19765">
        <ele>1852.12</ele>
        <time>2016-10-27T08:14:47Z</time>
      </trkpt>
      <trkpt lat="44.83445" lon="6.19763">
        <ele>1851.64</ele>
        <time>2016-10-27T08:15:20Z</time>
      </trkpt>
      <trkpt lat="44.83449" lon="6.19772">
        <ele>1853.08</ele>
        <time>2016-10-27T08:15:32Z</time>
      </trkpt>
      <trkpt lat="44.83454" lon="6.19782">
        <ele>1856.44</ele>
        <time>2016-10-27T08:15:46Z</time>
      </trkpt>
      <trkpt lat="44.83458" lon="6.19785">
        <ele>1856.44</ele>
        <time>2016-10-27T08:16:05Z</time>
      </trkpt>
      <trkpt lat="44.83462" lon="6.19796">
        <ele>1858.85</ele>
        <time>2016-10-27T08:16:17Z</time>
      </trkpt>
      <trkpt lat="44.83467" lon="6.19803">
        <ele>1861.25</ele>
        <time>2016-10-27T08:16:30Z</time>
      </trkpt>
      <trkpt lat="44.83472" lon="6.19805">
        <ele>1863.65</ele>
        <time>2016-10-27T08:16:40Z</time>
      </trkpt>
      <trkpt lat="44.8348" lon="6.19807">
        <ele>1865.09</ele>
        <time>2016-10-27T08:16:51Z</time>
      </trkpt>
      <trkpt lat="44.83487" lon="6.19815">
        <ele>1866.54</ele>
        <time>2016-10-27T08:17:00Z</time>
      </trkpt>
      <trkpt lat="44.83496" lon="6.19818">
        <ele>1867.98</ele>
        <time>2016-10-27T08:17:13Z</time>
      </trkpt>
      <trkpt lat="44.83493" lon="6.19819">
        <ele>1867.5</ele>
        <time>2016-10-27T08:17:26Z</time>
      </trkpt>
      <trkpt lat="44.83489" lon="6.19821">
        <ele>1866.54</ele>
        <time>2016-10-27T08:17:31Z</time>
      </trkpt>
      <trkpt lat="44.83477" lon="6.19816">
        <ele>1864.61</ele>
        <time>2016-10-27T08:17:43Z</time>
      </trkpt>
      <trkpt lat="44.83469" lon="6.19812">
        <ele>1864.13</ele>
        <time>2016-10-27T08:17:57Z</time>
      </trkpt>
      <trkpt lat="44.83469" lon="6.19803">
        <ele>1863.17</ele>
        <time>2016-10-27T08:18:08Z</time>
      </trkpt>
      <trkpt lat="44.83465" lon="6.19795">
        <ele>1861.73</ele>
        <time>2016-10-27T08:18:18Z</time>
      </trkpt>
      <trkpt lat="44.83465" lon="6.19799">
        <ele>1860.77</ele>
        <time>2016-10-27T08:18:26Z</time>
      </trkpt>
      <trkpt lat="44.83467" lon="6.19802">
        <ele>1861.25</ele>
        <time>2016-10-27T08:18:41Z</time>
      </trkpt>
      <trkpt lat="44.83475" lon="6.19806">
        <ele>1864.13</ele>
        <time>2016-10-27T08:18:55Z</time>
      </trkpt>
      <trkpt lat="44.83485" lon="6.19811">
        <ele>1865.58</ele>
        <time>2016-10-27T08:19:07Z</time>
      </trkpt>
      <trkpt lat="44.8349" lon="6.19819">
        <ele>1867.02</ele>
        <time>2016-10-27T08:19:18Z</time>
      </trkpt>
      <trkpt lat="44.83493" lon="6.19819">
        <ele>1867.5</ele>
        <time>2016-10-27T08:19:35Z</time>
      </trkpt>
      <trkpt lat="44.83499" lon="6.19824">
        <ele>1868.94</ele>
        <time>2016-10-27T08:19:47Z</time>
      </trkpt>
      <trkpt lat="44.83497" lon="6.19824">
        <ele>1868.94</ele>
        <time>2016-10-27T08:20:05Z</time>
      </trkpt>
      <trkpt lat="44.83496" lon="6.19822">
        <ele>1868.46</ele>
        <time>2016-10-27T08:20:08Z</time>
      </trkpt>
      <trkpt lat="44.83488" lon="6.19822">
        <ele>1867.5</ele>
        <time>2016-10-27T08:20:19Z</time>
      </trkpt>
      <trkpt lat="44.83489" lon="6.19821">
        <ele>1867.5</ele>
        <time>2016-10-27T08:20:33Z</time>
      </trkpt>
      <trkpt lat="44.8349" lon="6.19821">
        <ele>1867.5</ele>
        <time>2016-10-27T08:20:49Z</time>
      </trkpt>
      <trkpt lat="44.83492" lon="6.19821">
        <ele>1867.02</ele>
        <time>2016-10-27T08:21:05Z</time>
      </trkpt>
      <trkpt lat="44.83493" lon="6.19823">
        <ele>1867.02</ele>
        <time>2016-10-27T08:21:23Z</time>
      </trkpt>
      <trkpt lat="44.8349" lon="6.19827">
        <ele>1866.54</ele>
        <time>2016-10-27T08:21:39Z</time>
      </trkpt>
      <trkpt lat="44.83489" lon="6.19827">
        <ele>1866.54</ele>
        <time>2016-10-27T08:21:40Z</time>
      </trkpt>
      <trkpt lat="44.83483" lon="6.19829">
        <ele>1866.54</ele>
        <time>2016-10-27T08:21:52Z</time>
      </trkpt>
      <trkpt lat="44.83488" lon="6.19834">
        <ele>1869.42</ele>
        <time>2016-10-27T08:22:02Z</time>
      </trkpt>
      <trkpt lat="44.83484" lon="6.19845">
        <ele>1872.3</ele>
        <time>2016-10-27T08:22:14Z</time>
      </trkpt>
      <trkpt lat="44.83478" lon="6.19848">
        <ele>1874.23</ele>
        <time>2016-10-27T08:22:28Z</time>
      </trkpt>
      <trkpt lat="44.83478" lon="6.19848">
        <ele>1874.71</ele>
        <time>2016-10-27T08:22:29Z</time>
      </trkpt>
      <trkpt lat="44.83477" lon="6.19851">
        <ele>1874.71</ele>
        <time>2016-10-27T08:22:33Z</time>
      </trkpt>
      <trkpt lat="44.83477" lon="6.19859">
        <ele>1876.15</ele>
        <time>2016-10-27T08:22:43Z</time>
      </trkpt>
      <trkpt lat="44.83481" lon="6.19856">
        <ele>1877.11</ele>
        <time>2016-10-27T08:22:53Z</time>
      </trkpt>
      <trkpt lat="44.83488" lon="6.19855">
        <ele>1880</ele>
        <time>2016-10-27T08:23:08Z</time>
      </trkpt>
      <trkpt lat="44.83493" lon="6.19855">
        <ele>1881.44</ele>
        <time>2016-10-27T08:23:22Z</time>
      </trkpt>
      <trkpt lat="44.83497" lon="6.19857">
        <ele>1883.84</ele>
        <time>2016-10-27T08:23:34Z</time>
      </trkpt>
      <trkpt lat="44.83502" lon="6.19862">
        <ele>1885.28</ele>
        <time>2016-10-27T08:23:40Z</time>
      </trkpt>
      <trkpt lat="44.835" lon="6.19866">
        <ele>1885.76</ele>
        <time>2016-10-27T08:23:43Z</time>
      </trkpt>
      <trkpt lat="44.83495" lon="6.19876">
        <ele>1887.69</ele>
        <time>2016-10-27T08:23:58Z</time>
      </trkpt>
      <trkpt lat="44.83491" lon="6.19882">
        <ele>1889.61</ele>
        <time>2016-10-27T08:24:11Z</time>
      </trkpt>
      <trkpt lat="44.83485" lon="6.19893">
        <ele>1891.53</ele>
        <time>2016-10-27T08:24:24Z</time>
      </trkpt>
      <trkpt lat="44.83484" lon="6.19902">
        <ele>1892.01</ele>
        <time>2016-10-27T08:24:32Z</time>
      </trkpt>
      <trkpt lat="44.83479" lon="6.19918">
        <ele>1893.93</ele>
        <time>2016-10-27T08:24:45Z</time>
      </trkpt>
      <trkpt lat="44.83473" lon="6.19926">
        <ele>1894.9</ele>
        <time>2016-10-27T08:24:57Z</time>
      </trkpt>
      <trkpt lat="44.83474" lon="6.19929">
        <ele>1895.38</ele>
        <time>2016-10-27T08:25:01Z</time>
      </trkpt>
      <trkpt lat="44.83471" lon="6.19942">
        <ele>1897.78</ele>
        <time>2016-10-27T08:25:13Z</time>
      </trkpt>
      <trkpt lat="44.83466" lon="6.19954">
        <ele>1900.18</ele>
        <time>2016-10-27T08:25:28Z</time>
      </trkpt>
      <trkpt lat="44.83462" lon="6.19959">
        <ele>1902.59</ele>
        <time>2016-10-27T08:25:42Z</time>
      </trkpt>
      <trkpt lat="44.83457" lon="6.19963">
        <ele>1903.07</ele>
        <time>2016-10-27T08:25:56Z</time>
      </trkpt>
      <trkpt lat="44.83457" lon="6.19967">
        <ele>1903.07</ele>
        <time>2016-10-27T08:25:59Z</time>
      </trkpt>
      <trkpt lat="44.83456" lon="6.19977">
        <ele>1904.51</ele>
        <time>2016-10-27T08:26:10Z</time>
      </trkpt>
      <trkpt lat="44.83457" lon="6.19974">
        <ele>1904.99</ele>
        <time>2016-10-27T08:26:13Z</time>
      </trkpt>
      <trkpt lat="44.83466" lon="6.19963">
        <ele>1906.43</ele>
        <time>2016-10-27T08:26:26Z</time>
      </trkpt>
      <trkpt lat="44.83468" lon="6.19967">
        <ele>1907.87</ele>
        <time>2016-10-27T08:26:30Z</time>
      </trkpt>
      <trkpt lat="44.83468" lon="6.19972">
        <ele>1908.83</ele>
        <time>2016-10-27T08:26:36Z</time>
      </trkpt>
      <trkpt lat="44.83465" lon="6.19984">
        <ele>1910.28</ele>
        <time>2016-10-27T08:26:48Z</time>
      </trkpt>
      <trkpt lat="44.83466" lon="6.19992">
        <ele>1912.2</ele>
        <time>2016-10-27T08:26:58Z</time>
      </trkpt>
      <trkpt lat="44.83465" lon="6.19995">
        <ele>1914.6</ele>
        <time>2016-10-27T08:27:10Z</time>
      </trkpt>
      <trkpt lat="44.83464" lon="6.20003">
        <ele>1917.01</ele>
        <time>2016-10-27T08:27:24Z</time>
      </trkpt>
      <trkpt lat="44.83463" lon="6.20011">
        <ele>1918.93</ele>
        <time>2016-10-27T08:27:36Z</time>
      </trkpt>
      <trkpt lat="44.83464" lon="6.20015">
        <ele>1919.89</ele>
        <time>2016-10-27T08:27:52Z</time>
      </trkpt>
      <trkpt lat="44.83464" lon="6.20014">
        <ele>1920.37</ele>
        <time>2016-10-27T08:28:14Z</time>
      </trkpt>
      <trkpt lat="44.83465" lon="6.20015">
        <ele>1920.37</ele>
        <time>2016-10-27T08:28:47Z</time>
      </trkpt>
      <trkpt lat="44.83465" lon="6.20016">
        <ele>1920.37</ele>
        <time>2016-10-27T08:29:18Z</time>
      </trkpt>
      <trkpt lat="44.83466" lon="6.20015">
        <ele>1921.33</ele>
        <time>2016-10-27T08:29:32Z</time>
      </trkpt>
      <trkpt lat="44.83467" lon="6.20015">
        <ele>1920.85</ele>
        <time>2016-10-27T08:29:50Z</time>
      </trkpt>
      <trkpt lat="44.83466" lon="6.20015">
        <ele>1920.37</ele>
        <time>2016-10-27T08:30:15Z</time>
      </trkpt>
      <trkpt lat="44.83465" lon="6.20012">
        <ele>1920.37</ele>
        <time>2016-10-27T08:30:30Z</time>
      </trkpt>
      <trkpt lat="44.83467" lon="6.20021">
        <ele>1922.29</ele>
        <time>2016-10-27T08:30:41Z</time>
      </trkpt>
      <trkpt lat="44.83472" lon="6.20025">
        <ele>1924.22</ele>
        <time>2016-10-27T08:30:53Z</time>
      </trkpt>
      <trkpt lat="44.83477" lon="6.20029">
        <ele>1926.62</ele>
        <time>2016-10-27T08:31:06Z</time>
      </trkpt>
      <trkpt lat="44.83481" lon="6.20034">
        <ele>1928.06</ele>
        <time>2016-10-27T08:31:19Z</time>
      </trkpt>
      <trkpt lat="44.83482" lon="6.20039">
        <ele>1928.54</ele>
        <time>2016-10-27T08:31:22Z</time>
      </trkpt>
      <trkpt lat="44.83485" lon="6.20052">
        <ele>1930.46</ele>
        <time>2016-10-27T08:31:35Z</time>
      </trkpt>
      <trkpt lat="44.83487" lon="6.2006">
        <ele>1932.39</ele>
        <time>2016-10-27T08:31:46Z</time>
      </trkpt>
      <trkpt lat="44.83487" lon="6.20068">
        <ele>1934.79</ele>
        <time>2016-10-27T08:31:59Z</time>
      </trkpt>
      <trkpt lat="44.83488" lon="6.20074">
        <ele>1937.67</ele>
        <time>2016-10-27T08:32:12Z</time>
      </trkpt>
      <trkpt lat="44.83488" lon="6.20075">
        <ele>1938.16</ele>
        <time>2016-10-27T08:32:16Z</time>
      </trkpt>
      <trkpt lat="44.83494" lon="6.20071">
        <ele>1940.56</ele>
        <time>2016-10-27T08:32:30Z</time>
      </trkpt>
      <trkpt lat="44.83499" lon="6.20067">
        <ele>1942.96</ele>
        <time>2016-10-27T08:32:42Z</time>
      </trkpt>
      <trkpt lat="44.83501" lon="6.2006">
        <ele>1943.44</ele>
        <time>2016-10-27T08:32:49Z</time>
      </trkpt>
      <trkpt lat="44.83503" lon="6.20052">
        <ele>1943.92</ele>
        <time>2016-10-27T08:32:56Z</time>
      </trkpt>
      <trkpt lat="44.83506" lon="6.20049">
        <ele>1946.33</ele>
        <time>2016-10-27T08:33:10Z</time>
      </trkpt>
      <trkpt lat="44.83513" lon="6.20048">
        <ele>1948.73</ele>
        <time>2016-10-27T08:33:21Z</time>
      </trkpt>
      <trkpt lat="44.83516" lon="6.20047">
        <ele>1950.65</ele>
        <time>2016-10-27T08:33:32Z</time>
      </trkpt>
      <trkpt lat="44.8352" lon="6.20045">
        <ele>1951.61</ele>
        <time>2016-10-27T08:33:43Z</time>
      </trkpt>
      <trkpt lat="44.8352" lon="6.20045">
        <ele>1952.57</ele>
        <time>2016-10-27T08:33:44Z</time>
      </trkpt>
      <trkpt lat="44.83523" lon="6.20042">
        <ele>1953.54</ele>
        <time>2016-10-27T08:33:50Z</time>
      </trkpt>
      <trkpt lat="44.8353" lon="6.20039">
        <ele>1955.94</ele>
        <time>2016-10-27T08:34:04Z</time>
      </trkpt>
      <trkpt lat="44.8353" lon="6.20052">
        <ele>1957.86</ele>
        <time>2016-10-27T08:34:17Z</time>
      </trkpt>
      <trkpt lat="44.83531" lon="6.20057">
        <ele>1959.3</ele>
        <time>2016-10-27T08:34:28Z</time>
      </trkpt>
      <trkpt lat="44.8353" lon="6.2007">
        <ele>1961.71</ele>
        <time>2016-10-27T08:34:41Z</time>
      </trkpt>
      <trkpt lat="44.83528" lon="6.20078">
        <ele>1963.15</ele>
        <time>2016-10-27T08:34:55Z</time>
      </trkpt>
      <trkpt lat="44.8353" lon="6.2009">
        <ele>1965.07</ele>
        <time>2016-10-27T08:35:11Z</time>
      </trkpt>
      <trkpt lat="44.8353" lon="6.20091">
        <ele>1965.07</ele>
        <time>2016-10-27T08:35:22Z</time>
      </trkpt>
      <trkpt lat="44.83537" lon="6.20088">
        <ele>1967.48</ele>
        <time>2016-10-27T08:35:36Z</time>
      </trkpt>
      <trkpt lat="44.83543" lon="6.20081">
        <ele>1969.4</ele>
        <time>2016-10-27T08:35:49Z</time>
      </trkpt>
      <trkpt lat="44.83549" lon="6.20079">
        <ele>1971.32</ele>
        <time>2016-10-27T08:36:01Z</time>
      </trkpt>
      <trkpt lat="44.83553" lon="6.20074">
        <ele>1973.24</ele>
        <time>2016-10-27T08:36:13Z</time>
      </trkpt>
      <trkpt lat="44.8356" lon="6.20078">
        <ele>1975.17</ele>
        <time>2016-10-27T08:36:25Z</time>
      </trkpt>
      <trkpt lat="44.83565" lon="6.20079">
        <ele>1977.57</ele>
        <time>2016-10-27T08:36:39Z</time>
      </trkpt>
      <trkpt lat="44.83572" lon="6.20073">
        <ele>1979.97</ele>
        <time>2016-10-27T08:36:53Z</time>
      </trkpt>
      <trkpt lat="44.83573" lon="6.20073">
        <ele>1979.97</ele>
        <time>2016-10-27T08:37:07Z</time>
      </trkpt>
      <trkpt lat="44.83575" lon="6.2007">
        <ele>1980.45</ele>
        <time>2016-10-27T08:37:10Z</time>
      </trkpt>
      <trkpt lat="44.83582" lon="6.20071">
        <ele>1983.34</ele>
        <time>2016-10-27T08:37:23Z</time>
      </trkpt>
      <trkpt lat="44.83582" lon="6.20077">
        <ele>1984.3</ele>
        <time>2016-10-27T08:37:28Z</time>
      </trkpt>
      <trkpt lat="44.83579" lon="6.20087">
        <ele>1984.78</ele>
        <time>2016-10-27T08:37:35Z</time>
      </trkpt>
      <trkpt lat="44.83577" lon="6.20094">
        <ele>1985.26</ele>
        <time>2016-10-27T08:37:42Z</time>
      </trkpt>
      <trkpt lat="44.83576" lon="6.20101">
        <ele>1986.7</ele>
        <time>2016-10-27T08:37:49Z</time>
      </trkpt>
      <trkpt lat="44.83583" lon="6.20093">
        <ele>1988.14</ele>
        <time>2016-10-27T08:38:01Z</time>
      </trkpt>
      <trkpt lat="44.83586" lon="6.20099">
        <ele>1990.07</ele>
        <time>2016-10-27T08:38:13Z</time>
      </trkpt>
      <trkpt lat="44.83586" lon="6.2011">
        <ele>1992.47</ele>
        <time>2016-10-27T08:38:24Z</time>
      </trkpt>
      <trkpt lat="44.83589" lon="6.20111">
        <ele>1995.35</ele>
        <time>2016-10-27T08:38:36Z</time>
      </trkpt>
      <trkpt lat="44.83595" lon="6.20108">
        <ele>1996.8</ele>
        <time>2016-10-27T08:38:53Z</time>
      </trkpt>
      <trkpt lat="44.83599" lon="6.20104">
        <ele>1999.2</ele>
        <time>2016-10-27T08:39:06Z</time>
      </trkpt>
      <trkpt lat="44.83601" lon="6.20109">
        <ele>2000.64</ele>
        <time>2016-10-27T08:39:12Z</time>
      </trkpt>
      <trkpt lat="44.83603" lon="6.20118">
        <ele>2002.56</ele>
        <time>2016-10-27T08:39:24Z</time>
      </trkpt>
      <trkpt lat="44.83604" lon="6.20126">
        <ele>2003.52</ele>
        <time>2016-10-27T08:39:35Z</time>
      </trkpt>
      <trkpt lat="44.83606" lon="6.20137">
        <ele>2005.93</ele>
        <time>2016-10-27T08:39:46Z</time>
      </trkpt>
      <trkpt lat="44.83603" lon="6.20139">
        <ele>2006.41</ele>
        <time>2016-10-27T08:39:49Z</time>
      </trkpt>
      <trkpt lat="44.83598" lon="6.20144">
        <ele>2007.37</ele>
        <time>2016-10-27T08:39:56Z</time>
      </trkpt>
      <trkpt lat="44.83595" lon="6.20149">
        <ele>2008.81</ele>
        <time>2016-10-27T08:40:04Z</time>
      </trkpt>
      <trkpt lat="44.83598" lon="6.20153">
        <ele>2009.77</ele>
        <time>2016-10-27T08:40:12Z</time>
      </trkpt>
      <trkpt lat="44.83609" lon="6.20154">
        <ele>2011.7</ele>
        <time>2016-10-27T08:40:27Z</time>
      </trkpt>
      <trkpt lat="44.83612" lon="6.20154">
        <ele>2012.66</ele>
        <time>2016-10-27T08:40:33Z</time>
      </trkpt>
      <trkpt lat="44.83615" lon="6.20158">
        <ele>2014.1</ele>
        <time>2016-10-27T08:40:41Z</time>
      </trkpt>
      <trkpt lat="44.8362" lon="6.20153">
        <ele>2015.54</ele>
        <time>2016-10-27T08:40:55Z</time>
      </trkpt>
      <trkpt lat="44.83623" lon="6.20138">
        <ele>2016.98</ele>
        <time>2016-10-27T08:41:08Z</time>
      </trkpt>
      <trkpt lat="44.83626" lon="6.20129">
        <ele>2018.43</ele>
        <time>2016-10-27T08:41:19Z</time>
      </trkpt>
      <trkpt lat="44.83627" lon="6.20125">
        <ele>2019.87</ele>
        <time>2016-10-27T08:41:28Z</time>
      </trkpt>
      <trkpt lat="44.83632" lon="6.20113">
        <ele>2021.31</ele>
        <time>2016-10-27T08:41:40Z</time>
      </trkpt>
      <trkpt lat="44.83639" lon="6.20111">
        <ele>2023.71</ele>
        <time>2016-10-27T08:41:53Z</time>
      </trkpt>
      <trkpt lat="44.83645" lon="6.20113">
        <ele>2025.64</ele>
        <time>2016-10-27T08:42:05Z</time>
      </trkpt>
      <trkpt lat="44.83646" lon="6.20111">
        <ele>2026.6</ele>
        <time>2016-10-27T08:42:07Z</time>
      </trkpt>
      <trkpt lat="44.83652" lon="6.20108">
        <ele>2028.04</ele>
        <time>2016-10-27T08:42:20Z</time>
      </trkpt>
      <trkpt lat="44.8365" lon="6.20101">
        <ele>2029.96</ele>
        <time>2016-10-27T08:42:32Z</time>
      </trkpt>
      <trkpt lat="44.83651" lon="6.20099">
        <ele>2029.96</ele>
        <time>2016-10-27T08:42:59Z</time>
      </trkpt>
      <trkpt lat="44.83651" lon="6.20099">
        <ele>2029.96</ele>
        <time>2016-10-27T08:43:08Z</time>
      </trkpt>
      <trkpt lat="44.8366" lon="6.20098">
        <ele>2030.92</ele>
        <time>2016-10-27T08:43:17Z</time>
      </trkpt>
      <trkpt lat="44.83674" lon="6.20086">
        <ele>2032.84</ele>
        <time>2016-10-27T08:43:34Z</time>
      </trkpt>
      <trkpt lat="44.83681" lon="6.2008">
        <ele>2034.29</ele>
        <time>2016-10-27T08:43:46Z</time>
      </trkpt>
      <trkpt lat="44.8369" lon="6.20074">
        <ele>2035.73</ele>
        <time>2016-10-27T08:43:58Z</time>
      </trkpt>
      <trkpt lat="44.83699" lon="6.20068">
        <ele>2038.13</ele>
        <time>2016-10-27T08:44:13Z</time>
      </trkpt>
      <trkpt lat="44.83705" lon="6.20063">
        <ele>2040.05</ele>
        <time>2016-10-27T08:44:24Z</time>
      </trkpt>
      <trkpt lat="44.83712" lon="6.20064">
        <ele>2042.94</ele>
        <time>2016-10-27T08:44:37Z</time>
      </trkpt>
      <trkpt lat="44.83713" lon="6.20062">
        <ele>2043.42</ele>
        <time>2016-10-27T08:44:40Z</time>
      </trkpt>
      <trkpt lat="44.83721" lon="6.20049">
        <ele>2044.38</ele>
        <time>2016-10-27T08:44:53Z</time>
      </trkpt>
      <trkpt lat="44.83727" lon="6.2004">
        <ele>2046.78</ele>
        <time>2016-10-27T08:45:06Z</time>
      </trkpt>
      <trkpt lat="44.83732" lon="6.20038">
        <ele>2048.71</ele>
        <time>2016-10-27T08:45:18Z</time>
      </trkpt>
      <trkpt lat="44.83734" lon="6.20048">
        <ele>2051.11</ele>
        <time>2016-10-27T08:45:31Z</time>
      </trkpt>
      <trkpt lat="44.83742" lon="6.20046">
        <ele>2053.03</ele>
        <time>2016-10-27T08:45:42Z</time>
      </trkpt>
      <trkpt lat="44.83744" lon="6.20054">
        <ele>2054.96</ele>
        <time>2016-10-27T08:45:55Z</time>
      </trkpt>
      <trkpt lat="44.83742" lon="6.20063">
        <ele>2055.92</ele>
        <time>2016-10-27T08:46:04Z</time>
      </trkpt>
      <trkpt lat="44.8374" lon="6.20069">
        <ele>2057.36</ele>
        <time>2016-10-27T08:46:10Z</time>
      </trkpt>
      <trkpt lat="44.83734" lon="6.20074">
        <ele>2058.8</ele>
        <time>2016-10-27T08:46:21Z</time>
      </trkpt>
      <trkpt lat="44.83732" lon="6.20087">
        <ele>2060.72</ele>
        <time>2016-10-27T08:46:35Z</time>
      </trkpt>
      <trkpt lat="44.83731" lon="6.20095">
        <ele>2061.68</ele>
        <time>2016-10-27T08:46:49Z</time>
      </trkpt>
      <trkpt lat="44.83732" lon="6.20108">
        <ele>2063.13</ele>
        <time>2016-10-27T08:47:00Z</time>
      </trkpt>
      <trkpt lat="44.83729" lon="6.2012">
        <ele>2065.53</ele>
        <time>2016-10-27T08:47:14Z</time>
      </trkpt>
      <trkpt lat="44.83729" lon="6.20122">
        <ele>2066.49</ele>
        <time>2016-10-27T08:47:18Z</time>
      </trkpt>
      <trkpt lat="44.83727" lon="6.20127">
        <ele>2066.97</ele>
        <time>2016-10-27T08:47:22Z</time>
      </trkpt>
      <trkpt lat="44.83727" lon="6.20143">
        <ele>2068.89</ele>
        <time>2016-10-27T08:47:34Z</time>
      </trkpt>
      <trkpt lat="44.83727" lon="6.20146">
        <ele>2069.38</ele>
        <time>2016-10-27T08:47:39Z</time>
      </trkpt>
      <trkpt lat="44.83723" lon="6.20156">
        <ele>2071.78</ele>
        <time>2016-10-27T08:47:53Z</time>
      </trkpt>
      <trkpt lat="44.83718" lon="6.20169">
        <ele>2073.7</ele>
        <time>2016-10-27T08:48:08Z</time>
      </trkpt>
      <trkpt lat="44.83717" lon="6.20171">
        <ele>2073.7</ele>
        <time>2016-10-27T08:48:11Z</time>
      </trkpt>
      <trkpt lat="44.83715" lon="6.2018">
        <ele>2074.66</ele>
        <time>2016-10-27T08:48:21Z</time>
      </trkpt>
      <trkpt lat="44.83712" lon="6.20185">
        <ele>2075.62</ele>
        <time>2016-10-27T08:48:29Z</time>
      </trkpt>
      <trkpt lat="44.8371" lon="6.20191">
        <ele>2075.14</ele>
        <time>2016-10-27T08:48:37Z</time>
      </trkpt>
      <trkpt lat="44.8371" lon="6.20194">
        <ele>2075.62</ele>
        <time>2016-10-27T08:48:40Z</time>
      </trkpt>
      <trkpt lat="44.8371" lon="6.20204">
        <ele>2077.07</ele>
        <time>2016-10-27T08:48:51Z</time>
      </trkpt>
      <trkpt lat="44.83714" lon="6.20222">
        <ele>2078.03</ele>
        <time>2016-10-27T08:49:05Z</time>
      </trkpt>
      <trkpt lat="44.8372" lon="6.20236">
        <ele>2081.39</ele>
        <time>2016-10-27T08:49:21Z</time>
      </trkpt>
      <trkpt lat="44.83727" lon="6.20236">
        <ele>2082.35</ele>
        <time>2016-10-27T08:49:30Z</time>
      </trkpt>
      <trkpt lat="44.83736" lon="6.20227">
        <ele>2084.28</ele>
        <time>2016-10-27T08:49:43Z</time>
      </trkpt>
      <trkpt lat="44.83742" lon="6.20221">
        <ele>2085.24</ele>
        <time>2016-10-27T08:49:53Z</time>
      </trkpt>
      <trkpt lat="44.83746" lon="6.20219">
        <ele>2085.72</ele>
        <time>2016-10-27T08:49:57Z</time>
      </trkpt>
      <trkpt lat="44.83756" lon="6.2021">
        <ele>2087.16</ele>
        <time>2016-10-27T08:50:10Z</time>
      </trkpt>
      <trkpt lat="44.83761" lon="6.20195">
        <ele>2088.12</ele>
        <time>2016-10-27T08:50:23Z</time>
      </trkpt>
      <trkpt lat="44.83762" lon="6.20181">
        <ele>2089.08</ele>
        <time>2016-10-27T08:50:34Z</time>
      </trkpt>
      <trkpt lat="44.83763" lon="6.20176">
        <ele>2089.56</ele>
        <time>2016-10-27T08:50:38Z</time>
      </trkpt>
      <trkpt lat="44.83769" lon="6.20162">
        <ele>2091</ele>
        <time>2016-10-27T08:50:51Z</time>
      </trkpt>
      <trkpt lat="44.83778" lon="6.20151">
        <ele>2093.41</ele>
        <time>2016-10-27T08:51:04Z</time>
      </trkpt>
      <trkpt lat="44.83783" lon="6.20151">
        <ele>2094.85</ele>
        <time>2016-10-27T08:51:11Z</time>
      </trkpt>
      <trkpt lat="44.83784" lon="6.20165">
        <ele>2096.77</ele>
        <time>2016-10-27T08:51:24Z</time>
      </trkpt>
      <trkpt lat="44.83784" lon="6.20169">
        <ele>2097.25</ele>
        <time>2016-10-27T08:51:28Z</time>
      </trkpt>
      <trkpt lat="44.83786" lon="6.20177">
        <ele>2098.7</ele>
        <time>2016-10-27T08:51:39Z</time>
      </trkpt>
      <trkpt lat="44.83789" lon="6.20184">
        <ele>2100.62</ele>
        <time>2016-10-27T08:51:50Z</time>
      </trkpt>
      <trkpt lat="44.83789" lon="6.20183">
        <ele>2101.1</ele>
        <time>2016-10-27T08:51:53Z</time>
      </trkpt>
      <trkpt lat="44.83792" lon="6.20171">
        <ele>2102.54</ele>
        <time>2016-10-27T08:52:04Z</time>
      </trkpt>
      <trkpt lat="44.83798" lon="6.2016">
        <ele>2104.46</ele>
        <time>2016-10-27T08:52:16Z</time>
      </trkpt>
      <trkpt lat="44.83805" lon="6.20152">
        <ele>2104.94</ele>
        <time>2016-10-27T08:52:28Z</time>
      </trkpt>
      <trkpt lat="44.83805" lon="6.20152">
        <ele>2105.42</ele>
        <time>2016-10-27T08:52:29Z</time>
      </trkpt>
      <trkpt lat="44.8381" lon="6.2014">
        <ele>2106.39</ele>
        <time>2016-10-27T08:52:39Z</time>
      </trkpt>
      <trkpt lat="44.83814" lon="6.20149">
        <ele>2108.79</ele>
        <time>2016-10-27T08:52:54Z</time>
      </trkpt>
      <trkpt lat="44.83819" lon="6.20151">
        <ele>2110.71</ele>
        <time>2016-10-27T08:53:06Z</time>
      </trkpt>
      <trkpt lat="44.83826" lon="6.20141">
        <ele>2112.63</ele>
        <time>2016-10-27T08:53:19Z</time>
      </trkpt>
      <trkpt lat="44.8383" lon="6.20144">
        <ele>2114.56</ele>
        <time>2016-10-27T08:53:33Z</time>
      </trkpt>
      <trkpt lat="44.8383" lon="6.20148">
        <ele>2115.04</ele>
        <time>2016-10-27T08:53:38Z</time>
      </trkpt>
      <trkpt lat="44.8383" lon="6.20153">
        <ele>2116</ele>
        <time>2016-10-27T08:53:42Z</time>
      </trkpt>
      <trkpt lat="44.8383" lon="6.20157">
        <ele>2116</ele>
        <time>2016-10-27T08:53:45Z</time>
      </trkpt>
      <trkpt lat="44.83828" lon="6.20168">
        <ele>2119.36</ele>
        <time>2016-10-27T08:53:58Z</time>
      </trkpt>
      <trkpt lat="44.83826" lon="6.20182">
        <ele>2120.32</ele>
        <time>2016-10-27T08:54:11Z</time>
      </trkpt>
      <trkpt lat="44.83828" lon="6.20188">
        <ele>2122.25</ele>
        <time>2016-10-27T08:54:24Z</time>
      </trkpt>
      <trkpt lat="44.83835" lon="6.20182">
        <ele>2123.21</ele>
        <time>2016-10-27T08:54:33Z</time>
      </trkpt>
      <trkpt lat="44.83842" lon="6.20171">
        <ele>2125.61</ele>
        <time>2016-10-27T08:54:48Z</time>
      </trkpt>
      <trkpt lat="44.83849" lon="6.20169">
        <ele>2127.53</ele>
        <time>2016-10-27T08:54:59Z</time>
      </trkpt>
      <trkpt lat="44.8385" lon="6.20167">
        <ele>2128.02</ele>
        <time>2016-10-27T08:55:02Z</time>
      </trkpt>
      <trkpt lat="44.83858" lon="6.20158">
        <ele>2130.42</ele>
        <time>2016-10-27T08:55:15Z</time>
      </trkpt>
      <trkpt lat="44.83865" lon="6.20153">
        <ele>2132.34</ele>
        <time>2016-10-27T08:55:28Z</time>
      </trkpt>
      <trkpt lat="44.8387" lon="6.20148">
        <ele>2134.74</ele>
        <time>2016-10-27T08:55:44Z</time>
      </trkpt>
      <trkpt lat="44.83874" lon="6.20141">
        <ele>2136.19</ele>
        <time>2016-10-27T08:55:56Z</time>
      </trkpt>
      <trkpt lat="44.83879" lon="6.20129">
        <ele>2138.11</ele>
        <time>2016-10-27T08:56:09Z</time>
      </trkpt>
      <trkpt lat="44.83886" lon="6.20126">
        <ele>2139.07</ele>
        <time>2016-10-27T08:56:16Z</time>
      </trkpt>
      <trkpt lat="44.83894" lon="6.20117">
        <ele>2140.51</ele>
        <time>2016-10-27T08:56:28Z</time>
      </trkpt>
      <trkpt lat="44.83901" lon="6.20113">
        <ele>2142.44</ele>
        <time>2016-10-27T08:56:39Z</time>
      </trkpt>
      <trkpt lat="44.83907" lon="6.20112">
        <ele>2144.36</ele>
        <time>2016-10-27T08:56:51Z</time>
      </trkpt>
      <trkpt lat="44.83907" lon="6.20112">
        <ele>2144.36</ele>
        <time>2016-10-27T08:56:52Z</time>
      </trkpt>
      <trkpt lat="44.83915" lon="6.20111">
        <ele>2146.76</ele>
        <time>2016-10-27T08:57:04Z</time>
      </trkpt>
      <trkpt lat="44.83923" lon="6.20109">
        <ele>2148.2</ele>
        <time>2016-10-27T08:57:17Z</time>
      </trkpt>
      <trkpt lat="44.83931" lon="6.20112">
        <ele>2150.61</ele>
        <time>2016-10-27T08:57:31Z</time>
      </trkpt>
      <trkpt lat="44.83933" lon="6.20111">
        <ele>2152.53</ele>
        <time>2016-10-27T08:57:49Z</time>
      </trkpt>
      <trkpt lat="44.83939" lon="6.2011">
        <ele>2154.93</ele>
        <time>2016-10-27T08:58:04Z</time>
      </trkpt>
      <trkpt lat="44.83942" lon="6.20111">
        <ele>2154.93</ele>
        <time>2016-10-27T08:58:25Z</time>
      </trkpt>
      <trkpt lat="44.83944" lon="6.20111">
        <ele>2154.93</ele>
        <time>2016-10-27T08:58:53Z</time>
      </trkpt>
      <trkpt lat="44.83944" lon="6.20111">
        <ele>2154.93</ele>
        <time>2016-10-27T08:59:26Z</time>
      </trkpt>
      <trkpt lat="44.83944" lon="6.2011">
        <ele>2155.41</ele>
        <time>2016-10-27T08:59:56Z</time>
      </trkpt>
      <trkpt lat="44.83944" lon="6.20111">
        <ele>2154.93</ele>
        <time>2016-10-27T09:00:21Z</time>
      </trkpt>
      <trkpt lat="44.83944" lon="6.20116">
        <ele>2156.37</ele>
        <time>2016-10-27T09:00:44Z</time>
      </trkpt>
      <trkpt lat="44.83936" lon="6.20126">
        <ele>2159.26</ele>
        <time>2016-10-27T09:00:54Z</time>
      </trkpt>
      <trkpt lat="44.83927" lon="6.20133">
        <ele>2159.74</ele>
        <time>2016-10-27T09:01:06Z</time>
      </trkpt>
      <trkpt lat="44.83923" lon="6.20137">
        <ele>2160.7</ele>
        <time>2016-10-27T09:01:17Z</time>
      </trkpt>
      <trkpt lat="44.83919" lon="6.20145">
        <ele>2162.14</ele>
        <time>2016-10-27T09:01:28Z</time>
      </trkpt>
      <trkpt lat="44.83917" lon="6.2015">
        <ele>2164.06</ele>
        <time>2016-10-27T09:01:36Z</time>
      </trkpt>
      <trkpt lat="44.83916" lon="6.20153">
        <ele>2165.03</ele>
        <time>2016-10-27T09:01:40Z</time>
      </trkpt>
      <trkpt lat="44.83914" lon="6.20157">
        <ele>2165.51</ele>
        <time>2016-10-27T09:01:44Z</time>
      </trkpt>
      <trkpt lat="44.8391" lon="6.20171">
        <ele>2166.47</ele>
        <time>2016-10-27T09:01:55Z</time>
      </trkpt>
      <trkpt lat="44.83909" lon="6.20179">
        <ele>2168.39</ele>
        <time>2016-10-27T09:02:07Z</time>
      </trkpt>
      <trkpt lat="44.83909" lon="6.20185">
        <ele>2169.83</ele>
        <time>2016-10-27T09:02:16Z</time>
      </trkpt>
      <trkpt lat="44.83909" lon="6.20198">
        <ele>2171.27</ele>
        <time>2016-10-27T09:02:29Z</time>
      </trkpt>
      <trkpt lat="44.83906" lon="6.2021">
        <ele>2172.24</ele>
        <time>2016-10-27T09:02:40Z</time>
      </trkpt>
      <trkpt lat="44.83905" lon="6.20218">
        <ele>2174.16</ele>
        <time>2016-10-27T09:02:49Z</time>
      </trkpt>
      <trkpt lat="44.83904" lon="6.20221">
        <ele>2174.16</ele>
        <time>2016-10-27T09:02:51Z</time>
      </trkpt>
      <trkpt lat="44.83904" lon="6.20224">
        <ele>2175.6</ele>
        <time>2016-10-27T09:02:55Z</time>
      </trkpt>
      <trkpt lat="44.83901" lon="6.20232">
        <ele>2177.04</ele>
        <time>2016-10-27T09:03:06Z</time>
      </trkpt>
      <trkpt lat="44.83899" lon="6.20236">
        <ele>2177.52</ele>
        <time>2016-10-27T09:03:17Z</time>
      </trkpt>
      <trkpt lat="44.83901" lon="6.20241">
        <ele>2178.48</ele>
        <time>2016-10-27T09:03:24Z</time>
      </trkpt>
      <trkpt lat="44.83903" lon="6.20238">
        <ele>2180.41</ele>
        <time>2016-10-27T09:03:33Z</time>
      </trkpt>
      <trkpt lat="44.83909" lon="6.20241">
        <ele>2182.81</ele>
        <time>2016-10-27T09:03:44Z</time>
      </trkpt>
      <trkpt lat="44.83914" lon="6.20246">
        <ele>2184.25</ele>
        <time>2016-10-27T09:03:54Z</time>
      </trkpt>
      <trkpt lat="44.83915" lon="6.20248">
        <ele>2184.73</ele>
        <time>2016-10-27T09:03:57Z</time>
      </trkpt>
      <trkpt lat="44.83921" lon="6.20258">
        <ele>2187.14</ele>
        <time>2016-10-27T09:04:09Z</time>
      </trkpt>
      <trkpt lat="44.83922" lon="6.20261">
        <ele>2187.62</ele>
        <time>2016-10-27T09:04:13Z</time>
      </trkpt>
      <trkpt lat="44.83923" lon="6.20264">
        <ele>2188.1</ele>
        <time>2016-10-27T09:04:16Z</time>
      </trkpt>
      <trkpt lat="44.83924" lon="6.2027">
        <ele>2189.06</ele>
        <time>2016-10-27T09:04:21Z</time>
      </trkpt>
      <trkpt lat="44.83926" lon="6.20275">
        <ele>2189.54</ele>
        <time>2016-10-27T09:04:27Z</time>
      </trkpt>
      <trkpt lat="44.83926" lon="6.20288">
        <ele>2190.98</ele>
        <time>2016-10-27T09:04:38Z</time>
      </trkpt>
      <trkpt lat="44.83925" lon="6.20294">
        <ele>2191.94</ele>
        <time>2016-10-27T09:04:43Z</time>
      </trkpt>
      <trkpt lat="44.83923" lon="6.2031">
        <ele>2193.87</ele>
        <time>2016-10-27T09:04:56Z</time>
      </trkpt>
      <trkpt lat="44.8392" lon="6.20322">
        <ele>2195.31</ele>
        <time>2016-10-27T09:05:07Z</time>
      </trkpt>
      <trkpt lat="44.83919" lon="6.20325">
        <ele>2195.79</ele>
        <time>2016-10-27T09:05:25Z</time>
      </trkpt>
      <trkpt lat="44.83919" lon="6.20331">
        <ele>2196.27</ele>
        <time>2016-10-27T09:05:39Z</time>
      </trkpt>
      <trkpt lat="44.83921" lon="6.20333">
        <ele>2197.71</ele>
        <time>2016-10-27T09:05:46Z</time>
      </trkpt>
      <trkpt lat="44.83923" lon="6.20343">
        <ele>2198.67</ele>
        <time>2016-10-27T09:05:56Z</time>
      </trkpt>
      <trkpt lat="44.83925" lon="6.20351">
        <ele>2200.59</ele>
        <time>2016-10-27T09:06:06Z</time>
      </trkpt>
      <trkpt lat="44.83927" lon="6.20359">
        <ele>2202.52</ele>
        <time>2016-10-27T09:06:18Z</time>
      </trkpt>
      <trkpt lat="44.83929" lon="6.20361">
        <ele>2203.48</ele>
        <time>2016-10-27T09:06:31Z</time>
      </trkpt>
      <trkpt lat="44.83931" lon="6.20367">
        <ele>2203.96</ele>
        <time>2016-10-27T09:07:01Z</time>
      </trkpt>
      <trkpt lat="44.83932" lon="6.20371">
        <ele>2204.92</ele>
        <time>2016-10-27T09:07:05Z</time>
      </trkpt>
      <trkpt lat="44.83932" lon="6.20373">
        <ele>2205.4</ele>
        <time>2016-10-27T09:07:08Z</time>
      </trkpt>
      <trkpt lat="44.83934" lon="6.20381">
        <ele>2206.84</ele>
        <time>2016-10-27T09:07:15Z</time>
      </trkpt>
      <trkpt lat="44.83933" lon="6.2039">
        <ele>2208.29</ele>
        <time>2016-10-27T09:07:24Z</time>
      </trkpt>
      <trkpt lat="44.83932" lon="6.204">
        <ele>2210.21</ele>
        <time>2016-10-27T09:07:35Z</time>
      </trkpt>
      <trkpt lat="44.83931" lon="6.20408">
        <ele>2211.17</ele>
        <time>2016-10-27T09:07:43Z</time>
      </trkpt>
      <trkpt lat="44.83931" lon="6.20416">
        <ele>2212.13</ele>
        <time>2016-10-27T09:07:50Z</time>
      </trkpt>
      <trkpt lat="44.83937" lon="6.20422">
        <ele>2214.05</ele>
        <time>2016-10-27T09:08:01Z</time>
      </trkpt>
      <trkpt lat="44.83941" lon="6.20425">
        <ele>2216.46</ele>
        <time>2016-10-27T09:08:11Z</time>
      </trkpt>
      <trkpt lat="44.83948" lon="6.20425">
        <ele>2217.42</ele>
        <time>2016-10-27T09:08:21Z</time>
      </trkpt>
      <trkpt lat="44.83953" lon="6.20424">
        <ele>2218.86</ele>
        <time>2016-10-27T09:08:28Z</time>
      </trkpt>
      <trkpt lat="44.83959" lon="6.20427">
        <ele>2220.3</ele>
        <time>2016-10-27T09:08:39Z</time>
      </trkpt>
      <trkpt lat="44.8396" lon="6.20425">
        <ele>2221.26</ele>
        <time>2016-10-27T09:08:49Z</time>
      </trkpt>
      <trkpt lat="44.83959" lon="6.20423">
        <ele>2222.22</ele>
        <time>2016-10-27T09:08:53Z</time>
      </trkpt>
      <trkpt lat="44.83958" lon="6.20417">
        <ele>2223.19</ele>
        <time>2016-10-27T09:09:05Z</time>
      </trkpt>
      <trkpt lat="44.83959" lon="6.20415">
        <ele>2223.19</ele>
        <time>2016-10-27T09:09:11Z</time>
      </trkpt>
      <trkpt lat="44.83964" lon="6.20414">
        <ele>2225.59</ele>
        <time>2016-10-27T09:09:22Z</time>
      </trkpt>
      <trkpt lat="44.83967" lon="6.20414">
        <ele>2226.55</ele>
        <time>2016-10-27T09:09:28Z</time>
      </trkpt>
      <trkpt lat="44.8397" lon="6.2041">
        <ele>2227.51</ele>
        <time>2016-10-27T09:09:33Z</time>
      </trkpt>
      <trkpt lat="44.83973" lon="6.20409">
        <ele>2227.51</ele>
        <time>2016-10-27T09:09:36Z</time>
      </trkpt>
      <trkpt lat="44.83978" lon="6.20404">
        <ele>2230.4</ele>
        <time>2016-10-27T09:09:48Z</time>
      </trkpt>
      <trkpt lat="44.83978" lon="6.20403">
        <ele>2229.92</ele>
        <time>2016-10-27T09:09:49Z</time>
      </trkpt>
      <trkpt lat="44.83985" lon="6.20399">
        <ele>2232.8</ele>
        <time>2016-10-27T09:10:00Z</time>
      </trkpt>
      <trkpt lat="44.83989" lon="6.20396">
        <ele>2232.8</ele>
        <time>2016-10-27T09:10:07Z</time>
      </trkpt>
      <trkpt lat="44.8399" lon="6.20393">
        <ele>2233.28</ele>
        <time>2016-10-27T09:10:10Z</time>
      </trkpt>
      <trkpt lat="44.83994" lon="6.20383">
        <ele>2235.68</ele>
        <time>2016-10-27T09:10:22Z</time>
      </trkpt>
      <trkpt lat="44.83996" lon="6.20377">
        <ele>2236.64</ele>
        <time>2016-10-27T09:10:31Z</time>
      </trkpt>
      <trkpt lat="44.83996" lon="6.20371">
        <ele>2237.61</ele>
        <time>2016-10-27T09:10:36Z</time>
      </trkpt>
      <trkpt lat="44.84" lon="6.20362">
        <ele>2239.05</ele>
        <time>2016-10-27T09:10:47Z</time>
      </trkpt>
      <trkpt lat="44.84003" lon="6.2036">
        <ele>2240.01</ele>
        <time>2016-10-27T09:10:53Z</time>
      </trkpt>
      <trkpt lat="44.84005" lon="6.20358">
        <ele>2240.01</ele>
        <time>2016-10-27T09:10:56Z</time>
      </trkpt>
      <trkpt lat="44.84006" lon="6.20356">
        <ele>2240.49</ele>
        <time>2016-10-27T09:10:59Z</time>
      </trkpt>
      <trkpt lat="44.84014" lon="6.20354">
        <ele>2242.41</ele>
        <time>2016-10-27T09:11:09Z</time>
      </trkpt>
      <trkpt lat="44.8402" lon="6.20354">
        <ele>2243.85</ele>
        <time>2016-10-27T09:11:19Z</time>
      </trkpt>
      <trkpt lat="44.84025" lon="6.20355">
        <ele>2245.78</ele>
        <time>2016-10-27T09:11:29Z</time>
      </trkpt>
      <trkpt lat="44.84027" lon="6.20363">
        <ele>2247.22</ele>
        <time>2016-10-27T09:11:40Z</time>
      </trkpt>
      <trkpt lat="44.84029" lon="6.20369">
        <ele>2248.66</ele>
        <time>2016-10-27T09:11:47Z</time>
      </trkpt>
      <trkpt lat="44.84032" lon="6.20378">
        <ele>2250.1</ele>
        <time>2016-10-27T09:11:56Z</time>
      </trkpt>
      <trkpt lat="44.84032" lon="6.20387">
        <ele>2251.06</ele>
        <time>2016-10-27T09:12:06Z</time>
      </trkpt>
      <trkpt lat="44.84035" lon="6.20396">
        <ele>2252.03</ele>
        <time>2016-10-27T09:12:16Z</time>
      </trkpt>
      <trkpt lat="44.84036" lon="6.20406">
        <ele>2253.95</ele>
        <time>2016-10-27T09:12:26Z</time>
      </trkpt>
      <trkpt lat="44.84036" lon="6.20418">
        <ele>2255.39</ele>
        <time>2016-10-27T09:12:35Z</time>
      </trkpt>
      <trkpt lat="44.84034" lon="6.20427">
        <ele>2256.83</ele>
        <time>2016-10-27T09:12:45Z</time>
      </trkpt>
      <trkpt lat="44.84033" lon="6.2043">
        <ele>2257.31</ele>
        <time>2016-10-27T09:12:48Z</time>
      </trkpt>
      <trkpt lat="44.84037" lon="6.20446">
        <ele>2258.75</ele>
        <time>2016-10-27T09:13:02Z</time>
      </trkpt>
      <trkpt lat="44.8404" lon="6.20451">
        <ele>2260.2</ele>
        <time>2016-10-27T09:13:12Z</time>
      </trkpt>
      <trkpt lat="44.84041" lon="6.20447">
        <ele>2260.68</ele>
        <time>2016-10-27T09:13:18Z</time>
      </trkpt>
      <trkpt lat="44.84045" lon="6.20437">
        <ele>2262.12</ele>
        <time>2016-10-27T09:13:28Z</time>
      </trkpt>
      <trkpt lat="44.84048" lon="6.20428">
        <ele>2264.04</ele>
        <time>2016-10-27T09:13:38Z</time>
      </trkpt>
      <trkpt lat="44.84051" lon="6.2042">
        <ele>2264.52</ele>
        <time>2016-10-27T09:13:47Z</time>
      </trkpt>
      <trkpt lat="44.84052" lon="6.2042">
        <ele>2265</ele>
        <time>2016-10-27T09:13:48Z</time>
      </trkpt>
      <trkpt lat="44.84058" lon="6.20419">
        <ele>2266.45</ele>
        <time>2016-10-27T09:13:58Z</time>
      </trkpt>
      <trkpt lat="44.84058" lon="6.20419">
        <ele>2267.41</ele>
        <time>2016-10-27T09:13:59Z</time>
      </trkpt>
      <trkpt lat="44.8406" lon="6.20429">
        <ele>2268.85</ele>
        <time>2016-10-27T09:14:11Z</time>
      </trkpt>
      <trkpt lat="44.84059" lon="6.20436">
        <ele>2270.77</ele>
        <time>2016-10-27T09:14:21Z</time>
      </trkpt>
      <trkpt lat="44.84059" lon="6.20439">
        <ele>2271.73</ele>
        <time>2016-10-27T09:14:30Z</time>
      </trkpt>
      <trkpt lat="44.84061" lon="6.20438">
        <ele>2272.69</ele>
        <time>2016-10-27T09:14:42Z</time>
      </trkpt>
      <trkpt lat="44.84062" lon="6.20435">
        <ele>2273.17</ele>
        <time>2016-10-27T09:14:45Z</time>
      </trkpt>
      <trkpt lat="44.84064" lon="6.20436">
        <ele>2274.14</ele>
        <time>2016-10-27T09:14:55Z</time>
      </trkpt>
      <trkpt lat="44.84069" lon="6.2043">
        <ele>2276.54</ele>
        <time>2016-10-27T09:15:05Z</time>
      </trkpt>
      <trkpt lat="44.84072" lon="6.20428">
        <ele>2277.98</ele>
        <time>2016-10-27T09:15:14Z</time>
      </trkpt>
      <trkpt lat="44.84075" lon="6.20429">
        <ele>2279.42</ele>
        <time>2016-10-27T09:15:24Z</time>
      </trkpt>
      <trkpt lat="44.84078" lon="6.2043">
        <ele>2280.87</ele>
        <time>2016-10-27T09:15:33Z</time>
      </trkpt>
      <trkpt lat="44.84082" lon="6.20425">
        <ele>2282.79</ele>
        <time>2016-10-27T09:15:43Z</time>
      </trkpt>
      <trkpt lat="44.84083" lon="6.20421">
        <ele>2283.75</ele>
        <time>2016-10-27T09:15:55Z</time>
      </trkpt>
      <trkpt lat="44.84085" lon="6.20414">
        <ele>2284.71</ele>
        <time>2016-10-27T09:16:06Z</time>
      </trkpt>
      <trkpt lat="44.84086" lon="6.20413">
        <ele>2285.19</ele>
        <time>2016-10-27T09:16:08Z</time>
      </trkpt>
      <trkpt lat="44.84089" lon="6.20408">
        <ele>2286.15</ele>
        <time>2016-10-27T09:16:16Z</time>
      </trkpt>
      <trkpt lat="44.84093" lon="6.20403">
        <ele>2288.08</ele>
        <time>2016-10-27T09:16:26Z</time>
      </trkpt>
      <trkpt lat="44.84093" lon="6.20403">
        <ele>2288.08</ele>
        <time>2016-10-27T09:16:31Z</time>
      </trkpt>
      <trkpt lat="44.84095" lon="6.20402">
        <ele>2288.56</ele>
        <time>2016-10-27T09:16:34Z</time>
      </trkpt>
      <trkpt lat="44.841" lon="6.20397">
        <ele>2290</ele>
        <time>2016-10-27T09:16:43Z</time>
      </trkpt>
      <trkpt lat="44.84101" lon="6.20396">
        <ele>2290.48</ele>
        <time>2016-10-27T09:16:45Z</time>
      </trkpt>
      <trkpt lat="44.84107" lon="6.20392">
        <ele>2291.92</ele>
        <time>2016-10-27T09:16:56Z</time>
      </trkpt>
      <trkpt lat="44.8411" lon="6.2039">
        <ele>2293.36</ele>
        <time>2016-10-27T09:17:03Z</time>
      </trkpt>
      <trkpt lat="44.84114" lon="6.20389">
        <ele>2293.84</ele>
        <time>2016-10-27T09:17:08Z</time>
      </trkpt>
      <trkpt lat="44.8412" lon="6.20387">
        <ele>2295.77</ele>
        <time>2016-10-27T09:17:17Z</time>
      </trkpt>
      <trkpt lat="44.84121" lon="6.20385">
        <ele>2296.25</ele>
        <time>2016-10-27T09:17:20Z</time>
      </trkpt>
      <trkpt lat="44.84125" lon="6.20378">
        <ele>2297.21</ele>
        <time>2016-10-27T09:17:29Z</time>
      </trkpt>
      <trkpt lat="44.84128" lon="6.20377">
        <ele>2299.13</ele>
        <time>2016-10-27T09:17:39Z</time>
      </trkpt>
      <trkpt lat="44.84129" lon="6.20377">
        <ele>2299.13</ele>
        <time>2016-10-27T09:17:40Z</time>
      </trkpt>
      <trkpt lat="44.84132" lon="6.20382">
        <ele>2300.09</ele>
        <time>2016-10-27T09:17:46Z</time>
      </trkpt>
      <trkpt lat="44.84133" lon="6.20387">
        <ele>2300.57</ele>
        <time>2016-10-27T09:17:52Z</time>
      </trkpt>
      <trkpt lat="44.84137" lon="6.20382">
        <ele>2302.49</ele>
        <time>2016-10-27T09:18:02Z</time>
      </trkpt>
      <trkpt lat="44.8414" lon="6.20372">
        <ele>2303.94</ele>
        <time>2016-10-27T09:18:11Z</time>
      </trkpt>
      <trkpt lat="44.8414" lon="6.20372">
        <ele>2303.94</ele>
        <time>2016-10-27T09:18:12Z</time>
      </trkpt>
      <trkpt lat="44.84143" lon="6.20373">
        <ele>2304.42</ele>
        <time>2016-10-27T09:18:17Z</time>
      </trkpt>
      <trkpt lat="44.84148" lon="6.20377">
        <ele>2306.34</ele>
        <time>2016-10-27T09:18:27Z</time>
      </trkpt>
      <trkpt lat="44.84152" lon="6.2038">
        <ele>2307.3</ele>
        <time>2016-10-27T09:18:35Z</time>
      </trkpt>
      <trkpt lat="44.84154" lon="6.20385">
        <ele>2308.74</ele>
        <time>2016-10-27T09:18:43Z</time>
      </trkpt>
      <trkpt lat="44.84157" lon="6.20381">
        <ele>2310.19</ele>
        <time>2016-10-27T09:18:52Z</time>
      </trkpt>
      <trkpt lat="44.84158" lon="6.20379">
        <ele>2310.67</ele>
        <time>2016-10-27T09:18:55Z</time>
      </trkpt>
      <trkpt lat="44.84161" lon="6.20373">
        <ele>2312.11</ele>
        <time>2016-10-27T09:19:05Z</time>
      </trkpt>
      <trkpt lat="44.84165" lon="6.20371">
        <ele>2313.55</ele>
        <time>2016-10-27T09:19:12Z</time>
      </trkpt>
      <trkpt lat="44.8417" lon="6.20376">
        <ele>2314.99</ele>
        <time>2016-10-27T09:19:22Z</time>
      </trkpt>
      <trkpt lat="44.84172" lon="6.20377">
        <ele>2315.47</ele>
        <time>2016-10-27T09:19:25Z</time>
      </trkpt>
      <trkpt lat="44.84174" lon="6.20378">
        <ele>2315.95</ele>
        <time>2016-10-27T09:19:37Z</time>
      </trkpt>
      <trkpt lat="44.84174" lon="6.2038">
        <ele>2315.95</ele>
        <time>2016-10-27T09:19:39Z</time>
      </trkpt>
      <trkpt lat="44.84177" lon="6.20391">
        <ele>2316.91</ele>
        <time>2016-10-27T09:19:49Z</time>
      </trkpt>
      <trkpt lat="44.84176" lon="6.20403">
        <ele>2317.4</ele>
        <time>2016-10-27T09:19:58Z</time>
      </trkpt>
      <trkpt lat="44.84172" lon="6.2041">
        <ele>2319.8</ele>
        <time>2016-10-27T09:20:10Z</time>
      </trkpt>
      <trkpt lat="44.84173" lon="6.20409">
        <ele>2320.28</ele>
        <time>2016-10-27T09:20:13Z</time>
      </trkpt>
      <trkpt lat="44.8418" lon="6.20406">
        <ele>2320.76</ele>
        <time>2016-10-27T09:20:23Z</time>
      </trkpt>
      <trkpt lat="44.84187" lon="6.20408">
        <ele>2322.2</ele>
        <time>2016-10-27T09:20:33Z</time>
      </trkpt>
      <trkpt lat="44.84191" lon="6.2041">
        <ele>2324.12</ele>
        <time>2016-10-27T09:20:42Z</time>
      </trkpt>
      <trkpt lat="44.84193" lon="6.20408">
        <ele>2324.12</ele>
        <time>2016-10-27T09:20:45Z</time>
      </trkpt>
      <trkpt lat="44.842" lon="6.20413">
        <ele>2326.05</ele>
        <time>2016-10-27T09:20:55Z</time>
      </trkpt>
      <trkpt lat="44.84206" lon="6.20415">
        <ele>2327.01</ele>
        <time>2016-10-27T09:21:04Z</time>
      </trkpt>
      <trkpt lat="44.84211" lon="6.20417">
        <ele>2328.45</ele>
        <time>2016-10-27T09:21:13Z</time>
      </trkpt>
      <trkpt lat="44.8421" lon="6.20419">
        <ele>2328.45</ele>
        <time>2016-10-27T09:21:15Z</time>
      </trkpt>
      <trkpt lat="44.84209" lon="6.20424">
        <ele>2329.89</ele>
        <time>2016-10-27T09:21:23Z</time>
      </trkpt>
      <trkpt lat="44.84209" lon="6.20431">
        <ele>2332.3</ele>
        <time>2016-10-27T09:21:35Z</time>
      </trkpt>
      <trkpt lat="44.8421" lon="6.20433">
        <ele>2332.78</ele>
        <time>2016-10-27T09:21:37Z</time>
      </trkpt>
      <trkpt lat="44.84215" lon="6.20439">
        <ele>2333.74</ele>
        <time>2016-10-27T09:21:48Z</time>
      </trkpt>
      <trkpt lat="44.8422" lon="6.20446">
        <ele>2335.18</ele>
        <time>2016-10-27T09:21:57Z</time>
      </trkpt>
      <trkpt lat="44.8422" lon="6.20452">
        <ele>2336.14</ele>
        <time>2016-10-27T09:22:02Z</time>
      </trkpt>
      <trkpt lat="44.84217" lon="6.20455">
        <ele>2336.62</ele>
        <time>2016-10-27T09:22:07Z</time>
      </trkpt>
      <trkpt lat="44.84214" lon="6.20457">
        <ele>2337.1</ele>
        <time>2016-10-27T09:22:12Z</time>
      </trkpt>
      <trkpt lat="44.84207" lon="6.20451">
        <ele>2338.06</ele>
        <time>2016-10-27T09:22:23Z</time>
      </trkpt>
      <trkpt lat="44.84206" lon="6.20451">
        <ele>2338.54</ele>
        <time>2016-10-27T09:22:24Z</time>
      </trkpt>
      <trkpt lat="44.84199" lon="6.20454">
        <ele>2338.54</ele>
        <time>2016-10-27T09:22:32Z</time>
      </trkpt>
      <trkpt lat="44.84189" lon="6.20451">
        <ele>2339.51</ele>
        <time>2016-10-27T09:22:43Z</time>
      </trkpt>
      <trkpt lat="44.8418" lon="6.20444">
        <ele>2339.51</ele>
        <time>2016-10-27T09:22:54Z</time>
      </trkpt>
      <trkpt lat="44.84169" lon="6.20442">
        <ele>2337.58</ele>
        <time>2016-10-27T09:23:09Z</time>
      </trkpt>
      <trkpt lat="44.84162" lon="6.2044">
        <ele>2335.18</ele>
        <time>2016-10-27T09:23:21Z</time>
      </trkpt>
      <trkpt lat="44.84161" lon="6.20442">
        <ele>2338.54</ele>
        <time>2016-10-27T09:23:27Z</time>
      </trkpt>
      <trkpt lat="44.84159" lon="6.20442">
        <ele>2334.7</ele>
        <time>2016-10-27T09:23:32Z</time>
      </trkpt>
      <trkpt lat="44.84156" lon="6.20437">
        <ele>2332.78</ele>
        <time>2016-10-27T09:23:48Z</time>
      </trkpt>
      <trkpt lat="44.84149" lon="6.20432">
        <ele>2329.89</ele>
        <time>2016-10-27T09:24:04Z</time>
      </trkpt>
      <trkpt lat="44.84149" lon="6.2044">
        <ele>2329.41</ele>
        <time>2016-10-27T09:24:12Z</time>
      </trkpt>
      <trkpt lat="44.84149" lon="6.20453">
        <ele>2329.41</ele>
        <time>2016-10-27T09:24:24Z</time>
      </trkpt>
      <trkpt lat="44.84146" lon="6.20462">
        <ele>2329.89</ele>
        <time>2016-10-27T09:24:35Z</time>
      </trkpt>
      <trkpt lat="44.84143" lon="6.20468">
        <ele>2330.37</ele>
        <time>2016-10-27T09:24:46Z</time>
      </trkpt>
      <trkpt lat="44.84143" lon="6.20465">
        <ele>2330.37</ele>
        <time>2016-10-27T09:25:09Z</time>
      </trkpt>
      <trkpt lat="44.84143" lon="6.20458">
        <ele>2330.37</ele>
        <time>2016-10-27T09:25:15Z</time>
      </trkpt>
      <trkpt lat="44.84147" lon="6.2045">
        <ele>2329.89</ele>
        <time>2016-10-27T09:25:21Z</time>
      </trkpt>
      <trkpt lat="44.8415" lon="6.20436">
        <ele>2330.37</ele>
        <time>2016-10-27T09:25:32Z</time>
      </trkpt>
      <trkpt lat="44.84151" lon="6.20436">
        <ele>2330.37</ele>
        <time>2016-10-27T09:25:52Z</time>
      </trkpt>
      <trkpt lat="44.84153" lon="6.20434">
        <ele>2331.81</ele>
        <time>2016-10-27T09:26:01Z</time>
      </trkpt>
      <trkpt lat="44.84153" lon="6.20435">
        <ele>2332.78</ele>
        <time>2016-10-27T09:26:03Z</time>
      </trkpt>
      <trkpt lat="44.8416" lon="6.20438">
        <ele>2335.18</ele>
        <time>2016-10-27T09:26:13Z</time>
      </trkpt>
      <trkpt lat="44.84162" lon="6.20441">
        <ele>2335.66</ele>
        <time>2016-10-27T09:26:18Z</time>
      </trkpt>
      <trkpt lat="44.84163" lon="6.20443">
        <ele>2336.62</ele>
        <time>2016-10-27T09:26:21Z</time>
      </trkpt>
      <trkpt lat="44.84166" lon="6.20444">
        <ele>2337.1</ele>
        <time>2016-10-27T09:26:24Z</time>
      </trkpt>
      <trkpt lat="44.84169" lon="6.20443">
        <ele>2337.58</ele>
        <time>2016-10-27T09:26:28Z</time>
      </trkpt>
      <trkpt lat="44.84173" lon="6.20447">
        <ele>2338.54</ele>
        <time>2016-10-27T09:26:35Z</time>
      </trkpt>
      <trkpt lat="44.84175" lon="6.20447">
        <ele>2339.51</ele>
        <time>2016-10-27T09:26:38Z</time>
      </trkpt>
      <trkpt lat="44.8418" lon="6.20449">
        <ele>2339.99</ele>
        <time>2016-10-27T09:26:50Z</time>
      </trkpt>
      <trkpt lat="44.8418" lon="6.2045">
        <ele>2339.99</ele>
        <time>2016-10-27T09:27:20Z</time>
      </trkpt>
      <trkpt lat="44.84179" lon="6.2045">
        <ele>2339.99</ele>
        <time>2016-10-27T09:27:52Z</time>
      </trkpt>
      <trkpt lat="44.84179" lon="6.2045">
        <ele>2339.99</ele>
        <time>2016-10-27T09:28:18Z</time>
      </trkpt>
      <trkpt lat="44.84179" lon="6.20448">
        <ele>2340.47</ele>
        <time>2016-10-27T09:28:48Z</time>
      </trkpt>
      <trkpt lat="44.84183" lon="6.20444">
        <ele>2340.47</ele>
        <time>2016-10-27T09:28:58Z</time>
      </trkpt>
      <trkpt lat="44.84184" lon="6.20443">
        <ele>2340.95</ele>
        <time>2016-10-27T09:29:27Z</time>
      </trkpt>
      <trkpt lat="44.84189" lon="6.20447">
        <ele>2340.47</ele>
        <time>2016-10-27T09:29:52Z</time>
      </trkpt>
      <trkpt lat="44.84189" lon="6.20447">
        <ele>2340.47</ele>
        <time>2016-10-27T09:29:53Z</time>
      </trkpt>
      <trkpt lat="44.84198" lon="6.20447">
        <ele>2339.99</ele>
        <time>2016-10-27T09:30:03Z</time>
      </trkpt>
      <trkpt lat="44.842" lon="6.20447">
        <ele>2340.47</ele>
        <time>2016-10-27T09:30:05Z</time>
      </trkpt>
      <trkpt lat="44.84205" lon="6.20444">
        <ele>2339.99</ele>
        <time>2016-10-27T09:30:11Z</time>
      </trkpt>
      <trkpt lat="44.84209" lon="6.20449">
        <ele>2339.02</ele>
        <time>2016-10-27T09:30:20Z</time>
      </trkpt>
      <trkpt lat="44.84215" lon="6.20447">
        <ele>2338.06</ele>
        <time>2016-10-27T09:30:26Z</time>
      </trkpt>
      <trkpt lat="44.84217" lon="6.20443">
        <ele>2337.58</ele>
        <time>2016-10-27T09:30:32Z</time>
      </trkpt>
      <trkpt lat="44.84217" lon="6.20441">
        <ele>2336.62</ele>
        <time>2016-10-27T09:30:39Z</time>
      </trkpt>
      <trkpt lat="44.84213" lon="6.20439">
        <ele>2336.62</ele>
        <time>2016-10-27T09:30:44Z</time>
      </trkpt>
      <trkpt lat="44.84205" lon="6.20433">
        <ele>2334.22</ele>
        <time>2016-10-27T09:30:55Z</time>
      </trkpt>
      <trkpt lat="44.84207" lon="6.20424">
        <ele>2331.81</ele>
        <time>2016-10-27T09:31:07Z</time>
      </trkpt>
      <trkpt lat="44.84207" lon="6.20423">
        <ele>2331.81</ele>
        <time>2016-10-27T09:31:10Z</time>
      </trkpt>
      <trkpt lat="44.84209" lon="6.20418">
        <ele>2330.85</ele>
        <time>2016-10-27T09:31:25Z</time>
      </trkpt>
      <trkpt lat="44.84211" lon="6.20417">
        <ele>2329.89</ele>
        <time>2016-10-27T09:31:36Z</time>
      </trkpt>
      <trkpt lat="44.84213" lon="6.20413">
        <ele>2328.93</ele>
        <time>2016-10-27T09:31:46Z</time>
      </trkpt>
      <trkpt lat="44.8422" lon="6.20408">
        <ele>2327.01</ele>
        <time>2016-10-27T09:31:56Z</time>
      </trkpt>
      <trkpt lat="44.84229" lon="6.20407">
        <ele>2326.05</ele>
        <time>2016-10-27T09:32:07Z</time>
      </trkpt>
      <trkpt lat="44.84232" lon="6.20407">
        <ele>2326.05</ele>
        <time>2016-10-27T09:32:11Z</time>
      </trkpt>
      <trkpt lat="44.84241" lon="6.20414">
        <ele>2326.53</ele>
        <time>2016-10-27T09:32:22Z</time>
      </trkpt>
      <trkpt lat="44.84246" lon="6.20422">
        <ele>2327.49</ele>
        <time>2016-10-27T09:32:31Z</time>
      </trkpt>
      <trkpt lat="44.84252" lon="6.20432">
        <ele>2329.89</ele>
        <time>2016-10-27T09:32:42Z</time>
      </trkpt>
      <trkpt lat="44.84262" lon="6.20431">
        <ele>2332.78</ele>
        <time>2016-10-27T09:32:53Z</time>
      </trkpt>
      <trkpt lat="44.8427" lon="6.20427">
        <ele>2331.33</ele>
        <time>2016-10-27T09:33:04Z</time>
      </trkpt>
      <trkpt lat="44.84273" lon="6.20428">
        <ele>2331.81</ele>
        <time>2016-10-27T09:33:07Z</time>
      </trkpt>
      <trkpt lat="44.84277" lon="6.20427">
        <ele>2331.81</ele>
        <time>2016-10-27T09:33:12Z</time>
      </trkpt>
      <trkpt lat="44.84287" lon="6.20423">
        <ele>2332.78</ele>
        <time>2016-10-27T09:33:22Z</time>
      </trkpt>
      <trkpt lat="44.8429" lon="6.20422">
        <ele>2333.26</ele>
        <time>2016-10-27T09:33:26Z</time>
      </trkpt>
      <trkpt lat="44.84296" lon="6.2042">
        <ele>2333.74</ele>
        <time>2016-10-27T09:33:36Z</time>
      </trkpt>
      <trkpt lat="44.84296" lon="6.20416">
        <ele>2333.74</ele>
        <time>2016-10-27T09:33:52Z</time>
      </trkpt>
      <trkpt lat="44.84302" lon="6.20417">
        <ele>2334.22</ele>
        <time>2016-10-27T09:34:03Z</time>
      </trkpt>
      <trkpt lat="44.84309" lon="6.20413">
        <ele>2334.7</ele>
        <time>2016-10-27T09:34:16Z</time>
      </trkpt>
      <trkpt lat="44.8431" lon="6.20413">
        <ele>2334.7</ele>
        <time>2016-10-27T09:34:17Z</time>
      </trkpt>
      <trkpt lat="44.84314" lon="6.20413">
        <ele>2335.18</ele>
        <time>2016-10-27T09:34:28Z</time>
      </trkpt>
      <trkpt lat="44.84318" lon="6.20415">
        <ele>2335.66</ele>
        <time>2016-10-27T09:34:33Z</time>
      </trkpt>
      <trkpt lat="44.84324" lon="6.20421">
        <ele>2335.66</ele>
        <time>2016-10-27T09:34:38Z</time>
      </trkpt>
      <trkpt lat="44.84329" lon="6.2042">
        <ele>2336.62</ele>
        <time>2016-10-27T09:34:44Z</time>
      </trkpt>
      <trkpt lat="44.84333" lon="6.20422">
        <ele>2336.62</ele>
        <time>2016-10-27T09:34:48Z</time>
      </trkpt>
      <trkpt lat="44.84336" lon="6.20418">
        <ele>2337.1</ele>
        <time>2016-10-27T09:34:53Z</time>
      </trkpt>
      <trkpt lat="44.84339" lon="6.20417">
        <ele>2337.1</ele>
        <time>2016-10-27T09:34:56Z</time>
      </trkpt>
      <trkpt lat="44.84343" lon="6.2042">
        <ele>2337.1</ele>
        <time>2016-10-27T09:35:00Z</time>
      </trkpt>
      <trkpt lat="44.84347" lon="6.20423">
        <ele>2338.06</ele>
        <time>2016-10-27T09:35:08Z</time>
      </trkpt>
      <trkpt lat="44.84349" lon="6.20421">
        <ele>2339.02</ele>
        <time>2016-10-27T09:35:19Z</time>
      </trkpt>
      <trkpt lat="44.84354" lon="6.20417">
        <ele>2339.02</ele>
        <time>2016-10-27T09:35:33Z</time>
      </trkpt>
      <trkpt lat="44.84359" lon="6.20411">
        <ele>2340.47</ele>
        <time>2016-10-27T09:35:40Z</time>
      </trkpt>
      <trkpt lat="44.84362" lon="6.20411">
        <ele>2340.95</ele>
        <time>2016-10-27T09:35:44Z</time>
      </trkpt>
      <trkpt lat="44.8437" lon="6.20406">
        <ele>2341.91</ele>
        <time>2016-10-27T09:35:56Z</time>
      </trkpt>
      <trkpt lat="44.8438" lon="6.20401">
        <ele>2342.87</ele>
        <time>2016-10-27T09:36:07Z</time>
      </trkpt>
      <trkpt lat="44.84383" lon="6.20398">
        <ele>2343.83</ele>
        <time>2016-10-27T09:36:11Z</time>
      </trkpt>
      <trkpt lat="44.84389" lon="6.20395">
        <ele>2345.27</ele>
        <time>2016-10-27T09:36:20Z</time>
      </trkpt>
      <trkpt lat="44.84396" lon="6.20403">
        <ele>2347.2</ele>
        <time>2016-10-27T09:36:30Z</time>
      </trkpt>
      <trkpt lat="44.84399" lon="6.20404">
        <ele>2348.16</ele>
        <time>2016-10-27T09:36:39Z</time>
      </trkpt>
      <trkpt lat="44.84396" lon="6.20394">
        <ele>2349.6</ele>
        <time>2016-10-27T09:36:51Z</time>
      </trkpt>
      <trkpt lat="44.84393" lon="6.20379">
        <ele>2351.52</ele>
        <time>2016-10-27T09:37:02Z</time>
      </trkpt>
      <trkpt lat="44.84391" lon="6.20373">
        <ele>2352</ele>
        <time>2016-10-27T09:37:09Z</time>
      </trkpt>
      <trkpt lat="44.8439" lon="6.20368">
        <ele>2353.44</ele>
        <time>2016-10-27T09:37:15Z</time>
      </trkpt>
      <trkpt lat="44.84389" lon="6.20357">
        <ele>2354.89</ele>
        <time>2016-10-27T09:37:26Z</time>
      </trkpt>
      <trkpt lat="44.84389" lon="6.20352">
        <ele>2355.37</ele>
        <time>2016-10-27T09:37:30Z</time>
      </trkpt>
      <trkpt lat="44.8439" lon="6.20349">
        <ele>2355.85</ele>
        <time>2016-10-27T09:37:33Z</time>
      </trkpt>
      <trkpt lat="44.84388" lon="6.20337">
        <ele>2357.29</ele>
        <time>2016-10-27T09:37:44Z</time>
      </trkpt>
      <trkpt lat="44.84387" lon="6.20326">
        <ele>2359.69</ele>
        <time>2016-10-27T09:37:56Z</time>
      </trkpt>
      <trkpt lat="44.84386" lon="6.20315">
        <ele>2361.14</ele>
        <time>2016-10-27T09:38:07Z</time>
      </trkpt>
      <trkpt lat="44.84383" lon="6.203">
        <ele>2362.58</ele>
        <time>2016-10-27T09:38:20Z</time>
      </trkpt>
      <trkpt lat="44.84384" lon="6.20292">
        <ele>2364.5</ele>
        <time>2016-10-27T09:38:32Z</time>
      </trkpt>
      <trkpt lat="44.84383" lon="6.20287">
        <ele>2366.42</ele>
        <time>2016-10-27T09:38:48Z</time>
      </trkpt>
      <trkpt lat="44.84381" lon="6.20273">
        <ele>2367.38</ele>
        <time>2016-10-27T09:38:59Z</time>
      </trkpt>
      <trkpt lat="44.84379" lon="6.20262">
        <ele>2369.31</ele>
        <time>2016-10-27T09:39:11Z</time>
      </trkpt>
      <trkpt lat="44.84379" lon="6.2026">
        <ele>2369.79</ele>
        <time>2016-10-27T09:39:15Z</time>
      </trkpt>
      <trkpt lat="44.84379" lon="6.20256">
        <ele>2370.75</ele>
        <time>2016-10-27T09:39:20Z</time>
      </trkpt>
      <trkpt lat="44.8438" lon="6.20246">
        <ele>2372.19</ele>
        <time>2016-10-27T09:39:30Z</time>
      </trkpt>
      <trkpt lat="44.84379" lon="6.2023">
        <ele>2373.15</ele>
        <time>2016-10-27T09:39:42Z</time>
      </trkpt>
      <trkpt lat="44.84377" lon="6.20218">
        <ele>2375.07</ele>
        <time>2016-10-27T09:39:53Z</time>
      </trkpt>
      <trkpt lat="44.84375" lon="6.20207">
        <ele>2377.48</ele>
        <time>2016-10-27T09:40:07Z</time>
      </trkpt>
      <trkpt lat="44.84375" lon="6.20206">
        <ele>2377.48</ele>
        <time>2016-10-27T09:40:08Z</time>
      </trkpt>
      <trkpt lat="44.84374" lon="6.20198">
        <ele>2379.88</ele>
        <time>2016-10-27T09:40:19Z</time>
      </trkpt>
      <trkpt lat="44.84374" lon="6.20194">
        <ele>2382.28</ele>
        <time>2016-10-27T09:40:30Z</time>
      </trkpt>
      <trkpt lat="44.84376" lon="6.2019">
        <ele>2382.28</ele>
        <time>2016-10-27T09:40:46Z</time>
      </trkpt>
      <trkpt lat="44.84376" lon="6.2019">
        <ele>2382.28</ele>
        <time>2016-10-27T09:40:47Z</time>
      </trkpt>
      <trkpt lat="44.84379" lon="6.20193">
        <ele>2384.21</ele>
        <time>2016-10-27T09:40:57Z</time>
      </trkpt>
      <trkpt lat="44.84381" lon="6.20196">
        <ele>2386.13</ele>
        <time>2016-10-27T09:41:10Z</time>
      </trkpt>
      <trkpt lat="44.84386" lon="6.20201">
        <ele>2387.57</ele>
        <time>2016-10-27T09:41:18Z</time>
      </trkpt>
      <trkpt lat="44.8439" lon="6.20207">
        <ele>2389.01</ele>
        <time>2016-10-27T09:41:27Z</time>
      </trkpt>
      <trkpt lat="44.84395" lon="6.20214">
        <ele>2390.46</ele>
        <time>2016-10-27T09:41:38Z</time>
      </trkpt>
      <trkpt lat="44.844" lon="6.2022">
        <ele>2392.38</ele>
        <time>2016-10-27T09:41:48Z</time>
      </trkpt>
      <trkpt lat="44.844" lon="6.2022">
        <ele>2392.38</ele>
        <time>2016-10-27T09:41:49Z</time>
      </trkpt>
      <trkpt lat="44.84406" lon="6.20225">
        <ele>2394.3</ele>
        <time>2016-10-27T09:41:59Z</time>
      </trkpt>
      <trkpt lat="44.84409" lon="6.20229">
        <ele>2395.74</ele>
        <time>2016-10-27T09:42:07Z</time>
      </trkpt>
      <trkpt lat="44.84409" lon="6.20228">
        <ele>2395.26</ele>
        <time>2016-10-27T09:42:08Z</time>
      </trkpt>
      <trkpt lat="44.8441" lon="6.2022">
        <ele>2397.67</ele>
        <time>2016-10-27T09:42:19Z</time>
      </trkpt>
      <trkpt lat="44.8441" lon="6.20213">
        <ele>2400.07</ele>
        <time>2016-10-27T09:42:31Z</time>
      </trkpt>
      <trkpt lat="44.84411" lon="6.20207">
        <ele>2401.99</ele>
        <time>2016-10-27T09:42:41Z</time>
      </trkpt>
      <trkpt lat="44.84413" lon="6.20207">
        <ele>2402.95</ele>
        <time>2016-10-27T09:42:46Z</time>
      </trkpt>
      <trkpt lat="44.84416" lon="6.2021">
        <ele>2404.39</ele>
        <time>2016-10-27T09:42:54Z</time>
      </trkpt>
      <trkpt lat="44.84422" lon="6.20213">
        <ele>2406.8</ele>
        <time>2016-10-27T09:43:05Z</time>
      </trkpt>
      <trkpt lat="44.84425" lon="6.20216">
        <ele>2408.24</ele>
        <time>2016-10-27T09:43:15Z</time>
      </trkpt>
      <trkpt lat="44.84427" lon="6.20216">
        <ele>2408.24</ele>
        <time>2016-10-27T09:43:18Z</time>
      </trkpt>
      <trkpt lat="44.84431" lon="6.20223">
        <ele>2410.16</ele>
        <time>2016-10-27T09:43:28Z</time>
      </trkpt>
      <trkpt lat="44.84433" lon="6.20229">
        <ele>2412.09</ele>
        <time>2016-10-27T09:43:38Z</time>
      </trkpt>
      <trkpt lat="44.84435" lon="6.20224">
        <ele>2413.53</ele>
        <time>2016-10-27T09:43:49Z</time>
      </trkpt>
      <trkpt lat="44.84435" lon="6.2022">
        <ele>2414.49</ele>
        <time>2016-10-27T09:43:55Z</time>
      </trkpt>
      <trkpt lat="44.84437" lon="6.2021">
        <ele>2416.41</ele>
        <time>2016-10-27T09:44:06Z</time>
      </trkpt>
      <trkpt lat="44.84441" lon="6.20204">
        <ele>2417.37</ele>
        <time>2016-10-27T09:44:16Z</time>
      </trkpt>
      <trkpt lat="44.84443" lon="6.20197">
        <ele>2418.81</ele>
        <time>2016-10-27T09:44:25Z</time>
      </trkpt>
      <trkpt lat="44.84444" lon="6.20191">
        <ele>2419.78</ele>
        <time>2016-10-27T09:44:32Z</time>
      </trkpt>
      <trkpt lat="44.84445" lon="6.20187">
        <ele>2420.74</ele>
        <time>2016-10-27T09:44:39Z</time>
      </trkpt>
      <trkpt lat="44.84448" lon="6.20178">
        <ele>2422.66</ele>
        <time>2016-10-27T09:44:49Z</time>
      </trkpt>
      <trkpt lat="44.84448" lon="6.20176">
        <ele>2422.66</ele>
        <time>2016-10-27T09:44:51Z</time>
      </trkpt>
      <trkpt lat="44.84448" lon="6.20172">
        <ele>2423.14</ele>
        <time>2016-10-27T09:44:54Z</time>
      </trkpt>
      <trkpt lat="44.8445" lon="6.20168">
        <ele>2425.06</ele>
        <time>2016-10-27T09:45:03Z</time>
      </trkpt>
      <trkpt lat="44.84449" lon="6.2016">
        <ele>2426.5</ele>
        <time>2016-10-27T09:45:11Z</time>
      </trkpt>
      <trkpt lat="44.84448" lon="6.20155">
        <ele>2427.95</ele>
        <time>2016-10-27T09:45:21Z</time>
      </trkpt>
      <trkpt lat="44.84449" lon="6.20153">
        <ele>2428.43</ele>
        <time>2016-10-27T09:45:24Z</time>
      </trkpt>
      <trkpt lat="44.84449" lon="6.20145">
        <ele>2430.35</ele>
        <time>2016-10-27T09:45:37Z</time>
      </trkpt>
      <trkpt lat="44.84449" lon="6.2014">
        <ele>2431.31</ele>
        <time>2016-10-27T09:45:45Z</time>
      </trkpt>
      <trkpt lat="44.84454" lon="6.20134">
        <ele>2432.75</ele>
        <time>2016-10-27T09:45:55Z</time>
      </trkpt>
      <trkpt lat="44.84457" lon="6.20136">
        <ele>2435.16</ele>
        <time>2016-10-27T09:46:06Z</time>
      </trkpt>
      <trkpt lat="44.84457" lon="6.20136">
        <ele>2435.16</ele>
        <time>2016-10-27T09:46:08Z</time>
      </trkpt>
      <trkpt lat="44.8446" lon="6.2014">
        <ele>2436.6</ele>
        <time>2016-10-27T09:46:16Z</time>
      </trkpt>
      <trkpt lat="44.84463" lon="6.20144">
        <ele>2438.04</ele>
        <time>2016-10-27T09:46:28Z</time>
      </trkpt>
      <trkpt lat="44.84463" lon="6.20144">
        <ele>2438.52</ele>
        <time>2016-10-27T09:46:29Z</time>
      </trkpt>
      <trkpt lat="44.84464" lon="6.20138">
        <ele>2440.44</ele>
        <time>2016-10-27T09:46:40Z</time>
      </trkpt>
      <trkpt lat="44.84467" lon="6.20132">
        <ele>2441.89</ele>
        <time>2016-10-27T09:46:50Z</time>
      </trkpt>
      <trkpt lat="44.84469" lon="6.20133">
        <ele>2443.33</ele>
        <time>2016-10-27T09:47:01Z</time>
      </trkpt>
      <trkpt lat="44.84471" lon="6.20136">
        <ele>2444.77</ele>
        <time>2016-10-27T09:47:10Z</time>
      </trkpt>
      <trkpt lat="44.84479" lon="6.20138">
        <ele>2446.21</ele>
        <time>2016-10-27T09:47:21Z</time>
      </trkpt>
      <trkpt lat="44.84479" lon="6.20135">
        <ele>2448.13</ele>
        <time>2016-10-27T09:47:32Z</time>
      </trkpt>
      <trkpt lat="44.84479" lon="6.20134">
        <ele>2448.62</ele>
        <time>2016-10-27T09:47:35Z</time>
      </trkpt>
      <trkpt lat="44.84481" lon="6.20128">
        <ele>2450.54</ele>
        <time>2016-10-27T09:47:46Z</time>
      </trkpt>
      <trkpt lat="44.84481" lon="6.20129">
        <ele>2450.54</ele>
        <time>2016-10-27T09:47:48Z</time>
      </trkpt>
      <trkpt lat="44.84484" lon="6.2013">
        <ele>2451.98</ele>
        <time>2016-10-27T09:47:53Z</time>
      </trkpt>
      <trkpt lat="44.84489" lon="6.20133">
        <ele>2451.98</ele>
        <time>2016-10-27T09:48:00Z</time>
      </trkpt>
      <trkpt lat="44.84491" lon="6.20134">
        <ele>2452.94</ele>
        <time>2016-10-27T09:48:02Z</time>
      </trkpt>
      <trkpt lat="44.84494" lon="6.20138">
        <ele>2453.9</ele>
        <time>2016-10-27T09:48:08Z</time>
      </trkpt>
      <trkpt lat="44.84497" lon="6.20146">
        <ele>2455.34</ele>
        <time>2016-10-27T09:48:20Z</time>
      </trkpt>
      <trkpt lat="44.84498" lon="6.20148">
        <ele>2457.27</ele>
        <time>2016-10-27T09:48:32Z</time>
      </trkpt>
      <trkpt lat="44.84501" lon="6.20156">
        <ele>2459.19</ele>
        <time>2016-10-27T09:48:44Z</time>
      </trkpt>
      <trkpt lat="44.84501" lon="6.20157">
        <ele>2459.67</ele>
        <time>2016-10-27T09:48:45Z</time>
      </trkpt>
      <trkpt lat="44.84504" lon="6.20164">
        <ele>2461.11</ele>
        <time>2016-10-27T09:48:55Z</time>
      </trkpt>
      <trkpt lat="44.84507" lon="6.20172">
        <ele>2463.04</ele>
        <time>2016-10-27T09:49:04Z</time>
      </trkpt>
      <trkpt lat="44.8451" lon="6.2018">
        <ele>2464.96</ele>
        <time>2016-10-27T09:49:15Z</time>
      </trkpt>
      <trkpt lat="44.84511" lon="6.20179">
        <ele>2464.96</ele>
        <time>2016-10-27T09:49:19Z</time>
      </trkpt>
      <trkpt lat="44.84513" lon="6.2017">
        <ele>2466.4</ele>
        <time>2016-10-27T09:49:29Z</time>
      </trkpt>
      <trkpt lat="44.84515" lon="6.20162">
        <ele>2467.36</ele>
        <time>2016-10-27T09:49:39Z</time>
      </trkpt>
      <trkpt lat="44.84517" lon="6.20153">
        <ele>2468.32</ele>
        <time>2016-10-27T09:49:49Z</time>
      </trkpt>
      <trkpt lat="44.84518" lon="6.20149">
        <ele>2470.24</ele>
        <time>2016-10-27T09:49:59Z</time>
      </trkpt>
      <trkpt lat="44.84518" lon="6.20148">
        <ele>2470.24</ele>
        <time>2016-10-27T09:50:00Z</time>
      </trkpt>
      <trkpt lat="44.8452" lon="6.20141">
        <ele>2471.69</ele>
        <time>2016-10-27T09:50:10Z</time>
      </trkpt>
      <trkpt lat="44.84522" lon="6.20136">
        <ele>2473.13</ele>
        <time>2016-10-27T09:50:19Z</time>
      </trkpt>
      <trkpt lat="44.84525" lon="6.20133">
        <ele>2475.05</ele>
        <time>2016-10-27T09:50:30Z</time>
      </trkpt>
      <trkpt lat="44.84526" lon="6.20122">
        <ele>2476.01</ele>
        <time>2016-10-27T09:50:41Z</time>
      </trkpt>
      <trkpt lat="44.84525" lon="6.20116">
        <ele>2477.94</ele>
        <time>2016-10-27T09:50:52Z</time>
      </trkpt>
      <trkpt lat="44.84525" lon="6.20112">
        <ele>2477.94</ele>
        <time>2016-10-27T09:50:58Z</time>
      </trkpt>
      <trkpt lat="44.84528" lon="6.20107">
        <ele>2480.34</ele>
        <time>2016-10-27T09:51:10Z</time>
      </trkpt>
      <trkpt lat="44.8453" lon="6.20102">
        <ele>2482.26</ele>
        <time>2016-10-27T09:51:21Z</time>
      </trkpt>
      <trkpt lat="44.84531" lon="6.20102">
        <ele>2482.74</ele>
        <time>2016-10-27T09:51:28Z</time>
      </trkpt>
      <trkpt lat="44.84531" lon="6.20099">
        <ele>2483.22</ele>
        <time>2016-10-27T09:51:33Z</time>
      </trkpt>
      <trkpt lat="44.84533" lon="6.20092">
        <ele>2485.63</ele>
        <time>2016-10-27T09:51:45Z</time>
      </trkpt>
      <trkpt lat="44.84537" lon="6.2008">
        <ele>2487.07</ele>
        <time>2016-10-27T09:51:57Z</time>
      </trkpt>
      <trkpt lat="44.84537" lon="6.20078">
        <ele>2487.55</ele>
        <time>2016-10-27T09:51:59Z</time>
      </trkpt>
      <trkpt lat="44.84539" lon="6.20071">
        <ele>2489.47</ele>
        <time>2016-10-27T09:52:09Z</time>
      </trkpt>
      <trkpt lat="44.84542" lon="6.20062">
        <ele>2490.91</ele>
        <time>2016-10-27T09:52:18Z</time>
      </trkpt>
      <trkpt lat="44.84543" lon="6.2006">
        <ele>2490.91</ele>
        <time>2016-10-27T09:52:20Z</time>
      </trkpt>
      <trkpt lat="44.84543" lon="6.20051">
        <ele>2492.84</ele>
        <time>2016-10-27T09:52:31Z</time>
      </trkpt>
      <trkpt lat="44.84544" lon="6.20047">
        <ele>2492.84</ele>
        <time>2016-10-27T09:52:35Z</time>
      </trkpt>
      <trkpt lat="44.84544" lon="6.20041">
        <ele>2493.8</ele>
        <time>2016-10-27T09:52:40Z</time>
      </trkpt>
      <trkpt lat="44.84546" lon="6.20032">
        <ele>2495.24</ele>
        <time>2016-10-27T09:52:51Z</time>
      </trkpt>
      <trkpt lat="44.84548" lon="6.20022">
        <ele>2496.68</ele>
        <time>2016-10-27T09:53:01Z</time>
      </trkpt>
      <trkpt lat="44.8455" lon="6.20026">
        <ele>2497.16</ele>
        <time>2016-10-27T09:53:07Z</time>
      </trkpt>
      <trkpt lat="44.84553" lon="6.20032">
        <ele>2499.08</ele>
        <time>2016-10-27T09:53:18Z</time>
      </trkpt>
      <trkpt lat="44.84557" lon="6.2004">
        <ele>2500.53</ele>
        <time>2016-10-27T09:53:27Z</time>
      </trkpt>
      <trkpt lat="44.84559" lon="6.20044">
        <ele>2501.49</ele>
        <time>2016-10-27T09:53:37Z</time>
      </trkpt>
      <trkpt lat="44.8456" lon="6.20048">
        <ele>2503.89</ele>
        <time>2016-10-27T09:53:49Z</time>
      </trkpt>
      <trkpt lat="44.84563" lon="6.20054">
        <ele>2504.85</ele>
        <time>2016-10-27T09:54:00Z</time>
      </trkpt>
      <trkpt lat="44.84566" lon="6.20058">
        <ele>2506.29</ele>
        <time>2016-10-27T09:54:15Z</time>
      </trkpt>
      <trkpt lat="44.8457" lon="6.20066">
        <ele>2507.74</ele>
        <time>2016-10-27T09:54:26Z</time>
      </trkpt>
      <trkpt lat="44.84574" lon="6.20075">
        <ele>2509.66</ele>
        <time>2016-10-27T09:54:35Z</time>
      </trkpt>
      <trkpt lat="44.84577" lon="6.2008">
        <ele>2510.62</ele>
        <time>2016-10-27T09:54:43Z</time>
      </trkpt>
      <trkpt lat="44.84578" lon="6.20083">
        <ele>2511.58</ele>
        <time>2016-10-27T09:54:54Z</time>
      </trkpt>
      <trkpt lat="44.84579" lon="6.20083">
        <ele>2514.47</ele>
        <time>2016-10-27T09:55:06Z</time>
      </trkpt>
      <trkpt lat="44.84581" lon="6.20083">
        <ele>2515.91</ele>
        <time>2016-10-27T09:55:18Z</time>
      </trkpt>
      <trkpt lat="44.84583" lon="6.20085">
        <ele>2517.83</ele>
        <time>2016-10-27T09:55:28Z</time>
      </trkpt>
      <trkpt lat="44.84587" lon="6.20088">
        <ele>2518.79</ele>
        <time>2016-10-27T09:55:35Z</time>
      </trkpt>
      <trkpt lat="44.84592" lon="6.20091">
        <ele>2519.75</ele>
        <time>2016-10-27T09:55:49Z</time>
      </trkpt>
      <trkpt lat="44.84592" lon="6.20095">
        <ele>2519.27</ele>
        <time>2016-10-27T09:56:08Z</time>
      </trkpt>
      <trkpt lat="44.84592" lon="6.20096">
        <ele>2519.75</ele>
        <time>2016-10-27T09:56:28Z</time>
      </trkpt>
      <trkpt lat="44.84593" lon="6.20096">
        <ele>2519.27</ele>
        <time>2016-10-27T09:56:39Z</time>
      </trkpt>
      <trkpt lat="44.84595" lon="6.20091">
        <ele>2521.68</ele>
        <time>2016-10-27T09:56:49Z</time>
      </trkpt>
      <trkpt lat="44.84595" lon="6.20089">
        <ele>2521.68</ele>
        <time>2016-10-27T09:56:51Z</time>
      </trkpt>
      <trkpt lat="44.84595" lon="6.20086">
        <ele>2522.16</ele>
        <time>2016-10-27T09:56:54Z</time>
      </trkpt>
      <trkpt lat="44.84596" lon="6.20082">
        <ele>2523.12</ele>
        <time>2016-10-27T09:56:59Z</time>
      </trkpt>
      <trkpt lat="44.84601" lon="6.20085">
        <ele>2525.04</ele>
        <time>2016-10-27T09:57:08Z</time>
      </trkpt>
      <trkpt lat="44.84602" lon="6.20088">
        <ele>2525.52</ele>
        <time>2016-10-27T09:57:11Z</time>
      </trkpt>
      <trkpt lat="44.84607" lon="6.20093">
        <ele>2527.44</ele>
        <time>2016-10-27T09:57:23Z</time>
      </trkpt>
      <trkpt lat="44.84609" lon="6.20096">
        <ele>2528.89</ele>
        <time>2016-10-27T09:57:33Z</time>
      </trkpt>
      <trkpt lat="44.8461" lon="6.20097">
        <ele>2528.89</ele>
        <time>2016-10-27T09:57:36Z</time>
      </trkpt>
      <trkpt lat="44.84614" lon="6.20106">
        <ele>2531.29</ele>
        <time>2016-10-27T09:57:48Z</time>
      </trkpt>
      <trkpt lat="44.84615" lon="6.20107">
        <ele>2531.77</ele>
        <time>2016-10-27T09:58:02Z</time>
      </trkpt>
      <trkpt lat="44.84615" lon="6.20106">
        <ele>2532.25</ele>
        <time>2016-10-27T09:58:04Z</time>
      </trkpt>
      <trkpt lat="44.84617" lon="6.20103">
        <ele>2534.17</ele>
        <time>2016-10-27T09:58:14Z</time>
      </trkpt>
      <trkpt lat="44.84618" lon="6.20095">
        <ele>2535.61</ele>
        <time>2016-10-27T09:58:25Z</time>
      </trkpt>
      <trkpt lat="44.84618" lon="6.20088">
        <ele>2537.06</ele>
        <time>2016-10-27T09:58:35Z</time>
      </trkpt>
      <trkpt lat="44.84619" lon="6.20077">
        <ele>2538.5</ele>
        <time>2016-10-27T09:58:45Z</time>
      </trkpt>
      <trkpt lat="44.84619" lon="6.20071">
        <ele>2539.94</ele>
        <time>2016-10-27T09:58:55Z</time>
      </trkpt>
      <trkpt lat="44.84618" lon="6.20061">
        <ele>2541.38</ele>
        <time>2016-10-27T09:59:06Z</time>
      </trkpt>
      <trkpt lat="44.8462" lon="6.20061">
        <ele>2541.86</ele>
        <time>2016-10-27T09:59:09Z</time>
      </trkpt>
      <trkpt lat="44.84624" lon="6.20065">
        <ele>2543.79</ele>
        <time>2016-10-27T09:59:19Z</time>
      </trkpt>
      <trkpt lat="44.84629" lon="6.2007">
        <ele>2545.71</ele>
        <time>2016-10-27T09:59:29Z</time>
      </trkpt>
      <trkpt lat="44.84633" lon="6.20076">
        <ele>2547.15</ele>
        <time>2016-10-27T09:59:38Z</time>
      </trkpt>
      <trkpt lat="44.84636" lon="6.20081">
        <ele>2548.11</ele>
        <time>2016-10-27T09:59:47Z</time>
      </trkpt>
      <trkpt lat="44.84638" lon="6.20082">
        <ele>2549.07</ele>
        <time>2016-10-27T10:00:06Z</time>
      </trkpt>
      <trkpt lat="44.84642" lon="6.20087">
        <ele>2550.51</ele>
        <time>2016-10-27T10:00:16Z</time>
      </trkpt>
      <trkpt lat="44.84646" lon="6.20091">
        <ele>2552.44</ele>
        <time>2016-10-27T10:00:26Z</time>
      </trkpt>
      <trkpt lat="44.84652" lon="6.20098">
        <ele>2553.88</ele>
        <time>2016-10-27T10:00:37Z</time>
      </trkpt>
      <trkpt lat="44.84653" lon="6.20095">
        <ele>2554.36</ele>
        <time>2016-10-27T10:00:53Z</time>
      </trkpt>
      <trkpt lat="44.84654" lon="6.20093">
        <ele>2554.84</ele>
        <time>2016-10-27T10:00:55Z</time>
      </trkpt>
      <trkpt lat="44.84662" lon="6.20093">
        <ele>2556.28</ele>
        <time>2016-10-27T10:01:06Z</time>
      </trkpt>
      <trkpt lat="44.84665" lon="6.20091">
        <ele>2557.24</ele>
        <time>2016-10-27T10:01:12Z</time>
      </trkpt>
      <trkpt lat="44.84671" lon="6.20089">
        <ele>2558.69</ele>
        <time>2016-10-27T10:01:23Z</time>
      </trkpt>
      <trkpt lat="44.84671" lon="6.20088">
        <ele>2558.69</ele>
        <time>2016-10-27T10:01:25Z</time>
      </trkpt>
      <trkpt lat="44.84673" lon="6.20087">
        <ele>2559.17</ele>
        <time>2016-10-27T10:01:28Z</time>
      </trkpt>
      <trkpt lat="44.84674" lon="6.20085">
        <ele>2559.65</ele>
        <time>2016-10-27T10:01:31Z</time>
      </trkpt>
      <trkpt lat="44.84677" lon="6.20084">
        <ele>2560.61</ele>
        <time>2016-10-27T10:01:37Z</time>
      </trkpt>
      <trkpt lat="44.84681" lon="6.20078">
        <ele>2562.53</ele>
        <time>2016-10-27T10:01:47Z</time>
      </trkpt>
      <trkpt lat="44.84681" lon="6.2007">
        <ele>2563.97</ele>
        <time>2016-10-27T10:01:59Z</time>
      </trkpt>
      <trkpt lat="44.84683" lon="6.20071">
        <ele>2563.97</ele>
        <time>2016-10-27T10:02:07Z</time>
      </trkpt>
      <trkpt lat="44.84689" lon="6.20077">
        <ele>2564.93</ele>
        <time>2016-10-27T10:02:16Z</time>
      </trkpt>
      <trkpt lat="44.84691" lon="6.20086">
        <ele>2566.38</ele>
        <time>2016-10-27T10:02:27Z</time>
      </trkpt>
      <trkpt lat="44.84691" lon="6.20096">
        <ele>2568.78</ele>
        <time>2016-10-27T10:02:38Z</time>
      </trkpt>
      <trkpt lat="44.84694" lon="6.20102">
        <ele>2570.7</ele>
        <time>2016-10-27T10:02:49Z</time>
      </trkpt>
      <trkpt lat="44.84695" lon="6.20106">
        <ele>2571.66</ele>
        <time>2016-10-27T10:02:54Z</time>
      </trkpt>
      <trkpt lat="44.84698" lon="6.20113">
        <ele>2573.11</ele>
        <time>2016-10-27T10:03:07Z</time>
      </trkpt>
      <trkpt lat="44.847" lon="6.2012">
        <ele>2575.03</ele>
        <time>2016-10-27T10:03:18Z</time>
      </trkpt>
      <trkpt lat="44.84701" lon="6.20126">
        <ele>2576.95</ele>
        <time>2016-10-27T10:03:28Z</time>
      </trkpt>
      <trkpt lat="44.84702" lon="6.20127">
        <ele>2577.43</ele>
        <time>2016-10-27T10:03:31Z</time>
      </trkpt>
      <trkpt lat="44.84703" lon="6.2013">
        <ele>2578.87</ele>
        <time>2016-10-27T10:03:38Z</time>
      </trkpt>
      <trkpt lat="44.84705" lon="6.20135">
        <ele>2579.35</ele>
        <time>2016-10-27T10:03:50Z</time>
      </trkpt>
      <trkpt lat="44.8471" lon="6.20134">
        <ele>2580.8</ele>
        <time>2016-10-27T10:04:00Z</time>
      </trkpt>
      <trkpt lat="44.84708" lon="6.20131">
        <ele>2581.76</ele>
        <time>2016-10-27T10:04:06Z</time>
      </trkpt>
      <trkpt lat="44.84708" lon="6.20125">
        <ele>2582.24</ele>
        <time>2016-10-27T10:04:12Z</time>
      </trkpt>
      <trkpt lat="44.84709" lon="6.20119">
        <ele>2583.2</ele>
        <time>2016-10-27T10:04:20Z</time>
      </trkpt>
      <trkpt lat="44.84711" lon="6.20119">
        <ele>2584.16</ele>
        <time>2016-10-27T10:04:23Z</time>
      </trkpt>
      <trkpt lat="44.84713" lon="6.20121">
        <ele>2585.6</ele>
        <time>2016-10-27T10:04:29Z</time>
      </trkpt>
      <trkpt lat="44.84716" lon="6.20121">
        <ele>2586.56</ele>
        <time>2016-10-27T10:04:42Z</time>
      </trkpt>
      <trkpt lat="44.84719" lon="6.20117">
        <ele>2588.01</ele>
        <time>2016-10-27T10:04:52Z</time>
      </trkpt>
      <trkpt lat="44.8472" lon="6.20115">
        <ele>2588.49</ele>
        <time>2016-10-27T10:04:55Z</time>
      </trkpt>
      <trkpt lat="44.84721" lon="6.20108">
        <ele>2589.93</ele>
        <time>2016-10-27T10:05:05Z</time>
      </trkpt>
      <trkpt lat="44.84724" lon="6.20101">
        <ele>2592.33</ele>
        <time>2016-10-27T10:05:16Z</time>
      </trkpt>
      <trkpt lat="44.84725" lon="6.20099">
        <ele>2592.33</ele>
        <time>2016-10-27T10:05:36Z</time>
      </trkpt>
      <trkpt lat="44.84729" lon="6.201">
        <ele>2594.74</ele>
        <time>2016-10-27T10:05:47Z</time>
      </trkpt>
      <trkpt lat="44.8473" lon="6.20098">
        <ele>2595.22</ele>
        <time>2016-10-27T10:05:50Z</time>
      </trkpt>
      <trkpt lat="44.84732" lon="6.20091">
        <ele>2596.18</ele>
        <time>2016-10-27T10:05:59Z</time>
      </trkpt>
      <trkpt lat="44.84734" lon="6.20088">
        <ele>2597.62</ele>
        <time>2016-10-27T10:06:05Z</time>
      </trkpt>
      <trkpt lat="44.84735" lon="6.20079">
        <ele>2598.1</ele>
        <time>2016-10-27T10:06:14Z</time>
      </trkpt>
      <trkpt lat="44.84735" lon="6.20075">
        <ele>2598.1</ele>
        <time>2016-10-27T10:06:17Z</time>
      </trkpt>
      <trkpt lat="44.84736" lon="6.20068">
        <ele>2598.1</ele>
        <time>2016-10-27T10:06:23Z</time>
      </trkpt>
      <trkpt lat="44.8474" lon="6.20057">
        <ele>2600.02</ele>
        <time>2016-10-27T10:06:35Z</time>
      </trkpt>
      <trkpt lat="44.84741" lon="6.20056">
        <ele>2600.5</ele>
        <time>2016-10-27T10:06:38Z</time>
      </trkpt>
      <trkpt lat="44.84747" lon="6.20047">
        <ele>2600.98</ele>
        <time>2016-10-27T10:06:48Z</time>
      </trkpt>
      <trkpt lat="44.8475" lon="6.20044">
        <ele>2601.46</ele>
        <time>2016-10-27T10:07:03Z</time>
      </trkpt>
      <trkpt lat="44.84751" lon="6.20043">
        <ele>2601.95</ele>
        <time>2016-10-27T10:07:07Z</time>
      </trkpt>
      <trkpt lat="44.84754" lon="6.2003">
        <ele>2600.98</ele>
        <time>2016-10-27T10:07:18Z</time>
      </trkpt>
      <trkpt lat="44.84756" lon="6.20022">
        <ele>2602.43</ele>
        <time>2016-10-27T10:07:26Z</time>
      </trkpt>
      <trkpt lat="44.84756" lon="6.20012">
        <ele>2603.39</ele>
        <time>2016-10-27T10:07:36Z</time>
      </trkpt>
      <trkpt lat="44.84759" lon="6.20004">
        <ele>2605.79</ele>
        <time>2016-10-27T10:07:45Z</time>
      </trkpt>
      <trkpt lat="44.84761" lon="6.19999">
        <ele>2606.75</ele>
        <time>2016-10-27T10:07:57Z</time>
      </trkpt>
      <trkpt lat="44.8476" lon="6.1999">
        <ele>2608.19</ele>
        <time>2016-10-27T10:08:07Z</time>
      </trkpt>
      <trkpt lat="44.84759" lon="6.19986">
        <ele>2608.67</ele>
        <time>2016-10-27T10:08:16Z</time>
      </trkpt>
      <trkpt lat="44.8476" lon="6.19985">
        <ele>2609.64</ele>
        <time>2016-10-27T10:08:18Z</time>
      </trkpt>
      <trkpt lat="44.8476" lon="6.1998">
        <ele>2610.12</ele>
        <time>2016-10-27T10:08:29Z</time>
      </trkpt>
      <trkpt lat="44.84763" lon="6.19977">
        <ele>2612.52</ele>
        <time>2016-10-27T10:08:39Z</time>
      </trkpt>
      <trkpt lat="44.84765" lon="6.19972">
        <ele>2613</ele>
        <time>2016-10-27T10:08:53Z</time>
      </trkpt>
      <trkpt lat="44.84769" lon="6.19966">
        <ele>2613.96</ele>
        <time>2016-10-27T10:09:03Z</time>
      </trkpt>
      <trkpt lat="44.84768" lon="6.19964">
        <ele>2614.92</ele>
        <time>2016-10-27T10:09:12Z</time>
      </trkpt>
      <trkpt lat="44.84771" lon="6.19953">
        <ele>2617.33</ele>
        <time>2016-10-27T10:09:25Z</time>
      </trkpt>
      <trkpt lat="44.84777" lon="6.19943">
        <ele>2618.29</ele>
        <time>2016-10-27T10:09:36Z</time>
      </trkpt>
      <trkpt lat="44.84778" lon="6.1994">
        <ele>2619.25</ele>
        <time>2016-10-27T10:09:53Z</time>
      </trkpt>
      <trkpt lat="44.8478" lon="6.19934">
        <ele>2620.69</ele>
        <time>2016-10-27T10:10:02Z</time>
      </trkpt>
      <trkpt lat="44.8478" lon="6.19928">
        <ele>2622.13</ele>
        <time>2016-10-27T10:10:13Z</time>
      </trkpt>
      <trkpt lat="44.84781" lon="6.19925">
        <ele>2623.58</ele>
        <time>2016-10-27T10:10:24Z</time>
      </trkpt>
      <trkpt lat="44.84782" lon="6.19925">
        <ele>2623.09</ele>
        <time>2016-10-27T10:10:27Z</time>
      </trkpt>
      <trkpt lat="44.84783" lon="6.19913">
        <ele>2624.54</ele>
        <time>2016-10-27T10:10:39Z</time>
      </trkpt>
      <trkpt lat="44.84784" lon="6.19904">
        <ele>2625.5</ele>
        <time>2016-10-27T10:10:48Z</time>
      </trkpt>
      <trkpt lat="44.84788" lon="6.19898">
        <ele>2625.98</ele>
        <time>2016-10-27T10:11:01Z</time>
      </trkpt>
      <trkpt lat="44.84789" lon="6.19896">
        <ele>2625.98</ele>
        <time>2016-10-27T10:11:05Z</time>
      </trkpt>
      <trkpt lat="44.84792" lon="6.19883">
        <ele>2626.46</ele>
        <time>2016-10-27T10:11:18Z</time>
      </trkpt>
      <trkpt lat="44.84794" lon="6.19872">
        <ele>2626.94</ele>
        <time>2016-10-27T10:11:28Z</time>
      </trkpt>
      <trkpt lat="44.84796" lon="6.19861">
        <ele>2627.9</ele>
        <time>2016-10-27T10:11:37Z</time>
      </trkpt>
      <trkpt lat="44.84794" lon="6.19852">
        <ele>2627.9</ele>
        <time>2016-10-27T10:11:47Z</time>
      </trkpt>
      <trkpt lat="44.84789" lon="6.19841">
        <ele>2629.34</ele>
        <time>2016-10-27T10:11:59Z</time>
      </trkpt>
      <trkpt lat="44.84785" lon="6.19827">
        <ele>2629.34</ele>
        <time>2016-10-27T10:12:10Z</time>
      </trkpt>
      <trkpt lat="44.84784" lon="6.19822">
        <ele>2628.38</ele>
        <time>2016-10-27T10:12:15Z</time>
      </trkpt>
      <trkpt lat="44.84779" lon="6.19819">
        <ele>2629.82</ele>
        <time>2016-10-27T10:12:29Z</time>
      </trkpt>
      <trkpt lat="44.84778" lon="6.19819">
        <ele>2629.82</ele>
        <time>2016-10-27T10:12:33Z</time>
      </trkpt>
      <trkpt lat="44.84778" lon="6.19816">
        <ele>2629.34</ele>
        <time>2016-10-27T10:12:40Z</time>
      </trkpt>
      <trkpt lat="44.84774" lon="6.19805">
        <ele>2629.82</ele>
        <time>2016-10-27T10:12:51Z</time>
      </trkpt>
      <trkpt lat="44.84768" lon="6.19792">
        <ele>2631.75</ele>
        <time>2016-10-27T10:13:03Z</time>
      </trkpt>
      <trkpt lat="44.84765" lon="6.19786">
        <ele>2633.67</ele>
        <time>2016-10-27T10:13:12Z</time>
      </trkpt>
      <trkpt lat="44.84764" lon="6.19785">
        <ele>2633.67</ele>
        <time>2016-10-27T10:13:14Z</time>
      </trkpt>
      <trkpt lat="44.84758" lon="6.19777">
        <ele>2634.15</ele>
        <time>2016-10-27T10:13:24Z</time>
      </trkpt>
      <trkpt lat="44.84757" lon="6.19775">
        <ele>2634.63</ele>
        <time>2016-10-27T10:13:27Z</time>
      </trkpt>
      <trkpt lat="44.84751" lon="6.19763">
        <ele>2636.55</ele>
        <time>2016-10-27T10:13:38Z</time>
      </trkpt>
      <trkpt lat="44.84748" lon="6.19761">
        <ele>2637.03</ele>
        <time>2016-10-27T10:13:51Z</time>
      </trkpt>
      <trkpt lat="44.84745" lon="6.19755">
        <ele>2638.48</ele>
        <time>2016-10-27T10:14:03Z</time>
      </trkpt>
      <trkpt lat="44.84739" lon="6.19745">
        <ele>2639.92</ele>
        <time>2016-10-27T10:14:14Z</time>
      </trkpt>
      <trkpt lat="44.84736" lon="6.19739">
        <ele>2641.84</ele>
        <time>2016-10-27T10:14:27Z</time>
      </trkpt>
      <trkpt lat="44.84732" lon="6.19731">
        <ele>2642.32</ele>
        <time>2016-10-27T10:14:43Z</time>
      </trkpt>
      <trkpt lat="44.84727" lon="6.19721">
        <ele>2644.24</ele>
        <time>2016-10-27T10:14:55Z</time>
      </trkpt>
      <trkpt lat="44.84729" lon="6.19718">
        <ele>2645.21</ele>
        <time>2016-10-27T10:15:09Z</time>
      </trkpt>
      <trkpt lat="44.84731" lon="6.19718">
        <ele>2646.17</ele>
        <time>2016-10-27T10:15:15Z</time>
      </trkpt>
      <trkpt lat="44.84736" lon="6.1972">
        <ele>2647.61</ele>
        <time>2016-10-27T10:15:26Z</time>
      </trkpt>
      <trkpt lat="44.8474" lon="6.19721">
        <ele>2649.05</ele>
        <time>2016-10-27T10:15:36Z</time>
      </trkpt>
      <trkpt lat="44.84739" lon="6.19722">
        <ele>2650.01</ele>
        <time>2016-10-27T10:15:49Z</time>
      </trkpt>
      <trkpt lat="44.84736" lon="6.19713">
        <ele>2651.45</ele>
        <time>2016-10-27T10:16:01Z</time>
      </trkpt>
      <trkpt lat="44.84733" lon="6.19701">
        <ele>2652.42</ele>
        <time>2016-10-27T10:16:13Z</time>
      </trkpt>
      <trkpt lat="44.8473" lon="6.19694">
        <ele>2653.38</ele>
        <time>2016-10-27T10:16:25Z</time>
      </trkpt>
      <trkpt lat="44.8473" lon="6.19687">
        <ele>2654.34</ele>
        <time>2016-10-27T10:16:35Z</time>
      </trkpt>
      <trkpt lat="44.84729" lon="6.19687">
        <ele>2655.3</ele>
        <time>2016-10-27T10:16:42Z</time>
      </trkpt>
      <trkpt lat="44.84725" lon="6.19685">
        <ele>2657.22</ele>
        <time>2016-10-27T10:16:54Z</time>
      </trkpt>
      <trkpt lat="44.84726" lon="6.19681">
        <ele>2658.18</ele>
        <time>2016-10-27T10:17:06Z</time>
      </trkpt>
      <trkpt lat="44.84728" lon="6.19677">
        <ele>2659.62</ele>
        <time>2016-10-27T10:17:14Z</time>
      </trkpt>
      <trkpt lat="44.8473" lon="6.19672">
        <ele>2660.59</ele>
        <time>2016-10-27T10:17:25Z</time>
      </trkpt>
      <trkpt lat="44.84736" lon="6.19667">
        <ele>2662.03</ele>
        <time>2016-10-27T10:17:35Z</time>
      </trkpt>
      <trkpt lat="44.84743" lon="6.19668">
        <ele>2663.47</ele>
        <time>2016-10-27T10:17:49Z</time>
      </trkpt>
      <trkpt lat="44.84747" lon="6.1967">
        <ele>2664.43</ele>
        <time>2016-10-27T10:18:01Z</time>
      </trkpt>
      <trkpt lat="44.84749" lon="6.19671">
        <ele>2664.43</ele>
        <time>2016-10-27T10:18:04Z</time>
      </trkpt>
      <trkpt lat="44.84758" lon="6.19681">
        <ele>2665.39</ele>
        <time>2016-10-27T10:18:14Z</time>
      </trkpt>
      <trkpt lat="44.84763" lon="6.19688">
        <ele>2666.83</ele>
        <time>2016-10-27T10:18:24Z</time>
      </trkpt>
      <trkpt lat="44.84766" lon="6.19693">
        <ele>2668.28</ele>
        <time>2016-10-27T10:18:35Z</time>
      </trkpt>
      <trkpt lat="44.84767" lon="6.19694">
        <ele>2668.76</ele>
        <time>2016-10-27T10:18:38Z</time>
      </trkpt>
      <trkpt lat="44.84768" lon="6.19689">
        <ele>2670.2</ele>
        <time>2016-10-27T10:18:48Z</time>
      </trkpt>
      <trkpt lat="44.84766" lon="6.1968">
        <ele>2671.16</ele>
        <time>2016-10-27T10:19:00Z</time>
      </trkpt>
      <trkpt lat="44.84765" lon="6.19675">
        <ele>2672.12</ele>
        <time>2016-10-27T10:19:14Z</time>
      </trkpt>
      <trkpt lat="44.84768" lon="6.19675">
        <ele>2674.04</ele>
        <time>2016-10-27T10:19:27Z</time>
      </trkpt>
      <trkpt lat="44.84769" lon="6.19675">
        <ele>2675.01</ele>
        <time>2016-10-27T10:19:34Z</time>
      </trkpt>
      <trkpt lat="44.84776" lon="6.19677">
        <ele>2676.93</ele>
        <time>2016-10-27T10:19:47Z</time>
      </trkpt>
      <trkpt lat="44.84779" lon="6.19683">
        <ele>2678.85</ele>
        <time>2016-10-27T10:19:57Z</time>
      </trkpt>
      <trkpt lat="44.84778" lon="6.19681">
        <ele>2679.33</ele>
        <time>2016-10-27T10:20:05Z</time>
      </trkpt>
      <trkpt lat="44.84776" lon="6.19677">
        <ele>2680.29</ele>
        <time>2016-10-27T10:20:11Z</time>
      </trkpt>
      <trkpt lat="44.84775" lon="6.19669">
        <ele>2681.73</ele>
        <time>2016-10-27T10:20:22Z</time>
      </trkpt>
      <trkpt lat="44.84773" lon="6.19658">
        <ele>2683.18</ele>
        <time>2016-10-27T10:20:34Z</time>
      </trkpt>
      <trkpt lat="44.84775" lon="6.19656">
        <ele>2685.1</ele>
        <time>2016-10-27T10:20:44Z</time>
      </trkpt>
      <trkpt lat="44.84776" lon="6.19654">
        <ele>2687.02</ele>
        <time>2016-10-27T10:21:00Z</time>
      </trkpt>
      <trkpt lat="44.84777" lon="6.19652">
        <ele>2687.5</ele>
        <time>2016-10-27T10:21:13Z</time>
      </trkpt>
      <trkpt lat="44.84776" lon="6.19651">
        <ele>2687.5</ele>
        <time>2016-10-27T10:21:37Z</time>
      </trkpt>
      <trkpt lat="44.84776" lon="6.19649">
        <ele>2687.98</ele>
        <time>2016-10-27T10:22:06Z</time>
      </trkpt>
      <trkpt lat="44.84776" lon="6.19649">
        <ele>2687.98</ele>
        <time>2016-10-27T10:22:25Z</time>
      </trkpt>
      <trkpt lat="44.84776" lon="6.1965">
        <ele>2687.98</ele>
        <time>2016-10-27T10:22:42Z</time>
      </trkpt>
      <trkpt lat="44.84775" lon="6.19649">
        <ele>2687.98</ele>
        <time>2016-10-27T10:23:12Z</time>
      </trkpt>
      <trkpt lat="44.84775" lon="6.19649">
        <ele>2688.46</ele>
        <time>2016-10-27T10:23:32Z</time>
      </trkpt>
      <trkpt lat="44.84776" lon="6.19648">
        <ele>2687.5</ele>
        <time>2016-10-27T10:23:51Z</time>
      </trkpt>
      <trkpt lat="44.84776" lon="6.19647">
        <ele>2686.54</ele>
        <time>2016-10-27T10:24:09Z</time>
      </trkpt>
      <trkpt lat="44.84777" lon="6.19644">
        <ele>2686.06</ele>
        <time>2016-10-27T10:24:27Z</time>
      </trkpt>
      <trkpt lat="44.84777" lon="6.19645">
        <ele>2685.1</ele>
        <time>2016-10-27T10:24:44Z</time>
      </trkpt>
      <trkpt lat="44.84776" lon="6.19641">
        <ele>2684.14</ele>
        <time>2016-10-27T10:25:03Z</time>
      </trkpt>
      <trkpt lat="44.84777" lon="6.19638">
        <ele>2683.18</ele>
        <time>2016-10-27T10:25:17Z</time>
      </trkpt>
      <trkpt lat="44.84778" lon="6.19635">
        <ele>2681.73</ele>
        <time>2016-10-27T10:25:31Z</time>
      </trkpt>
      <trkpt lat="44.8478" lon="6.19635">
        <ele>2680.29</ele>
        <time>2016-10-27T10:25:40Z</time>
      </trkpt>
      <trkpt lat="44.84784" lon="6.19633">
        <ele>2679.33</ele>
        <time>2016-10-27T10:25:51Z</time>
      </trkpt>
      <trkpt lat="44.84787" lon="6.19626">
        <ele>2677.89</ele>
        <time>2016-10-27T10:26:04Z</time>
      </trkpt>
      <trkpt lat="44.84787" lon="6.19626">
        <ele>2677.89</ele>
        <time>2016-10-27T10:26:05Z</time>
      </trkpt>
      <trkpt lat="44.84791" lon="6.19621">
        <ele>2675.97</ele>
        <time>2016-10-27T10:26:11Z</time>
      </trkpt>
      <trkpt lat="44.84799" lon="6.19615">
        <ele>2675.01</ele>
        <time>2016-10-27T10:26:20Z</time>
      </trkpt>
      <trkpt lat="44.84799" lon="6.19611">
        <ele>2673.56</ele>
        <time>2016-10-27T10:26:31Z</time>
      </trkpt>
      <trkpt lat="44.84799" lon="6.19611">
        <ele>2673.56</ele>
        <time>2016-10-27T10:26:32Z</time>
      </trkpt>
      <trkpt lat="44.84798" lon="6.19603">
        <ele>2672.6</ele>
        <time>2016-10-27T10:26:38Z</time>
      </trkpt>
      <trkpt lat="44.84802" lon="6.19594">
        <ele>2669.72</ele>
        <time>2016-10-27T10:26:48Z</time>
      </trkpt>
      <trkpt lat="44.84799" lon="6.19584">
        <ele>2667.31</ele>
        <time>2016-10-27T10:26:57Z</time>
      </trkpt>
      <trkpt lat="44.84803" lon="6.19568">
        <ele>2664.43</ele>
        <time>2016-10-27T10:27:10Z</time>
      </trkpt>
      <trkpt lat="44.84804" lon="6.19568">
        <ele>2664.91</ele>
        <time>2016-10-27T10:27:27Z</time>
      </trkpt>
      <trkpt lat="44.84803" lon="6.19565">
        <ele>2664.91</ele>
        <time>2016-10-27T10:27:49Z</time>
      </trkpt>
      <trkpt lat="44.84802" lon="6.19563">
        <ele>2664.91</ele>
        <time>2016-10-27T10:28:10Z</time>
      </trkpt>
      <trkpt lat="44.84801" lon="6.19562">
        <ele>2664.91</ele>
        <time>2016-10-27T10:28:38Z</time>
      </trkpt>
      <trkpt lat="44.848" lon="6.19557">
        <ele>2662.99</ele>
        <time>2016-10-27T10:28:57Z</time>
      </trkpt>
      <trkpt lat="44.84794" lon="6.19542">
        <ele>2659.62</ele>
        <time>2016-10-27T10:29:10Z</time>
      </trkpt>
      <trkpt lat="44.84794" lon="6.19535">
        <ele>2657.22</ele>
        <time>2016-10-27T10:29:23Z</time>
      </trkpt>
      <trkpt lat="44.84793" lon="6.19541">
        <ele>2654.82</ele>
        <time>2016-10-27T10:29:32Z</time>
      </trkpt>
      <trkpt lat="44.84788" lon="6.19551">
        <ele>2652.9</ele>
        <time>2016-10-27T10:29:46Z</time>
      </trkpt>
      <trkpt lat="44.84783" lon="6.19558">
        <ele>2650.49</ele>
        <time>2016-10-27T10:30:04Z</time>
      </trkpt>
      <trkpt lat="44.84777" lon="6.19567">
        <ele>2647.61</ele>
        <time>2016-10-27T10:30:15Z</time>
      </trkpt>
      <trkpt lat="44.84776" lon="6.1957">
        <ele>2647.13</ele>
        <time>2016-10-27T10:30:18Z</time>
      </trkpt>
      <trkpt lat="44.84769" lon="6.19561">
        <ele>2644.72</ele>
        <time>2016-10-27T10:30:26Z</time>
      </trkpt>
      <trkpt lat="44.84766" lon="6.19555">
        <ele>2643.28</ele>
        <time>2016-10-27T10:30:31Z</time>
      </trkpt>
      <trkpt lat="44.84765" lon="6.1955">
        <ele>2641.84</ele>
        <time>2016-10-27T10:30:36Z</time>
      </trkpt>
      <trkpt lat="44.84764" lon="6.19543">
        <ele>2640.4</ele>
        <time>2016-10-27T10:30:41Z</time>
      </trkpt>
      <trkpt lat="44.84761" lon="6.19531">
        <ele>2637.51</ele>
        <time>2016-10-27T10:30:52Z</time>
      </trkpt>
      <trkpt lat="44.84752" lon="6.1952">
        <ele>2634.63</ele>
        <time>2016-10-27T10:31:02Z</time>
      </trkpt>
      <trkpt lat="44.84748" lon="6.19515">
        <ele>2632.71</ele>
        <time>2016-10-27T10:31:08Z</time>
      </trkpt>
      <trkpt lat="44.84741" lon="6.19506">
        <ele>2629.34</ele>
        <time>2016-10-27T10:31:20Z</time>
      </trkpt>
      <trkpt lat="44.84744" lon="6.19487">
        <ele>2625.98</ele>
        <time>2016-10-27T10:31:32Z</time>
      </trkpt>
      <trkpt lat="44.84743" lon="6.19486">
        <ele>2625.5</ele>
        <time>2016-10-27T10:31:33Z</time>
      </trkpt>
      <trkpt lat="44.84747" lon="6.19474">
        <ele>2623.58</ele>
        <time>2016-10-27T10:31:38Z</time>
      </trkpt>
      <trkpt lat="44.84747" lon="6.19463">
        <ele>2621.17</ele>
        <time>2016-10-27T10:31:48Z</time>
      </trkpt>
      <trkpt lat="44.84743" lon="6.19462">
        <ele>2618.29</ele>
        <time>2016-10-27T10:31:59Z</time>
      </trkpt>
      <trkpt lat="44.8474" lon="6.19464">
        <ele>2617.81</ele>
        <time>2016-10-27T10:32:02Z</time>
      </trkpt>
      <trkpt lat="44.84729" lon="6.19472">
        <ele>2615.4</ele>
        <time>2016-10-27T10:32:12Z</time>
      </trkpt>
      <trkpt lat="44.84725" lon="6.19471">
        <ele>2613.96</ele>
        <time>2016-10-27T10:32:27Z</time>
      </trkpt>
      <trkpt lat="44.84725" lon="6.1947">
        <ele>2613.96</ele>
        <time>2016-10-27T10:32:36Z</time>
      </trkpt>
      <trkpt lat="44.84717" lon="6.19477">
        <ele>2611.56</ele>
        <time>2016-10-27T10:32:44Z</time>
      </trkpt>
      <trkpt lat="44.84705" lon="6.19489">
        <ele>2609.16</ele>
        <time>2016-10-27T10:32:56Z</time>
      </trkpt>
      <trkpt lat="44.84704" lon="6.19483">
        <ele>2608.67</ele>
        <time>2016-10-27T10:32:59Z</time>
      </trkpt>
      <trkpt lat="44.847" lon="6.19467">
        <ele>2607.23</ele>
        <time>2016-10-27T10:33:07Z</time>
      </trkpt>
      <trkpt lat="44.84698" lon="6.19456">
        <ele>2604.83</ele>
        <time>2016-10-27T10:33:13Z</time>
      </trkpt>
      <trkpt lat="44.84697" lon="6.19454">
        <ele>2604.35</ele>
        <time>2016-10-27T10:33:15Z</time>
      </trkpt>
      <trkpt lat="44.84699" lon="6.1945">
        <ele>2603.87</ele>
        <time>2016-10-27T10:33:17Z</time>
      </trkpt>
      <trkpt lat="44.84699" lon="6.19433">
        <ele>2601.46</ele>
        <time>2016-10-27T10:33:29Z</time>
      </trkpt>
      <trkpt lat="44.84701" lon="6.1943">
        <ele>2600.98</ele>
        <time>2016-10-27T10:33:47Z</time>
      </trkpt>
      <trkpt lat="44.84703" lon="6.1943">
        <ele>2600.98</ele>
        <time>2016-10-27T10:34:12Z</time>
      </trkpt>
      <trkpt lat="44.84704" lon="6.19429">
        <ele>2600.5</ele>
        <time>2016-10-27T10:34:24Z</time>
      </trkpt>
      <trkpt lat="44.84707" lon="6.19426">
        <ele>2599.54</ele>
        <time>2016-10-27T10:34:27Z</time>
      </trkpt>
      <trkpt lat="44.84712" lon="6.19411">
        <ele>2597.14</ele>
        <time>2016-10-27T10:34:39Z</time>
      </trkpt>
      <trkpt lat="44.84714" lon="6.19407">
        <ele>2596.66</ele>
        <time>2016-10-27T10:34:41Z</time>
      </trkpt>
      <trkpt lat="44.84717" lon="6.19395">
        <ele>2593.77</ele>
        <time>2016-10-27T10:34:52Z</time>
      </trkpt>
      <trkpt lat="44.84719" lon="6.19391">
        <ele>2593.29</ele>
        <time>2016-10-27T10:34:54Z</time>
      </trkpt>
      <trkpt lat="44.84722" lon="6.19388">
        <ele>2592.33</ele>
        <time>2016-10-27T10:34:58Z</time>
      </trkpt>
      <trkpt lat="44.84728" lon="6.19386">
        <ele>2590.89</ele>
        <time>2016-10-27T10:35:05Z</time>
      </trkpt>
      <trkpt lat="44.84733" lon="6.19382">
        <ele>2589.93</ele>
        <time>2016-10-27T10:35:09Z</time>
      </trkpt>
      <trkpt lat="44.84737" lon="6.19372">
        <ele>2587.04</ele>
        <time>2016-10-27T10:35:20Z</time>
      </trkpt>
      <trkpt lat="44.84746" lon="6.19364">
        <ele>2586.56</ele>
        <time>2016-10-27T10:35:31Z</time>
      </trkpt>
      <trkpt lat="44.84752" lon="6.19359">
        <ele>2585.6</ele>
        <time>2016-10-27T10:35:43Z</time>
      </trkpt>
      <trkpt lat="44.84752" lon="6.19354">
        <ele>2584.16</ele>
        <time>2016-10-27T10:35:53Z</time>
      </trkpt>
      <trkpt lat="44.8475" lon="6.19348">
        <ele>2583.2</ele>
        <time>2016-10-27T10:35:59Z</time>
      </trkpt>
      <trkpt lat="44.8475" lon="6.19346">
        <ele>2582.72</ele>
        <time>2016-10-27T10:36:01Z</time>
      </trkpt>
      <trkpt lat="44.84753" lon="6.19331">
        <ele>2580.32</ele>
        <time>2016-10-27T10:36:11Z</time>
      </trkpt>
      <trkpt lat="44.84753" lon="6.19328">
        <ele>2579.35</ele>
        <time>2016-10-27T10:36:13Z</time>
      </trkpt>
      <trkpt lat="44.84749" lon="6.19329">
        <ele>2577.91</ele>
        <time>2016-10-27T10:36:18Z</time>
      </trkpt>
      <trkpt lat="44.84746" lon="6.19334">
        <ele>2577.43</ele>
        <time>2016-10-27T10:36:24Z</time>
      </trkpt>
      <trkpt lat="44.84743" lon="6.19328">
        <ele>2574.55</ele>
        <time>2016-10-27T10:36:33Z</time>
      </trkpt>
      <trkpt lat="44.84738" lon="6.19326">
        <ele>2571.66</ele>
        <time>2016-10-27T10:36:42Z</time>
      </trkpt>
      <trkpt lat="44.84732" lon="6.19326">
        <ele>2568.78</ele>
        <time>2016-10-27T10:36:51Z</time>
      </trkpt>
      <trkpt lat="44.84732" lon="6.19327">
        <ele>2568.78</ele>
        <time>2016-10-27T10:37:07Z</time>
      </trkpt>
      <trkpt lat="44.84731" lon="6.19326">
        <ele>2568.3</ele>
        <time>2016-10-27T10:37:11Z</time>
      </trkpt>
      <trkpt lat="44.8473" lon="6.19313">
        <ele>2566.38</ele>
        <time>2016-10-27T10:37:20Z</time>
      </trkpt>
      <trkpt lat="44.84726" lon="6.19313">
        <ele>2563.97</ele>
        <time>2016-10-27T10:37:28Z</time>
      </trkpt>
      <trkpt lat="44.84723" lon="6.19313">
        <ele>2563.97</ele>
        <time>2016-10-27T10:37:31Z</time>
      </trkpt>
      <trkpt lat="44.84721" lon="6.19317">
        <ele>2562.05</ele>
        <time>2016-10-27T10:37:36Z</time>
      </trkpt>
      <trkpt lat="44.84714" lon="6.19324">
        <ele>2559.17</ele>
        <time>2016-10-27T10:37:48Z</time>
      </trkpt>
      <trkpt lat="44.84709" lon="6.19319">
        <ele>2557.24</ele>
        <time>2016-10-27T10:38:04Z</time>
      </trkpt>
      <trkpt lat="44.84709" lon="6.19318">
        <ele>2557.24</ele>
        <time>2016-10-27T10:38:05Z</time>
      </trkpt>
      <trkpt lat="44.8471" lon="6.19304">
        <ele>2554.36</ele>
        <time>2016-10-27T10:38:15Z</time>
      </trkpt>
      <trkpt lat="44.8471" lon="6.19301">
        <ele>2553.88</ele>
        <time>2016-10-27T10:38:18Z</time>
      </trkpt>
      <trkpt lat="44.84713" lon="6.19292">
        <ele>2551.48</ele>
        <time>2016-10-27T10:38:27Z</time>
      </trkpt>
      <trkpt lat="44.84713" lon="6.19281">
        <ele>2548.11</ele>
        <time>2016-10-27T10:38:37Z</time>
      </trkpt>
      <trkpt lat="44.84713" lon="6.19282">
        <ele>2547.15</ele>
        <time>2016-10-27T10:38:39Z</time>
      </trkpt>
      <trkpt lat="44.84706" lon="6.19287">
        <ele>2544.27</ele>
        <time>2016-10-27T10:38:50Z</time>
      </trkpt>
      <trkpt lat="44.847" lon="6.1929">
        <ele>2541.38</ele>
        <time>2016-10-27T10:38:57Z</time>
      </trkpt>
      <trkpt lat="44.84696" lon="6.19292">
        <ele>2539.46</ele>
        <time>2016-10-27T10:39:02Z</time>
      </trkpt>
      <trkpt lat="44.8469" lon="6.19295">
        <ele>2537.06</ele>
        <time>2016-10-27T10:39:11Z</time>
      </trkpt>
      <trkpt lat="44.84685" lon="6.19298">
        <ele>2535.61</ele>
        <time>2016-10-27T10:39:15Z</time>
      </trkpt>
      <trkpt lat="44.84673" lon="6.19303">
        <ele>2532.73</ele>
        <time>2016-10-27T10:39:27Z</time>
      </trkpt>
      <trkpt lat="44.84667" lon="6.19302">
        <ele>2532.25</ele>
        <time>2016-10-27T10:39:31Z</time>
      </trkpt>
      <trkpt lat="44.84665" lon="6.19302">
        <ele>2530.81</ele>
        <time>2016-10-27T10:39:33Z</time>
      </trkpt>
      <trkpt lat="44.84664" lon="6.193">
        <ele>2529.85</ele>
        <time>2016-10-27T10:39:38Z</time>
      </trkpt>
      <trkpt lat="44.84657" lon="6.19304">
        <ele>2530.81</ele>
        <time>2016-10-27T10:39:54Z</time>
      </trkpt>
      <trkpt lat="44.84657" lon="6.19306">
        <ele>2530.81</ele>
        <time>2016-10-27T10:40:18Z</time>
      </trkpt>
      <trkpt lat="44.84657" lon="6.19303">
        <ele>2530.81</ele>
        <time>2016-10-27T10:40:30Z</time>
      </trkpt>
      <trkpt lat="44.84666" lon="6.19294">
        <ele>2528.89</ele>
        <time>2016-10-27T10:40:40Z</time>
      </trkpt>
      <trkpt lat="44.84667" lon="6.19287">
        <ele>2526.96</ele>
        <time>2016-10-27T10:40:45Z</time>
      </trkpt>
      <trkpt lat="44.84655" lon="6.19291">
        <ele>2523.6</ele>
        <time>2016-10-27T10:40:57Z</time>
      </trkpt>
      <trkpt lat="44.84647" lon="6.19292">
        <ele>2520.71</ele>
        <time>2016-10-27T10:41:08Z</time>
      </trkpt>
      <trkpt lat="44.84643" lon="6.19293">
        <ele>2519.27</ele>
        <time>2016-10-27T10:41:13Z</time>
      </trkpt>
      <trkpt lat="44.84635" lon="6.19294">
        <ele>2516.39</ele>
        <time>2016-10-27T10:41:24Z</time>
      </trkpt>
      <trkpt lat="44.84632" lon="6.19297">
        <ele>2515.43</ele>
        <time>2016-10-27T10:41:29Z</time>
      </trkpt>
      <trkpt lat="44.84631" lon="6.19299">
        <ele>2513.98</ele>
        <time>2016-10-27T10:41:47Z</time>
      </trkpt>
      <trkpt lat="44.84623" lon="6.19304">
        <ele>2511.1</ele>
        <time>2016-10-27T10:42:00Z</time>
      </trkpt>
      <trkpt lat="44.84618" lon="6.19311">
        <ele>2508.22</ele>
        <time>2016-10-27T10:42:12Z</time>
      </trkpt>
      <trkpt lat="44.84613" lon="6.19318">
        <ele>2504.85</ele>
        <time>2016-10-27T10:42:24Z</time>
      </trkpt>
      <trkpt lat="44.84605" lon="6.19324">
        <ele>2502.45</ele>
        <time>2016-10-27T10:42:37Z</time>
      </trkpt>
      <trkpt lat="44.84604" lon="6.19326">
        <ele>2501.97</ele>
        <time>2016-10-27T10:42:41Z</time>
      </trkpt>
      <trkpt lat="44.84597" lon="6.19333">
        <ele>2499.57</ele>
        <time>2016-10-27T10:42:53Z</time>
      </trkpt>
      <trkpt lat="44.84595" lon="6.19338">
        <ele>2498.12</ele>
        <time>2016-10-27T10:42:59Z</time>
      </trkpt>
      <trkpt lat="44.84582" lon="6.19349">
        <ele>2495.24</ele>
        <time>2016-10-27T10:43:12Z</time>
      </trkpt>
      <trkpt lat="44.84577" lon="6.19349">
        <ele>2493.8</ele>
        <time>2016-10-27T10:43:17Z</time>
      </trkpt>
      <trkpt lat="44.84572" lon="6.19347">
        <ele>2492.84</ele>
        <time>2016-10-27T10:43:35Z</time>
      </trkpt>
      <trkpt lat="44.84573" lon="6.1935">
        <ele>2492.84</ele>
        <time>2016-10-27T10:43:49Z</time>
      </trkpt>
      <trkpt lat="44.84567" lon="6.19345">
        <ele>2491.39</ele>
        <time>2016-10-27T10:44:06Z</time>
      </trkpt>
      <trkpt lat="44.84569" lon="6.19345">
        <ele>2492.36</ele>
        <time>2016-10-27T10:44:13Z</time>
      </trkpt>
      <trkpt lat="44.84572" lon="6.19341">
        <ele>2491.39</ele>
        <time>2016-10-27T10:44:27Z</time>
      </trkpt>
      <trkpt lat="44.84573" lon="6.19341">
        <ele>2489.95</ele>
        <time>2016-10-27T10:44:44Z</time>
      </trkpt>
      <trkpt lat="44.84572" lon="6.19341">
        <ele>2488.99</ele>
        <time>2016-10-27T10:45:01Z</time>
      </trkpt>
      <trkpt lat="44.84571" lon="6.19342">
        <ele>2489.47</ele>
        <time>2016-10-27T10:45:22Z</time>
      </trkpt>
      <trkpt lat="44.84571" lon="6.19343">
        <ele>2488.99</ele>
        <time>2016-10-27T10:45:54Z</time>
      </trkpt>
      <trkpt lat="44.84571" lon="6.19342">
        <ele>2488.99</ele>
        <time>2016-10-27T10:46:16Z</time>
      </trkpt>
      <trkpt lat="44.84571" lon="6.19343">
        <ele>2488.99</ele>
        <time>2016-10-27T10:46:47Z</time>
      </trkpt>
      <trkpt lat="44.84571" lon="6.19342">
        <ele>2488.99</ele>
        <time>2016-10-27T10:47:08Z</time>
      </trkpt>
      <trkpt lat="44.84571" lon="6.19341">
        <ele>2488.99</ele>
        <time>2016-10-27T10:47:34Z</time>
      </trkpt>
      <trkpt lat="44.84571" lon="6.1934">
        <ele>2488.99</ele>
        <time>2016-10-27T10:47:57Z</time>
      </trkpt>
      <trkpt lat="44.84571" lon="6.19339">
        <ele>2488.99</ele>
        <time>2016-10-27T10:48:27Z</time>
      </trkpt>
      <trkpt lat="44.84571" lon="6.19339">
        <ele>2488.99</ele>
        <time>2016-10-27T10:48:59Z</time>
      </trkpt>
      <trkpt lat="44.84571" lon="6.19339">
        <ele>2488.99</ele>
        <time>2016-10-27T10:49:28Z</time>
      </trkpt>
      <trkpt lat="44.84571" lon="6.19338">
        <ele>2488.99</ele>
        <time>2016-10-27T10:49:56Z</time>
      </trkpt>
      <trkpt lat="44.8457" lon="6.19339">
        <ele>2488.51</ele>
        <time>2016-10-27T10:50:25Z</time>
      </trkpt>
      <trkpt lat="44.84571" lon="6.19338">
        <ele>2488.51</ele>
        <time>2016-10-27T10:50:57Z</time>
      </trkpt>
      <trkpt lat="44.84571" lon="6.19338">
        <ele>2489.47</ele>
        <time>2016-10-27T10:51:33Z</time>
      </trkpt>
      <trkpt lat="44.8457" lon="6.19338">
        <ele>2488.51</ele>
        <time>2016-10-27T10:52:01Z</time>
      </trkpt>
      <trkpt lat="44.8457" lon="6.19338">
        <ele>2488.51</ele>
        <time>2016-10-27T10:52:35Z</time>
      </trkpt>
      <trkpt lat="44.8457" lon="6.19337">
        <ele>2488.51</ele>
        <time>2016-10-27T10:53:06Z</time>
      </trkpt>
      <trkpt lat="44.8457" lon="6.19338">
        <ele>2488.51</ele>
        <time>2016-10-27T10:53:36Z</time>
      </trkpt>
      <trkpt lat="44.8457" lon="6.19337">
        <ele>2488.51</ele>
        <time>2016-10-27T10:54:09Z</time>
      </trkpt>
      <trkpt lat="44.8457" lon="6.19338">
        <ele>2488.51</ele>
        <time>2016-10-27T10:54:41Z</time>
      </trkpt>
      <trkpt lat="44.8457" lon="6.19338">
        <ele>2488.03</ele>
        <time>2016-10-27T10:55:10Z</time>
      </trkpt>
      <trkpt lat="44.8457" lon="6.19337">
        <ele>2488.03</ele>
        <time>2016-10-27T10:55:42Z</time>
      </trkpt>
      <trkpt lat="44.8457" lon="6.19337">
        <ele>2488.03</ele>
        <time>2016-10-27T10:56:12Z</time>
      </trkpt>
      <trkpt lat="44.8457" lon="6.19337">
        <ele>2487.55</ele>
        <time>2016-10-27T10:56:44Z</time>
      </trkpt>
      <trkpt lat="44.8457" lon="6.19337">
        <ele>2487.55</ele>
        <time>2016-10-27T10:57:19Z</time>
      </trkpt>
      <trkpt lat="44.8457" lon="6.19337">
        <ele>2487.55</ele>
        <time>2016-10-27T10:57:55Z</time>
      </trkpt>
      <trkpt lat="44.8457" lon="6.19337">
        <ele>2487.55</ele>
        <time>2016-10-27T10:58:28Z</time>
      </trkpt>
      <trkpt lat="44.8457" lon="6.19337">
        <ele>2487.55</ele>
        <time>2016-10-27T10:59:02Z</time>
      </trkpt>
      <trkpt lat="44.8457" lon="6.19336">
        <ele>2487.55</ele>
        <time>2016-10-27T10:59:32Z</time>
      </trkpt>
      <trkpt lat="44.8457" lon="6.19337">
        <ele>2487.55</ele>
        <time>2016-10-27T11:00:04Z</time>
      </trkpt>
      <trkpt lat="44.84569" lon="6.19337">
        <ele>2487.55</ele>
        <time>2016-10-27T11:00:34Z</time>
      </trkpt>
      <trkpt lat="44.84569" lon="6.19336">
        <ele>2487.07</ele>
        <time>2016-10-27T11:01:06Z</time>
      </trkpt>
      <trkpt lat="44.84569" lon="6.19336">
        <ele>2487.07</ele>
        <time>2016-10-27T11:01:40Z</time>
      </trkpt>
      <trkpt lat="44.84568" lon="6.19336">
        <ele>2486.59</ele>
        <time>2016-10-27T11:02:22Z</time>
      </trkpt>
      <trkpt lat="44.84569" lon="6.19336">
        <ele>2486.59</ele>
        <time>2016-10-27T11:02:58Z</time>
      </trkpt>
      <trkpt lat="44.84569" lon="6.19336">
        <ele>2486.59</ele>
        <time>2016-10-27T11:03:28Z</time>
      </trkpt>
      <trkpt lat="44.84569" lon="6.19336">
        <ele>2486.11</ele>
        <time>2016-10-27T11:04:05Z</time>
      </trkpt>
      <trkpt lat="44.84569" lon="6.19336">
        <ele>2486.11</ele>
        <time>2016-10-27T11:04:38Z</time>
      </trkpt>
      <trkpt lat="44.84569" lon="6.19337">
        <ele>2486.11</ele>
        <time>2016-10-27T11:05:17Z</time>
      </trkpt>
      <trkpt lat="44.84569" lon="6.19337">
        <ele>2486.11</ele>
        <time>2016-10-27T11:05:51Z</time>
      </trkpt>
      <trkpt lat="44.84569" lon="6.19337">
        <ele>2486.11</ele>
        <time>2016-10-27T11:06:28Z</time>
      </trkpt>
      <trkpt lat="44.84569" lon="6.19338">
        <ele>2486.11</ele>
        <time>2016-10-27T11:06:59Z</time>
      </trkpt>
      <trkpt lat="44.84569" lon="6.19337">
        <ele>2486.11</ele>
        <time>2016-10-27T11:07:35Z</time>
      </trkpt>
      <trkpt lat="44.84569" lon="6.19337">
        <ele>2486.11</ele>
        <time>2016-10-27T11:08:07Z</time>
      </trkpt>
      <trkpt lat="44.84569" lon="6.19337">
        <ele>2486.11</ele>
        <time>2016-10-27T11:08:43Z</time>
      </trkpt>
      <trkpt lat="44.84569" lon="6.19338">
        <ele>2485.63</ele>
        <time>2016-10-27T11:09:19Z</time>
      </trkpt>
      <trkpt lat="44.84569" lon="6.19337">
        <ele>2485.63</ele>
        <time>2016-10-27T11:09:54Z</time>
      </trkpt>
      <trkpt lat="44.84569" lon="6.19337">
        <ele>2485.15</ele>
        <time>2016-10-27T11:10:33Z</time>
      </trkpt>
      <trkpt lat="44.84569" lon="6.19336">
        <ele>2485.15</ele>
        <time>2016-10-27T11:11:12Z</time>
      </trkpt>
      <trkpt lat="44.84569" lon="6.19336">
        <ele>2485.15</ele>
        <time>2016-10-27T11:11:47Z</time>
      </trkpt>
      <trkpt lat="44.84569" lon="6.19336">
        <ele>2484.66</ele>
        <time>2016-10-27T11:12:29Z</time>
      </trkpt>
      <trkpt lat="44.84569" lon="6.19336">
        <ele>2484.66</ele>
        <time>2016-10-27T11:13:11Z</time>
      </trkpt>
      <trkpt lat="44.84569" lon="6.19335">
        <ele>2484.66</ele>
        <time>2016-10-27T11:13:45Z</time>
      </trkpt>
      <trkpt lat="44.84569" lon="6.19335">
        <ele>2484.66</ele>
        <time>2016-10-27T11:14:19Z</time>
      </trkpt>
      <trkpt lat="44.84569" lon="6.19335">
        <ele>2484.18</ele>
        <time>2016-10-27T11:14:53Z</time>
      </trkpt>
      <trkpt lat="44.84569" lon="6.19335">
        <ele>2484.18</ele>
        <time>2016-10-27T11:15:22Z</time>
      </trkpt>
      <trkpt lat="44.84569" lon="6.19335">
        <ele>2484.66</ele>
        <time>2016-10-27T11:15:49Z</time>
      </trkpt>
      <trkpt lat="44.84569" lon="6.19335">
        <ele>2484.66</ele>
        <time>2016-10-27T11:16:15Z</time>
      </trkpt>
      <trkpt lat="44.84569" lon="6.19334">
        <ele>2484.66</ele>
        <time>2016-10-27T11:16:41Z</time>
      </trkpt>
      <trkpt lat="44.84569" lon="6.19334">
        <ele>2479.86</ele>
        <time>2016-10-27T11:16:46Z</time>
      </trkpt>
      <trkpt lat="44.84569" lon="6.19334">
        <ele>2488.51</ele>
        <time>2016-10-27T11:16:47Z</time>
      </trkpt>
      <trkpt lat="44.84569" lon="6.19335">
        <ele>2484.66</ele>
        <time>2016-10-27T11:16:49Z</time>
      </trkpt>
      <trkpt lat="44.84569" lon="6.19335">
        <ele>2484.66</ele>
        <time>2016-10-27T11:16:50Z</time>
      </trkpt>
      <trkpt lat="44.84569" lon="6.19335">
        <ele>2484.18</ele>
        <time>2016-10-27T11:17:18Z</time>
      </trkpt>
      <trkpt lat="44.84569" lon="6.19335">
        <ele>2484.18</ele>
        <time>2016-10-27T11:17:45Z</time>
      </trkpt>
      <trkpt lat="44.8457" lon="6.19335">
        <ele>2484.18</ele>
        <time>2016-10-27T11:18:17Z</time>
      </trkpt>
      <trkpt lat="44.8457" lon="6.19334">
        <ele>2484.18</ele>
        <time>2016-10-27T11:18:33Z</time>
      </trkpt>
      <trkpt lat="44.8457" lon="6.19334">
        <ele>2484.18</ele>
        <time>2016-10-27T11:18:56Z</time>
      </trkpt>
      <trkpt lat="44.84569" lon="6.19339">
        <ele>2484.66</ele>
        <time>2016-10-27T11:19:08Z</time>
      </trkpt>
      <trkpt lat="44.84569" lon="6.19339">
        <ele>2485.15</ele>
        <time>2016-10-27T11:19:10Z</time>
      </trkpt>
      <trkpt lat="44.84568" lon="6.19348">
        <ele>2485.63</ele>
        <time>2016-10-27T11:19:22Z</time>
      </trkpt>
      <trkpt lat="44.84569" lon="6.19353">
        <ele>2486.11</ele>
        <time>2016-10-27T11:19:37Z</time>
      </trkpt>
      <trkpt lat="44.84569" lon="6.19353">
        <ele>2485.63</ele>
        <time>2016-10-27T11:19:44Z</time>
      </trkpt>
      <trkpt lat="44.84565" lon="6.19361">
        <ele>2483.22</ele>
        <time>2016-10-27T11:19:54Z</time>
      </trkpt>
      <trkpt lat="44.84558" lon="6.1936">
        <ele>2482.26</ele>
        <time>2016-10-27T11:20:09Z</time>
      </trkpt>
      <trkpt lat="44.84554" lon="6.19362">
        <ele>2479.38</ele>
        <time>2016-10-27T11:20:20Z</time>
      </trkpt>
      <trkpt lat="44.84551" lon="6.19365">
        <ele>2478.42</ele>
        <time>2016-10-27T11:20:23Z</time>
      </trkpt>
      <trkpt lat="44.84549" lon="6.19367">
        <ele>2478.42</ele>
        <time>2016-10-27T11:20:25Z</time>
      </trkpt>
      <trkpt lat="44.84546" lon="6.19372">
        <ele>2477.45</ele>
        <time>2016-10-27T11:20:30Z</time>
      </trkpt>
      <trkpt lat="44.8454" lon="6.19378">
        <ele>2475.05</ele>
        <time>2016-10-27T11:20:43Z</time>
      </trkpt>
      <trkpt lat="44.84538" lon="6.19376">
        <ele>2475.05</ele>
        <time>2016-10-27T11:20:46Z</time>
      </trkpt>
      <trkpt lat="44.84536" lon="6.19363">
        <ele>2472.17</ele>
        <time>2016-10-27T11:20:57Z</time>
      </trkpt>
      <trkpt lat="44.84539" lon="6.19355">
        <ele>2470.73</ele>
        <time>2016-10-27T11:21:10Z</time>
      </trkpt>
      <trkpt lat="44.8454" lon="6.19343">
        <ele>2468.32</ele>
        <time>2016-10-27T11:21:20Z</time>
      </trkpt>
      <trkpt lat="44.84535" lon="6.19326">
        <ele>2465.44</ele>
        <time>2016-10-27T11:21:32Z</time>
      </trkpt>
      <trkpt lat="44.84537" lon="6.19317">
        <ele>2463.52</ele>
        <time>2016-10-27T11:21:39Z</time>
      </trkpt>
      <trkpt lat="44.84535" lon="6.19304">
        <ele>2460.15</ele>
        <time>2016-10-27T11:21:50Z</time>
      </trkpt>
      <trkpt lat="44.84534" lon="6.19304">
        <ele>2460.15</ele>
        <time>2016-10-27T11:21:58Z</time>
      </trkpt>
      <trkpt lat="44.84532" lon="6.19306">
        <ele>2459.67</ele>
        <time>2016-10-27T11:22:01Z</time>
      </trkpt>
      <trkpt lat="44.84532" lon="6.19315">
        <ele>2458.71</ele>
        <time>2016-10-27T11:22:06Z</time>
      </trkpt>
      <trkpt lat="44.84531" lon="6.19319">
        <ele>2457.27</ele>
        <time>2016-10-27T11:22:09Z</time>
      </trkpt>
      <trkpt lat="44.84525" lon="6.19326">
        <ele>2453.9</ele>
        <time>2016-10-27T11:22:20Z</time>
      </trkpt>
      <trkpt lat="44.84524" lon="6.19326">
        <ele>2453.9</ele>
        <time>2016-10-27T11:22:21Z</time>
      </trkpt>
      <trkpt lat="44.84521" lon="6.19332">
        <ele>2450.54</ele>
        <time>2016-10-27T11:22:33Z</time>
      </trkpt>
      <trkpt lat="44.8452" lon="6.19332">
        <ele>2449.1</ele>
        <time>2016-10-27T11:22:37Z</time>
      </trkpt>
      <trkpt lat="44.84512" lon="6.19337">
        <ele>2447.17</ele>
        <time>2016-10-27T11:22:48Z</time>
      </trkpt>
      <trkpt lat="44.8451" lon="6.19335">
        <ele>2446.21</ele>
        <time>2016-10-27T11:22:51Z</time>
      </trkpt>
      <trkpt lat="44.84501" lon="6.19334">
        <ele>2443.81</ele>
        <time>2016-10-27T11:23:02Z</time>
      </trkpt>
      <trkpt lat="44.84495" lon="6.19336">
        <ele>2441.89</ele>
        <time>2016-10-27T11:23:14Z</time>
      </trkpt>
      <trkpt lat="44.84492" lon="6.19333">
        <ele>2441.41</ele>
        <time>2016-10-27T11:23:18Z</time>
      </trkpt>
      <trkpt lat="44.8449" lon="6.19333">
        <ele>2440.92</ele>
        <time>2016-10-27T11:23:22Z</time>
      </trkpt>
      <trkpt lat="44.84477" lon="6.19336">
        <ele>2439</ele>
        <time>2016-10-27T11:23:32Z</time>
      </trkpt>
      <trkpt lat="44.84465" lon="6.19341">
        <ele>2436.6</ele>
        <time>2016-10-27T11:23:44Z</time>
      </trkpt>
      <trkpt lat="44.84462" lon="6.19342">
        <ele>2436.6</ele>
        <time>2016-10-27T11:23:46Z</time>
      </trkpt>
      <trkpt lat="44.84449" lon="6.19343">
        <ele>2434.68</ele>
        <time>2016-10-27T11:23:58Z</time>
      </trkpt>
      <trkpt lat="44.8444" lon="6.19343">
        <ele>2431.31</ele>
        <time>2016-10-27T11:24:11Z</time>
      </trkpt>
      <trkpt lat="44.8444" lon="6.19344">
        <ele>2430.83</ele>
        <time>2016-10-27T11:24:12Z</time>
      </trkpt>
      <trkpt lat="44.84441" lon="6.19338">
        <ele>2430.35</ele>
        <time>2016-10-27T11:24:16Z</time>
      </trkpt>
      <trkpt lat="44.84445" lon="6.19329">
        <ele>2426.99</ele>
        <time>2016-10-27T11:24:30Z</time>
      </trkpt>
      <trkpt lat="44.84442" lon="6.19327">
        <ele>2426.02</ele>
        <time>2016-10-27T11:24:33Z</time>
      </trkpt>
      <trkpt lat="44.84431" lon="6.19332">
        <ele>2424.1</ele>
        <time>2016-10-27T11:24:46Z</time>
      </trkpt>
      <trkpt lat="44.84428" lon="6.1933">
        <ele>2422.18</ele>
        <time>2016-10-27T11:24:57Z</time>
      </trkpt>
      <trkpt lat="44.84427" lon="6.19334">
        <ele>2421.7</ele>
        <time>2016-10-27T11:25:00Z</time>
      </trkpt>
      <trkpt lat="44.84422" lon="6.19336">
        <ele>2418.33</ele>
        <time>2016-10-27T11:25:12Z</time>
      </trkpt>
      <trkpt lat="44.84423" lon="6.19316">
        <ele>2416.41</ele>
        <time>2016-10-27T11:25:22Z</time>
      </trkpt>
      <trkpt lat="44.84424" lon="6.19314">
        <ele>2415.93</ele>
        <time>2016-10-27T11:25:24Z</time>
      </trkpt>
      <trkpt lat="44.84429" lon="6.19306">
        <ele>2414.01</ele>
        <time>2016-10-27T11:25:35Z</time>
      </trkpt>
      <trkpt lat="44.84435" lon="6.19299">
        <ele>2412.57</ele>
        <time>2016-10-27T11:25:44Z</time>
      </trkpt>
      <trkpt lat="44.8444" lon="6.19295">
        <ele>2412.09</ele>
        <time>2016-10-27T11:25:50Z</time>
      </trkpt>
      <trkpt lat="44.84443" lon="6.19287">
        <ele>2411.12</ele>
        <time>2016-10-27T11:25:54Z</time>
      </trkpt>
      <trkpt lat="44.84451" lon="6.19277">
        <ele>2408.72</ele>
        <time>2016-10-27T11:26:05Z</time>
      </trkpt>
      <trkpt lat="44.8445" lon="6.19275">
        <ele>2409.2</ele>
        <time>2016-10-27T11:26:06Z</time>
      </trkpt>
      <trkpt lat="44.84448" lon="6.19274">
        <ele>2408.24</ele>
        <time>2016-10-27T11:26:08Z</time>
      </trkpt>
      <trkpt lat="44.84441" lon="6.19274">
        <ele>2406.8</ele>
        <time>2016-10-27T11:26:15Z</time>
      </trkpt>
      <trkpt lat="44.84436" lon="6.19275">
        <ele>2405.36</ele>
        <time>2016-10-27T11:26:20Z</time>
      </trkpt>
      <trkpt lat="44.84426" lon="6.19279">
        <ele>2401.51</ele>
        <time>2016-10-27T11:26:32Z</time>
      </trkpt>
      <trkpt lat="44.84421" lon="6.19279">
        <ele>2400.07</ele>
        <time>2016-10-27T11:26:37Z</time>
      </trkpt>
      <trkpt lat="44.84416" lon="6.19278">
        <ele>2398.15</ele>
        <time>2016-10-27T11:26:43Z</time>
      </trkpt>
      <trkpt lat="44.84412" lon="6.19276">
        <ele>2397.18</ele>
        <time>2016-10-27T11:26:46Z</time>
      </trkpt>
      <trkpt lat="44.84405" lon="6.19271">
        <ele>2395.26</ele>
        <time>2016-10-27T11:26:53Z</time>
      </trkpt>
      <trkpt lat="44.84394" lon="6.1927">
        <ele>2392.38</ele>
        <time>2016-10-27T11:27:06Z</time>
      </trkpt>
      <trkpt lat="44.84393" lon="6.19272">
        <ele>2391.42</ele>
        <time>2016-10-27T11:27:10Z</time>
      </trkpt>
      <trkpt lat="44.84379" lon="6.1927">
        <ele>2388.53</ele>
        <time>2016-10-27T11:27:23Z</time>
      </trkpt>
      <trkpt lat="44.84379" lon="6.1927">
        <ele>2388.53</ele>
        <time>2016-10-27T11:27:24Z</time>
      </trkpt>
      <trkpt lat="44.84373" lon="6.19261">
        <ele>2386.61</ele>
        <time>2016-10-27T11:27:36Z</time>
      </trkpt>
      <trkpt lat="44.8437" lon="6.19263">
        <ele>2384.21</ele>
        <time>2016-10-27T11:27:50Z</time>
      </trkpt>
      <trkpt lat="44.8437" lon="6.19263">
        <ele>2383.73</ele>
        <time>2016-10-27T11:27:55Z</time>
      </trkpt>
      <trkpt lat="44.84367" lon="6.19262">
        <ele>2381.32</ele>
        <time>2016-10-27T11:28:04Z</time>
      </trkpt>
      <trkpt lat="44.84363" lon="6.19268">
        <ele>2378.92</ele>
        <time>2016-10-27T11:28:15Z</time>
      </trkpt>
      <trkpt lat="44.84356" lon="6.19271">
        <ele>2376.04</ele>
        <time>2016-10-27T11:28:28Z</time>
      </trkpt>
      <trkpt lat="44.84354" lon="6.19264">
        <ele>2375.55</ele>
        <time>2016-10-27T11:28:32Z</time>
      </trkpt>
      <trkpt lat="44.84357" lon="6.19253">
        <ele>2372.67</ele>
        <time>2016-10-27T11:28:45Z</time>
      </trkpt>
      <trkpt lat="44.84359" lon="6.1925">
        <ele>2372.19</ele>
        <time>2016-10-27T11:28:47Z</time>
      </trkpt>
      <trkpt lat="44.84366" lon="6.19238">
        <ele>2368.83</ele>
        <time>2016-10-27T11:29:00Z</time>
      </trkpt>
      <trkpt lat="44.84365" lon="6.19238">
        <ele>2368.83</ele>
        <time>2016-10-27T11:29:16Z</time>
      </trkpt>
      <trkpt lat="44.84366" lon="6.19237">
        <ele>2368.35</ele>
        <time>2016-10-27T11:29:22Z</time>
      </trkpt>
      <trkpt lat="44.84372" lon="6.19232">
        <ele>2366.9</ele>
        <time>2016-10-27T11:29:29Z</time>
      </trkpt>
      <trkpt lat="44.84377" lon="6.19224">
        <ele>2363.54</ele>
        <time>2016-10-27T11:29:42Z</time>
      </trkpt>
      <trkpt lat="44.84382" lon="6.19218">
        <ele>2361.62</ele>
        <time>2016-10-27T11:29:52Z</time>
      </trkpt>
      <trkpt lat="44.84387" lon="6.19214">
        <ele>2360.17</ele>
        <time>2016-10-27T11:29:59Z</time>
      </trkpt>
      <trkpt lat="44.8439" lon="6.19198">
        <ele>2357.29</ele>
        <time>2016-10-27T11:30:12Z</time>
      </trkpt>
      <trkpt lat="44.8439" lon="6.19196">
        <ele>2355.85</ele>
        <time>2016-10-27T11:30:18Z</time>
      </trkpt>
      <trkpt lat="44.84388" lon="6.19198">
        <ele>2354.89</ele>
        <time>2016-10-27T11:30:23Z</time>
      </trkpt>
      <trkpt lat="44.84383" lon="6.19197">
        <ele>2351.52</ele>
        <time>2016-10-27T11:30:35Z</time>
      </trkpt>
      <trkpt lat="44.84383" lon="6.19197">
        <ele>2351.04</ele>
        <time>2016-10-27T11:30:38Z</time>
      </trkpt>
      <trkpt lat="44.84373" lon="6.19197">
        <ele>2348.64</ele>
        <time>2016-10-27T11:30:50Z</time>
      </trkpt>
      <trkpt lat="44.84361" lon="6.19197">
        <ele>2345.75</ele>
        <time>2016-10-27T11:31:02Z</time>
      </trkpt>
      <trkpt lat="44.84351" lon="6.19197">
        <ele>2343.83</ele>
        <time>2016-10-27T11:31:12Z</time>
      </trkpt>
      <trkpt lat="44.84343" lon="6.19195">
        <ele>2340.47</ele>
        <time>2016-10-27T11:31:23Z</time>
      </trkpt>
      <trkpt lat="44.84341" lon="6.19189">
        <ele>2339.02</ele>
        <time>2016-10-27T11:31:31Z</time>
      </trkpt>
      <trkpt lat="44.84346" lon="6.19182">
        <ele>2336.62</ele>
        <time>2016-10-27T11:31:40Z</time>
      </trkpt>
      <trkpt lat="44.84348" lon="6.19179">
        <ele>2336.62</ele>
        <time>2016-10-27T11:31:44Z</time>
      </trkpt>
      <trkpt lat="44.84339" lon="6.1918">
        <ele>2332.78</ele>
        <time>2016-10-27T11:31:59Z</time>
      </trkpt>
      <trkpt lat="44.84335" lon="6.19178">
        <ele>2330.85</ele>
        <time>2016-10-27T11:32:09Z</time>
      </trkpt>
      <trkpt lat="44.84326" lon="6.19178">
        <ele>2327.97</ele>
        <time>2016-10-27T11:32:22Z</time>
      </trkpt>
      <trkpt lat="44.84318" lon="6.19175">
        <ele>2324.61</ele>
        <time>2016-10-27T11:32:35Z</time>
      </trkpt>
      <trkpt lat="44.84311" lon="6.19169">
        <ele>2321.72</ele>
        <time>2016-10-27T11:32:49Z</time>
      </trkpt>
      <trkpt lat="44.84303" lon="6.19159">
        <ele>2318.36</ele>
        <time>2016-10-27T11:33:01Z</time>
      </trkpt>
      <trkpt lat="44.84293" lon="6.19151">
        <ele>2315.47</ele>
        <time>2016-10-27T11:33:15Z</time>
      </trkpt>
      <trkpt lat="44.84283" lon="6.19144">
        <ele>2312.59</ele>
        <time>2016-10-27T11:33:26Z</time>
      </trkpt>
      <trkpt lat="44.84278" lon="6.19134">
        <ele>2309.7</ele>
        <time>2016-10-27T11:33:39Z</time>
      </trkpt>
      <trkpt lat="44.84274" lon="6.19127">
        <ele>2307.3</ele>
        <time>2016-10-27T11:33:57Z</time>
      </trkpt>
      <trkpt lat="44.84267" lon="6.19121">
        <ele>2306.34</ele>
        <time>2016-10-27T11:34:03Z</time>
      </trkpt>
      <trkpt lat="44.84261" lon="6.19112">
        <ele>2303.46</ele>
        <time>2016-10-27T11:34:16Z</time>
      </trkpt>
      <trkpt lat="44.84255" lon="6.19104">
        <ele>2300.09</ele>
        <time>2016-10-27T11:34:29Z</time>
      </trkpt>
      <trkpt lat="44.84249" lon="6.19095">
        <ele>2296.73</ele>
        <time>2016-10-27T11:34:42Z</time>
      </trkpt>
      <trkpt lat="44.84245" lon="6.19089">
        <ele>2293.84</ele>
        <time>2016-10-27T11:34:53Z</time>
      </trkpt>
      <trkpt lat="44.84236" lon="6.19084">
        <ele>2290.48</ele>
        <time>2016-10-27T11:35:05Z</time>
      </trkpt>
      <trkpt lat="44.84232" lon="6.19078">
        <ele>2288.08</ele>
        <time>2016-10-27T11:35:15Z</time>
      </trkpt>
      <trkpt lat="44.84233" lon="6.19072">
        <ele>2286.63</ele>
        <time>2016-10-27T11:35:20Z</time>
      </trkpt>
      <trkpt lat="44.84237" lon="6.19068">
        <ele>2285.67</ele>
        <time>2016-10-27T11:35:24Z</time>
      </trkpt>
      <trkpt lat="44.84245" lon="6.19065">
        <ele>2283.27</ele>
        <time>2016-10-27T11:35:35Z</time>
      </trkpt>
      <trkpt lat="44.84246" lon="6.19062">
        <ele>2282.31</ele>
        <time>2016-10-27T11:35:38Z</time>
      </trkpt>
      <trkpt lat="44.84252" lon="6.19061">
        <ele>2280.38</ele>
        <time>2016-10-27T11:35:47Z</time>
      </trkpt>
      <trkpt lat="44.84257" lon="6.19057">
        <ele>2277.98</ele>
        <time>2016-10-27T11:35:57Z</time>
      </trkpt>
      <trkpt lat="44.84258" lon="6.19057">
        <ele>2277.5</ele>
        <time>2016-10-27T11:35:58Z</time>
      </trkpt>
      <trkpt lat="44.84259" lon="6.19057">
        <ele>2277.5</ele>
        <time>2016-10-27T11:36:14Z</time>
      </trkpt>
      <trkpt lat="44.8426" lon="6.19055">
        <ele>2276.54</ele>
        <time>2016-10-27T11:36:33Z</time>
      </trkpt>
      <trkpt lat="44.84268" lon="6.19052">
        <ele>2273.66</ele>
        <time>2016-10-27T11:36:45Z</time>
      </trkpt>
      <trkpt lat="44.84269" lon="6.1905">
        <ele>2272.69</ele>
        <time>2016-10-27T11:36:49Z</time>
      </trkpt>
      <trkpt lat="44.84271" lon="6.19048">
        <ele>2272.21</ele>
        <time>2016-10-27T11:36:53Z</time>
      </trkpt>
      <trkpt lat="44.84279" lon="6.19042">
        <ele>2270.29</ele>
        <time>2016-10-27T11:37:03Z</time>
      </trkpt>
      <trkpt lat="44.8428" lon="6.19037">
        <ele>2268.85</ele>
        <time>2016-10-27T11:37:08Z</time>
      </trkpt>
      <trkpt lat="44.84281" lon="6.19036">
        <ele>2267.89</ele>
        <time>2016-10-27T11:37:23Z</time>
      </trkpt>
      <trkpt lat="44.84282" lon="6.19037">
        <ele>2267.89</ele>
        <time>2016-10-27T11:37:36Z</time>
      </trkpt>
      <trkpt lat="44.84281" lon="6.19036">
        <ele>2267.89</ele>
        <time>2016-10-27T11:38:04Z</time>
      </trkpt>
      <trkpt lat="44.84281" lon="6.19037">
        <ele>2268.85</ele>
        <time>2016-10-27T11:38:15Z</time>
      </trkpt>
      <trkpt lat="44.84285" lon="6.19035">
        <ele>2266.93</ele>
        <time>2016-10-27T11:38:22Z</time>
      </trkpt>
      <trkpt lat="44.84292" lon="6.19029">
        <ele>2263.56</ele>
        <time>2016-10-27T11:38:34Z</time>
      </trkpt>
      <trkpt lat="44.84294" lon="6.19027">
        <ele>2263.08</ele>
        <time>2016-10-27T11:38:41Z</time>
      </trkpt>
      <trkpt lat="44.843" lon="6.19019">
        <ele>2260.2</ele>
        <time>2016-10-27T11:38:53Z</time>
      </trkpt>
      <trkpt lat="44.84303" lon="6.19014">
        <ele>2258.75</ele>
        <time>2016-10-27T11:38:58Z</time>
      </trkpt>
      <trkpt lat="44.84308" lon="6.19007">
        <ele>2256.35</ele>
        <time>2016-10-27T11:39:08Z</time>
      </trkpt>
      <trkpt lat="44.84318" lon="6.18998">
        <ele>2253.95</ele>
        <time>2016-10-27T11:39:20Z</time>
      </trkpt>
      <trkpt lat="44.8432" lon="6.18989">
        <ele>2251.06</ele>
        <time>2016-10-27T11:39:32Z</time>
      </trkpt>
      <trkpt lat="44.84324" lon="6.1898">
        <ele>2249.62</ele>
        <time>2016-10-27T11:39:42Z</time>
      </trkpt>
      <trkpt lat="44.84324" lon="6.18977">
        <ele>2247.7</ele>
        <time>2016-10-27T11:39:48Z</time>
      </trkpt>
      <trkpt lat="44.84331" lon="6.18968">
        <ele>2246.26</ele>
        <time>2016-10-27T11:39:58Z</time>
      </trkpt>
      <trkpt lat="44.84332" lon="6.18965">
        <ele>2245.3</ele>
        <time>2016-10-27T11:40:01Z</time>
      </trkpt>
      <trkpt lat="44.84336" lon="6.18956">
        <ele>2242.89</ele>
        <time>2016-10-27T11:40:12Z</time>
      </trkpt>
      <trkpt lat="44.84337" lon="6.18955">
        <ele>2242.89</ele>
        <time>2016-10-27T11:40:13Z</time>
      </trkpt>
      <trkpt lat="44.84345" lon="6.18945">
        <ele>2240.97</ele>
        <time>2016-10-27T11:40:24Z</time>
      </trkpt>
      <trkpt lat="44.84348" lon="6.18942">
        <ele>2238.57</ele>
        <time>2016-10-27T11:40:33Z</time>
      </trkpt>
      <trkpt lat="44.84349" lon="6.1894">
        <ele>2238.09</ele>
        <time>2016-10-27T11:40:35Z</time>
      </trkpt>
      <trkpt lat="44.84356" lon="6.1893">
        <ele>2235.68</ele>
        <time>2016-10-27T11:40:46Z</time>
      </trkpt>
      <trkpt lat="44.84357" lon="6.18918">
        <ele>2233.28</ele>
        <time>2016-10-27T11:40:56Z</time>
      </trkpt>
      <trkpt lat="44.84362" lon="6.18907">
        <ele>2232.32</ele>
        <time>2016-10-27T11:41:06Z</time>
      </trkpt>
      <trkpt lat="44.84361" lon="6.18897">
        <ele>2230.4</ele>
        <time>2016-10-27T11:41:20Z</time>
      </trkpt>
      <trkpt lat="44.84362" lon="6.18896">
        <ele>2230.4</ele>
        <time>2016-10-27T11:41:34Z</time>
      </trkpt>
      <trkpt lat="44.84358" lon="6.18901">
        <ele>2227.99</ele>
        <time>2016-10-27T11:41:43Z</time>
      </trkpt>
      <trkpt lat="44.84353" lon="6.18894">
        <ele>2226.07</ele>
        <time>2016-10-27T11:41:52Z</time>
      </trkpt>
      <trkpt lat="44.84353" lon="6.18893">
        <ele>2225.59</ele>
        <time>2016-10-27T11:42:14Z</time>
      </trkpt>
      <trkpt lat="44.84352" lon="6.18886">
        <ele>2223.67</ele>
        <time>2016-10-27T11:42:33Z</time>
      </trkpt>
      <trkpt lat="44.84351" lon="6.18885">
        <ele>2222.71</ele>
        <time>2016-10-27T11:42:36Z</time>
      </trkpt>
      <trkpt lat="44.8435" lon="6.18877">
        <ele>2220.78</ele>
        <time>2016-10-27T11:42:46Z</time>
      </trkpt>
      <trkpt lat="44.84349" lon="6.18875">
        <ele>2220.3</ele>
        <time>2016-10-27T11:42:58Z</time>
      </trkpt>
      <trkpt lat="44.84344" lon="6.18873">
        <ele>2216.94</ele>
        <time>2016-10-27T11:43:09Z</time>
      </trkpt>
      <trkpt lat="44.84344" lon="6.18862">
        <ele>2214.53</ele>
        <time>2016-10-27T11:43:21Z</time>
      </trkpt>
      <trkpt lat="44.84347" lon="6.18856">
        <ele>2214.05</ele>
        <time>2016-10-27T11:43:40Z</time>
      </trkpt>
      <trkpt lat="44.84355" lon="6.18845">
        <ele>2213.57</ele>
        <time>2016-10-27T11:43:53Z</time>
      </trkpt>
      <trkpt lat="44.84363" lon="6.18841">
        <ele>2212.61</ele>
        <time>2016-10-27T11:44:04Z</time>
      </trkpt>
      <trkpt lat="44.84362" lon="6.18834">
        <ele>2213.57</ele>
        <time>2016-10-27T11:44:08Z</time>
      </trkpt>
      <trkpt lat="44.84362" lon="6.18829">
        <ele>2213.09</ele>
        <time>2016-10-27T11:44:18Z</time>
      </trkpt>
      <trkpt lat="44.84365" lon="6.18817">
        <ele>2212.13</ele>
        <time>2016-10-27T11:44:29Z</time>
      </trkpt>
      <trkpt lat="44.84366" lon="6.18804">
        <ele>2209.73</ele>
        <time>2016-10-27T11:44:39Z</time>
      </trkpt>
      <trkpt lat="44.8437" lon="6.18792">
        <ele>2206.36</ele>
        <time>2016-10-27T11:44:51Z</time>
      </trkpt>
      <trkpt lat="44.8437" lon="6.18779">
        <ele>2203.48</ele>
        <time>2016-10-27T11:45:01Z</time>
      </trkpt>
      <trkpt lat="44.84372" lon="6.1877">
        <ele>2200.59</ele>
        <time>2016-10-27T11:45:12Z</time>
      </trkpt>
      <trkpt lat="44.84373" lon="6.18759">
        <ele>2198.67</ele>
        <time>2016-10-27T11:45:20Z</time>
      </trkpt>
      <trkpt lat="44.84368" lon="6.18757">
        <ele>2196.75</ele>
        <time>2016-10-27T11:45:29Z</time>
      </trkpt>
      <trkpt lat="44.84358" lon="6.1876">
        <ele>2192.9</ele>
        <time>2016-10-27T11:45:43Z</time>
      </trkpt>
      <trkpt lat="44.84352" lon="6.18761">
        <ele>2190.98</ele>
        <time>2016-10-27T11:45:51Z</time>
      </trkpt>
      <trkpt lat="44.84345" lon="6.18758">
        <ele>2188.1</ele>
        <time>2016-10-27T11:46:04Z</time>
      </trkpt>
      <trkpt lat="44.84343" lon="6.18749">
        <ele>2185.21</ele>
        <time>2016-10-27T11:46:15Z</time>
      </trkpt>
      <trkpt lat="44.84341" lon="6.18736">
        <ele>2181.85</ele>
        <time>2016-10-27T11:46:27Z</time>
      </trkpt>
      <trkpt lat="44.84344" lon="6.18729">
        <ele>2180.41</ele>
        <time>2016-10-27T11:46:34Z</time>
      </trkpt>
      <trkpt lat="44.84344" lon="6.18714">
        <ele>2177.52</ele>
        <time>2016-10-27T11:46:48Z</time>
      </trkpt>
      <trkpt lat="44.84343" lon="6.18715">
        <ele>2177.04</ele>
        <time>2016-10-27T11:46:51Z</time>
      </trkpt>
      <trkpt lat="44.84336" lon="6.18717">
        <ele>2173.68</ele>
        <time>2016-10-27T11:47:04Z</time>
      </trkpt>
      <trkpt lat="44.84329" lon="6.18719">
        <ele>2171.76</ele>
        <time>2016-10-27T11:47:16Z</time>
      </trkpt>
      <trkpt lat="44.84328" lon="6.18715">
        <ele>2169.83</ele>
        <time>2016-10-27T11:47:29Z</time>
      </trkpt>
      <trkpt lat="44.84329" lon="6.18712">
        <ele>2169.35</ele>
        <time>2016-10-27T11:47:38Z</time>
      </trkpt>
      <trkpt lat="44.8433" lon="6.18706">
        <ele>2168.39</ele>
        <time>2016-10-27T11:47:42Z</time>
      </trkpt>
      <trkpt lat="44.84329" lon="6.18693">
        <ele>2166.47</ele>
        <time>2016-10-27T11:47:54Z</time>
      </trkpt>
      <trkpt lat="44.84331" lon="6.18679">
        <ele>2164.06</ele>
        <time>2016-10-27T11:48:07Z</time>
      </trkpt>
      <trkpt lat="44.84332" lon="6.18671">
        <ele>2161.18</ele>
        <time>2016-10-27T11:48:18Z</time>
      </trkpt>
      <trkpt lat="44.84332" lon="6.1867">
        <ele>2160.7</ele>
        <time>2016-10-27T11:48:19Z</time>
      </trkpt>
      <trkpt lat="44.84335" lon="6.18652">
        <ele>2157.34</ele>
        <time>2016-10-27T11:48:33Z</time>
      </trkpt>
      <trkpt lat="44.84336" lon="6.18638">
        <ele>2154.45</ele>
        <time>2016-10-27T11:48:45Z</time>
      </trkpt>
      <trkpt lat="44.84337" lon="6.18628">
        <ele>2151.57</ele>
        <time>2016-10-27T11:48:57Z</time>
      </trkpt>
      <trkpt lat="44.84334" lon="6.18623">
        <ele>2150.61</ele>
        <time>2016-10-27T11:49:10Z</time>
      </trkpt>
      <trkpt lat="44.84332" lon="6.1861">
        <ele>2148.68</ele>
        <time>2016-10-27T11:49:23Z</time>
      </trkpt>
      <trkpt lat="44.84332" lon="6.18608">
        <ele>2148.68</ele>
        <time>2016-10-27T11:49:39Z</time>
      </trkpt>
      <trkpt lat="44.84334" lon="6.1861">
        <ele>2148.2</ele>
        <time>2016-10-27T11:50:14Z</time>
      </trkpt>
      <trkpt lat="44.84334" lon="6.18609">
        <ele>2147.72</ele>
        <time>2016-10-27T11:50:24Z</time>
      </trkpt>
      <trkpt lat="44.84337" lon="6.18595">
        <ele>2144.36</ele>
        <time>2016-10-27T11:50:36Z</time>
      </trkpt>
      <trkpt lat="44.84342" lon="6.18591">
        <ele>2141.95</ele>
        <time>2016-10-27T11:50:45Z</time>
      </trkpt>
      <trkpt lat="44.84344" lon="6.18577">
        <ele>2139.07</ele>
        <time>2016-10-27T11:50:57Z</time>
      </trkpt>
      <trkpt lat="44.84345" lon="6.18568">
        <ele>2137.63</ele>
        <time>2016-10-27T11:51:03Z</time>
      </trkpt>
      <trkpt lat="44.84347" lon="6.18563">
        <ele>2136.67</ele>
        <time>2016-10-27T11:51:10Z</time>
      </trkpt>
      <trkpt lat="44.84337" lon="6.18562">
        <ele>2134.26</ele>
        <time>2016-10-27T11:51:24Z</time>
      </trkpt>
      <trkpt lat="44.8433" lon="6.18558">
        <ele>2131.38</ele>
        <time>2016-10-27T11:51:35Z</time>
      </trkpt>
      <trkpt lat="44.84327" lon="6.18554">
        <ele>2129.94</ele>
        <time>2016-10-27T11:51:42Z</time>
      </trkpt>
      <trkpt lat="44.84319" lon="6.18548">
        <ele>2127.05</ele>
        <time>2016-10-27T11:51:54Z</time>
      </trkpt>
      <trkpt lat="44.84313" lon="6.18542">
        <ele>2125.61</ele>
        <time>2016-10-27T11:52:05Z</time>
      </trkpt>
      <trkpt lat="44.84309" lon="6.18541">
        <ele>2124.65</ele>
        <time>2016-10-27T11:52:12Z</time>
      </trkpt>
      <trkpt lat="44.843" lon="6.1854">
        <ele>2121.77</ele>
        <time>2016-10-27T11:52:24Z</time>
      </trkpt>
      <trkpt lat="44.84299" lon="6.1854">
        <ele>2120.81</ele>
        <time>2016-10-27T11:52:26Z</time>
      </trkpt>
      <trkpt lat="44.84287" lon="6.18544">
        <ele>2117.44</ele>
        <time>2016-10-27T11:52:38Z</time>
      </trkpt>
      <trkpt lat="44.84281" lon="6.18546">
        <ele>2114.56</ele>
        <time>2016-10-27T11:52:50Z</time>
      </trkpt>
      <trkpt lat="44.84279" lon="6.18546">
        <ele>2113.6</ele>
        <time>2016-10-27T11:52:53Z</time>
      </trkpt>
      <trkpt lat="44.84273" lon="6.18541">
        <ele>2110.71</ele>
        <time>2016-10-27T11:53:05Z</time>
      </trkpt>
      <trkpt lat="44.84269" lon="6.18534">
        <ele>2107.35</ele>
        <time>2016-10-27T11:53:16Z</time>
      </trkpt>
      <trkpt lat="44.84268" lon="6.18532">
        <ele>2106.87</ele>
        <time>2016-10-27T11:53:19Z</time>
      </trkpt>
      <trkpt lat="44.84264" lon="6.18521">
        <ele>2103.98</ele>
        <time>2016-10-27T11:53:31Z</time>
      </trkpt>
      <trkpt lat="44.84262" lon="6.18509">
        <ele>2100.62</ele>
        <time>2016-10-27T11:53:42Z</time>
      </trkpt>
      <trkpt lat="44.84257" lon="6.18495">
        <ele>2098.7</ele>
        <time>2016-10-27T11:53:55Z</time>
      </trkpt>
      <trkpt lat="44.84252" lon="6.1848">
        <ele>2095.81</ele>
        <time>2016-10-27T11:54:09Z</time>
      </trkpt>
      <trkpt lat="44.84249" lon="6.18472">
        <ele>2093.41</ele>
        <time>2016-10-27T11:54:22Z</time>
      </trkpt>
      <trkpt lat="44.84245" lon="6.18467">
        <ele>2091</ele>
        <time>2016-10-27T11:54:37Z</time>
      </trkpt>
      <trkpt lat="44.84242" lon="6.18455">
        <ele>2088.6</ele>
        <time>2016-10-27T11:54:48Z</time>
      </trkpt>
      <trkpt lat="44.84235" lon="6.18443">
        <ele>2085.72</ele>
        <time>2016-10-27T11:55:01Z</time>
      </trkpt>
      <trkpt lat="44.84226" lon="6.18432">
        <ele>2083.31</ele>
        <time>2016-10-27T11:55:13Z</time>
      </trkpt>
      <trkpt lat="44.84221" lon="6.18419">
        <ele>2080.91</ele>
        <time>2016-10-27T11:55:24Z</time>
      </trkpt>
      <trkpt lat="44.84214" lon="6.18405">
        <ele>2078.99</ele>
        <time>2016-10-27T11:55:37Z</time>
      </trkpt>
      <trkpt lat="44.84213" lon="6.18403">
        <ele>2078.99</ele>
        <time>2016-10-27T11:55:49Z</time>
      </trkpt>
      <trkpt lat="44.84215" lon="6.18402">
        <ele>2078.99</ele>
        <time>2016-10-27T11:56:08Z</time>
      </trkpt>
      <trkpt lat="44.8422" lon="6.18393">
        <ele>2078.99</ele>
        <time>2016-10-27T11:56:17Z</time>
      </trkpt>
      <trkpt lat="44.8422" lon="6.18392">
        <ele>2079.47</ele>
        <time>2016-10-27T11:56:18Z</time>
      </trkpt>
      <trkpt lat="44.84222" lon="6.18379">
        <ele>2080.91</ele>
        <time>2016-10-27T11:56:28Z</time>
      </trkpt>
      <trkpt lat="44.84224" lon="6.18375">
        <ele>2081.39</ele>
        <time>2016-10-27T11:56:33Z</time>
      </trkpt>
      <trkpt lat="44.8423" lon="6.18367">
        <ele>2083.31</ele>
        <time>2016-10-27T11:56:46Z</time>
      </trkpt>
      <trkpt lat="44.84233" lon="6.18358">
        <ele>2084.28</ele>
        <time>2016-10-27T11:56:56Z</time>
      </trkpt>
      <trkpt lat="44.84233" lon="6.18359">
        <ele>2083.79</ele>
        <time>2016-10-27T11:57:12Z</time>
      </trkpt>
      <trkpt lat="44.84233" lon="6.18359">
        <ele>2083.31</ele>
        <time>2016-10-27T11:57:32Z</time>
      </trkpt>
      <trkpt lat="44.84234" lon="6.1836">
        <ele>2083.79</ele>
        <time>2016-10-27T11:57:55Z</time>
      </trkpt>
      <trkpt lat="44.84236" lon="6.18356">
        <ele>2082.83</ele>
        <time>2016-10-27T11:57:59Z</time>
      </trkpt>
      <trkpt lat="44.84242" lon="6.18355">
        <ele>2083.31</ele>
        <time>2016-10-27T11:58:09Z</time>
      </trkpt>
      <trkpt lat="44.84248" lon="6.18355">
        <ele>2082.35</ele>
        <time>2016-10-27T11:58:20Z</time>
      </trkpt>
      <trkpt lat="44.84249" lon="6.18354">
        <ele>2082.83</ele>
        <time>2016-10-27T11:58:22Z</time>
      </trkpt>
      <trkpt lat="44.84255" lon="6.18357">
        <ele>2082.35</ele>
        <time>2016-10-27T11:58:38Z</time>
      </trkpt>
      <trkpt lat="44.8425" lon="6.18359">
        <ele>2081.87</ele>
        <time>2016-10-27T11:58:44Z</time>
      </trkpt>
      <trkpt lat="44.84248" lon="6.18369">
        <ele>2084.28</ele>
        <time>2016-10-27T11:58:57Z</time>
      </trkpt>
      <trkpt lat="44.84241" lon="6.18378">
        <ele>2083.79</ele>
        <time>2016-10-27T11:59:09Z</time>
      </trkpt>
      <trkpt lat="44.84243" lon="6.18383">
        <ele>2084.28</ele>
        <time>2016-10-27T11:59:21Z</time>
      </trkpt>
      <trkpt lat="44.84245" lon="6.18387">
        <ele>2084.76</ele>
        <time>2016-10-27T11:59:28Z</time>
      </trkpt>
      <trkpt lat="44.84246" lon="6.18389">
        <ele>2084.76</ele>
        <time>2016-10-27T11:59:43Z</time>
      </trkpt>
      <trkpt lat="44.84246" lon="6.1839">
        <ele>2084.28</ele>
        <time>2016-10-27T12:00:02Z</time>
      </trkpt>
      <trkpt lat="44.84249" lon="6.18389">
        <ele>2084.28</ele>
        <time>2016-10-27T12:00:30Z</time>
      </trkpt>
      <trkpt lat="44.8425" lon="6.1839">
        <ele>2084.28</ele>
        <time>2016-10-27T12:01:02Z</time>
      </trkpt>
      <trkpt lat="44.8425" lon="6.1839">
        <ele>2084.28</ele>
        <time>2016-10-27T12:01:36Z</time>
      </trkpt>
      <trkpt lat="44.8425" lon="6.18389">
        <ele>2084.28</ele>
        <time>2016-10-27T12:02:06Z</time>
      </trkpt>
      <trkpt lat="44.8425" lon="6.18388">
        <ele>2084.28</ele>
        <time>2016-10-27T12:02:40Z</time>
      </trkpt>
      <trkpt lat="44.8425" lon="6.18389">
        <ele>2083.79</ele>
        <time>2016-10-27T12:03:15Z</time>
      </trkpt>
      <trkpt lat="44.8425" lon="6.18389">
        <ele>2083.79</ele>
        <time>2016-10-27T12:03:55Z</time>
      </trkpt>
      <trkpt lat="44.8425" lon="6.18389">
        <ele>2084.28</ele>
        <time>2016-10-27T12:04:31Z</time>
      </trkpt>
      <trkpt lat="44.8425" lon="6.18389">
        <ele>2083.79</ele>
        <time>2016-10-27T12:05:01Z</time>
      </trkpt>
      <trkpt lat="44.8425" lon="6.1839">
        <ele>2083.79</ele>
        <time>2016-10-27T12:05:33Z</time>
      </trkpt>
      <trkpt lat="44.84251" lon="6.18391">
        <ele>2083.79</ele>
        <time>2016-10-27T12:06:07Z</time>
      </trkpt>
      <trkpt lat="44.8425" lon="6.1839">
        <ele>2083.79</ele>
        <time>2016-10-27T12:06:41Z</time>
      </trkpt>
      <trkpt lat="44.84251" lon="6.1839">
        <ele>2083.79</ele>
        <time>2016-10-27T12:07:13Z</time>
      </trkpt>
      <trkpt lat="44.84251" lon="6.1839">
        <ele>2083.79</ele>
        <time>2016-10-27T12:07:42Z</time>
      </trkpt>
      <trkpt lat="44.84251" lon="6.1839">
        <ele>2083.79</ele>
        <time>2016-10-27T12:08:04Z</time>
      </trkpt>
      <trkpt lat="44.8425" lon="6.18389">
        <ele>2083.31</ele>
        <time>2016-10-27T12:08:35Z</time>
      </trkpt>
      <trkpt lat="44.84251" lon="6.1839">
        <ele>2083.31</ele>
        <time>2016-10-27T12:09:02Z</time>
      </trkpt>
      <trkpt lat="44.8425" lon="6.1839">
        <ele>2083.31</ele>
        <time>2016-10-27T12:09:36Z</time>
      </trkpt>
      <trkpt lat="44.84251" lon="6.18389">
        <ele>2083.79</ele>
        <time>2016-10-27T12:10:01Z</time>
      </trkpt>
      <trkpt lat="44.84251" lon="6.1839">
        <ele>2084.28</ele>
        <time>2016-10-27T12:10:26Z</time>
      </trkpt>
      <trkpt lat="44.8425" lon="6.1839">
        <ele>2084.76</ele>
        <time>2016-10-27T12:10:49Z</time>
      </trkpt>
      <trkpt lat="44.8425" lon="6.1839">
        <ele>2084.28</ele>
        <time>2016-10-27T12:10:50Z</time>
      </trkpt>
      <trkpt lat="44.84242" lon="6.18391">
        <ele>2081.87</ele>
        <time>2016-10-27T12:11:02Z</time>
      </trkpt>
      <trkpt lat="44.84239" lon="6.18391">
        <ele>2081.39</ele>
        <time>2016-10-27T12:11:06Z</time>
      </trkpt>
      <trkpt lat="44.84236" lon="6.18393">
        <ele>2080.43</ele>
        <time>2016-10-27T12:11:10Z</time>
      </trkpt>
      <trkpt lat="44.84233" lon="6.18395">
        <ele>2079.95</ele>
        <time>2016-10-27T12:11:14Z</time>
      </trkpt>
      <trkpt lat="44.84231" lon="6.18401">
        <ele>2078.99</ele>
        <time>2016-10-27T12:11:19Z</time>
      </trkpt>
      <trkpt lat="44.84223" lon="6.18405">
        <ele>2078.03</ele>
        <time>2016-10-27T12:11:30Z</time>
      </trkpt>
      <trkpt lat="44.84211" lon="6.18401">
        <ele>2076.59</ele>
        <time>2016-10-27T12:11:43Z</time>
      </trkpt>
      <trkpt lat="44.84206" lon="6.18405">
        <ele>2075.14</ele>
        <time>2016-10-27T12:11:51Z</time>
      </trkpt>
      <trkpt lat="44.84203" lon="6.18407">
        <ele>2074.18</ele>
        <time>2016-10-27T12:11:55Z</time>
      </trkpt>
      <trkpt lat="44.842" lon="6.1841">
        <ele>2073.7</ele>
        <time>2016-10-27T12:11:58Z</time>
      </trkpt>
      <trkpt lat="44.84193" lon="6.18413">
        <ele>2070.34</ele>
        <time>2016-10-27T12:12:04Z</time>
      </trkpt>
      <trkpt lat="44.84188" lon="6.18417">
        <ele>2071.78</ele>
        <time>2016-10-27T12:12:10Z</time>
      </trkpt>
      <trkpt lat="44.84181" lon="6.1842">
        <ele>2070.82</ele>
        <time>2016-10-27T12:12:15Z</time>
      </trkpt>
      <trkpt lat="44.84179" lon="6.18424">
        <ele>2069.86</ele>
        <time>2016-10-27T12:12:21Z</time>
      </trkpt>
      <trkpt lat="44.8417" lon="6.18421">
        <ele>2068.41</ele>
        <time>2016-10-27T12:12:33Z</time>
      </trkpt>
      <trkpt lat="44.8417" lon="6.18421">
        <ele>2068.41</ele>
        <time>2016-10-27T12:12:34Z</time>
      </trkpt>
      <trkpt lat="44.84157" lon="6.18426">
        <ele>2065.53</ele>
        <time>2016-10-27T12:12:47Z</time>
      </trkpt>
      <trkpt lat="44.84148" lon="6.18426">
        <ele>2064.09</ele>
        <time>2016-10-27T12:12:58Z</time>
      </trkpt>
      <trkpt lat="44.8414" lon="6.18427">
        <ele>2062.65</ele>
        <time>2016-10-27T12:13:06Z</time>
      </trkpt>
      <trkpt lat="44.84132" lon="6.1843">
        <ele>2060.24</ele>
        <time>2016-10-27T12:13:18Z</time>
      </trkpt>
      <trkpt lat="44.84129" lon="6.18432">
        <ele>2060.24</ele>
        <time>2016-10-27T12:13:20Z</time>
      </trkpt>
      <trkpt lat="44.84123" lon="6.18437">
        <ele>2058.8</ele>
        <time>2016-10-27T12:13:26Z</time>
      </trkpt>
      <trkpt lat="44.84117" lon="6.18441">
        <ele>2057.36</ele>
        <time>2016-10-27T12:13:37Z</time>
      </trkpt>
      <trkpt lat="44.84115" lon="6.18442">
        <ele>2057.36</ele>
        <time>2016-10-27T12:13:39Z</time>
      </trkpt>
      <trkpt lat="44.84113" lon="6.18442">
        <ele>2058.8</ele>
        <time>2016-10-27T12:13:41Z</time>
      </trkpt>
      <trkpt lat="44.84104" lon="6.18449">
        <ele>2056.4</ele>
        <time>2016-10-27T12:13:50Z</time>
      </trkpt>
      <trkpt lat="44.84093" lon="6.18451">
        <ele>2054.47</ele>
        <time>2016-10-27T12:14:01Z</time>
      </trkpt>
      <trkpt lat="44.84092" lon="6.18453">
        <ele>2053.51</ele>
        <time>2016-10-27T12:14:14Z</time>
      </trkpt>
      <trkpt lat="44.84086" lon="6.18451">
        <ele>2053.03</ele>
        <time>2016-10-27T12:14:26Z</time>
      </trkpt>
      <trkpt lat="44.84084" lon="6.18453">
        <ele>2052.55</ele>
        <time>2016-10-27T12:14:30Z</time>
      </trkpt>
      <trkpt lat="44.84081" lon="6.18455">
        <ele>2052.55</ele>
        <time>2016-10-27T12:14:33Z</time>
      </trkpt>
      <trkpt lat="44.8407" lon="6.18463">
        <ele>2050.15</ele>
        <time>2016-10-27T12:14:47Z</time>
      </trkpt>
      <trkpt lat="44.84061" lon="6.18469">
        <ele>2049.67</ele>
        <time>2016-10-27T12:14:55Z</time>
      </trkpt>
      <trkpt lat="44.84054" lon="6.18475">
        <ele>2049.19</ele>
        <time>2016-10-27T12:15:06Z</time>
      </trkpt>
      <trkpt lat="44.84053" lon="6.18475">
        <ele>2049.19</ele>
        <time>2016-10-27T12:15:07Z</time>
      </trkpt>
      <trkpt lat="44.84047" lon="6.18488">
        <ele>2047.26</ele>
        <time>2016-10-27T12:15:20Z</time>
      </trkpt>
      <trkpt lat="44.84046" lon="6.18488">
        <ele>2046.78</ele>
        <time>2016-10-27T12:15:21Z</time>
      </trkpt>
      <trkpt lat="44.84039" lon="6.18496">
        <ele>2047.75</ele>
        <time>2016-10-27T12:15:28Z</time>
      </trkpt>
      <trkpt lat="44.84036" lon="6.18509">
        <ele>2046.78</ele>
        <time>2016-10-27T12:15:38Z</time>
      </trkpt>
      <trkpt lat="44.84025" lon="6.18513">
        <ele>2045.82</ele>
        <time>2016-10-27T12:15:50Z</time>
      </trkpt>
      <trkpt lat="44.84021" lon="6.18515">
        <ele>2044.86</ele>
        <time>2016-10-27T12:16:01Z</time>
      </trkpt>
      <trkpt lat="44.84017" lon="6.18517">
        <ele>2043.42</ele>
        <time>2016-10-27T12:16:12Z</time>
      </trkpt>
      <trkpt lat="44.84015" lon="6.1852">
        <ele>2042.94</ele>
        <time>2016-10-27T12:16:28Z</time>
      </trkpt>
      <trkpt lat="44.84014" lon="6.18522">
        <ele>2042.46</ele>
        <time>2016-10-27T12:16:42Z</time>
      </trkpt>
      <trkpt lat="44.84013" lon="6.18528">
        <ele>2042.94</ele>
        <time>2016-10-27T12:16:50Z</time>
      </trkpt>
      <trkpt lat="44.84007" lon="6.18542">
        <ele>2041.5</ele>
        <time>2016-10-27T12:17:01Z</time>
      </trkpt>
      <trkpt lat="44.83996" lon="6.18561">
        <ele>2038.13</ele>
        <time>2016-10-27T12:17:15Z</time>
      </trkpt>
      <trkpt lat="44.83988" lon="6.18569">
        <ele>2035.73</ele>
        <time>2016-10-27T12:17:24Z</time>
      </trkpt>
      <trkpt lat="44.83975" lon="6.18588">
        <ele>2033.33</ele>
        <time>2016-10-27T12:17:35Z</time>
      </trkpt>
      <trkpt lat="44.83974" lon="6.18593">
        <ele>2032.36</ele>
        <time>2016-10-27T12:17:39Z</time>
      </trkpt>
      <trkpt lat="44.83972" lon="6.18597">
        <ele>2030.92</ele>
        <time>2016-10-27T12:17:43Z</time>
      </trkpt>
      <trkpt lat="44.83961" lon="6.18602">
        <ele>2029.96</ele>
        <time>2016-10-27T12:17:49Z</time>
      </trkpt>
      <trkpt lat="44.83948" lon="6.18609">
        <ele>2027.56</ele>
        <time>2016-10-27T12:18:01Z</time>
      </trkpt>
      <trkpt lat="44.83945" lon="6.18614">
        <ele>2025.64</ele>
        <time>2016-10-27T12:18:07Z</time>
      </trkpt>
      <trkpt lat="44.83938" lon="6.1862">
        <ele>2024.19</ele>
        <time>2016-10-27T12:18:13Z</time>
      </trkpt>
      <trkpt lat="44.83935" lon="6.18627">
        <ele>2023.23</ele>
        <time>2016-10-27T12:18:18Z</time>
      </trkpt>
      <trkpt lat="44.83929" lon="6.18639">
        <ele>2019.87</ele>
        <time>2016-10-27T12:18:32Z</time>
      </trkpt>
      <trkpt lat="44.83927" lon="6.18644">
        <ele>2018.43</ele>
        <time>2016-10-27T12:18:38Z</time>
      </trkpt>
      <trkpt lat="44.83917" lon="6.1866">
        <ele>2016.5</ele>
        <time>2016-10-27T12:18:48Z</time>
      </trkpt>
      <trkpt lat="44.83911" lon="6.18671">
        <ele>2014.58</ele>
        <time>2016-10-27T12:18:57Z</time>
      </trkpt>
      <trkpt lat="44.83906" lon="6.18673">
        <ele>2013.14</ele>
        <time>2016-10-27T12:19:02Z</time>
      </trkpt>
      <trkpt lat="44.83902" lon="6.18688">
        <ele>2011.7</ele>
        <time>2016-10-27T12:19:09Z</time>
      </trkpt>
      <trkpt lat="44.83899" lon="6.18707">
        <ele>2008.81</ele>
        <time>2016-10-27T12:19:24Z</time>
      </trkpt>
      <trkpt lat="44.839" lon="6.1872">
        <ele>2005.93</ele>
        <time>2016-10-27T12:19:35Z</time>
      </trkpt>
      <trkpt lat="44.83902" lon="6.18723">
        <ele>2005.93</ele>
        <time>2016-10-27T12:19:37Z</time>
      </trkpt>
      <trkpt lat="44.83903" lon="6.18729">
        <ele>2005.45</ele>
        <time>2016-10-27T12:19:40Z</time>
      </trkpt>
      <trkpt lat="44.83897" lon="6.18736">
        <ele>2004.97</ele>
        <time>2016-10-27T12:19:47Z</time>
      </trkpt>
      <trkpt lat="44.83892" lon="6.1875">
        <ele>2002.08</ele>
        <time>2016-10-27T12:19:59Z</time>
      </trkpt>
      <trkpt lat="44.8389" lon="6.18758">
        <ele>2000.64</ele>
        <time>2016-10-27T12:20:06Z</time>
      </trkpt>
      <trkpt lat="44.83888" lon="6.18761">
        <ele>2000.16</ele>
        <time>2016-10-27T12:20:08Z</time>
      </trkpt>
      <trkpt lat="44.83886" lon="6.18768">
        <ele>1997.28</ele>
        <time>2016-10-27T12:20:22Z</time>
      </trkpt>
      <trkpt lat="44.83884" lon="6.18784">
        <ele>1996.8</ele>
        <time>2016-10-27T12:20:32Z</time>
      </trkpt>
      <trkpt lat="44.83882" lon="6.18793">
        <ele>1996.32</ele>
        <time>2016-10-27T12:20:37Z</time>
      </trkpt>
      <trkpt lat="44.83875" lon="6.18806">
        <ele>1994.87</ele>
        <time>2016-10-27T12:20:46Z</time>
      </trkpt>
      <trkpt lat="44.83875" lon="6.18816">
        <ele>1994.87</ele>
        <time>2016-10-27T12:20:50Z</time>
      </trkpt>
      <trkpt lat="44.83875" lon="6.18819">
        <ele>1994.39</ele>
        <time>2016-10-27T12:20:52Z</time>
      </trkpt>
      <trkpt lat="44.83873" lon="6.18826">
        <ele>1993.43</ele>
        <time>2016-10-27T12:20:56Z</time>
      </trkpt>
      <trkpt lat="44.83874" lon="6.18842">
        <ele>1991.99</ele>
        <time>2016-10-27T12:21:03Z</time>
      </trkpt>
      <trkpt lat="44.83869" lon="6.18849">
        <ele>1990.55</ele>
        <time>2016-10-27T12:21:07Z</time>
      </trkpt>
      <trkpt lat="44.83869" lon="6.1887">
        <ele>1989.1</ele>
        <time>2016-10-27T12:21:19Z</time>
      </trkpt>
      <trkpt lat="44.83869" lon="6.18873">
        <ele>1988.62</ele>
        <time>2016-10-27T12:21:21Z</time>
      </trkpt>
      <trkpt lat="44.83871" lon="6.18882">
        <ele>1988.14</ele>
        <time>2016-10-27T12:21:28Z</time>
      </trkpt>
      <trkpt lat="44.83875" lon="6.189">
        <ele>1987.18</ele>
        <time>2016-10-27T12:21:36Z</time>
      </trkpt>
      <trkpt lat="44.83877" lon="6.18915">
        <ele>1984.78</ele>
        <time>2016-10-27T12:21:48Z</time>
      </trkpt>
      <trkpt lat="44.83875" lon="6.18921">
        <ele>1984.3</ele>
        <time>2016-10-27T12:21:54Z</time>
      </trkpt>
      <trkpt lat="44.83876" lon="6.18931">
        <ele>1983.34</ele>
        <time>2016-10-27T12:22:01Z</time>
      </trkpt>
      <trkpt lat="44.83872" lon="6.18941">
        <ele>1980.45</ele>
        <time>2016-10-27T12:22:12Z</time>
      </trkpt>
      <trkpt lat="44.83867" lon="6.18942">
        <ele>1977.57</ele>
        <time>2016-10-27T12:22:22Z</time>
      </trkpt>
      <trkpt lat="44.83865" lon="6.18946">
        <ele>1975.17</ele>
        <time>2016-10-27T12:22:31Z</time>
      </trkpt>
      <trkpt lat="44.8386" lon="6.18945">
        <ele>1972.28</ele>
        <time>2016-10-27T12:22:41Z</time>
      </trkpt>
      <trkpt lat="44.83856" lon="6.18944">
        <ele>1970.36</ele>
        <time>2016-10-27T12:22:49Z</time>
      </trkpt>
      <trkpt lat="44.83855" lon="6.18946">
        <ele>1969.88</ele>
        <time>2016-10-27T12:22:51Z</time>
      </trkpt>
      <trkpt lat="44.83848" lon="6.18954">
        <ele>1966.03</ele>
        <time>2016-10-27T12:23:03Z</time>
      </trkpt>
      <trkpt lat="44.83845" lon="6.18953">
        <ele>1962.67</ele>
        <time>2016-10-27T12:23:13Z</time>
      </trkpt>
      <trkpt lat="44.83844" lon="6.18951">
        <ele>1962.19</ele>
        <time>2016-10-27T12:23:15Z</time>
      </trkpt>
      <trkpt lat="44.83842" lon="6.18943">
        <ele>1961.23</ele>
        <time>2016-10-27T12:23:19Z</time>
      </trkpt>
      <trkpt lat="44.83839" lon="6.18935">
        <ele>1959.78</ele>
        <time>2016-10-27T12:23:23Z</time>
      </trkpt>
      <trkpt lat="44.83838" lon="6.18927">
        <ele>1958.82</ele>
        <time>2016-10-27T12:23:26Z</time>
      </trkpt>
      <trkpt lat="44.83835" lon="6.18918">
        <ele>1955.46</ele>
        <time>2016-10-27T12:23:37Z</time>
      </trkpt>
      <trkpt lat="44.83832" lon="6.18919">
        <ele>1954.5</ele>
        <time>2016-10-27T12:23:40Z</time>
      </trkpt>
      <trkpt lat="44.83826" lon="6.18917">
        <ele>1951.61</ele>
        <time>2016-10-27T12:23:51Z</time>
      </trkpt>
      <trkpt lat="44.83826" lon="6.18918">
        <ele>1950.65</ele>
        <time>2016-10-27T12:23:53Z</time>
      </trkpt>
      <trkpt lat="44.83825" lon="6.18919">
        <ele>1950.65</ele>
        <time>2016-10-27T12:23:54Z</time>
      </trkpt>
      <trkpt lat="44.83822" lon="6.18919">
        <ele>1950.17</ele>
        <time>2016-10-27T12:23:55Z</time>
      </trkpt>
      <trkpt lat="44.83813" lon="6.18909">
        <ele>1946.81</ele>
        <time>2016-10-27T12:24:04Z</time>
      </trkpt>
      <trkpt lat="44.83809" lon="6.18908">
        <ele>1945.85</ele>
        <time>2016-10-27T12:24:08Z</time>
      </trkpt>
      <trkpt lat="44.83806" lon="6.18906">
        <ele>1942.96</ele>
        <time>2016-10-27T12:24:19Z</time>
      </trkpt>
      <trkpt lat="44.83806" lon="6.18915">
        <ele>1941.04</ele>
        <time>2016-10-27T12:24:25Z</time>
      </trkpt>
      <trkpt lat="44.83803" lon="6.18914">
        <ele>1939.6</ele>
        <time>2016-10-27T12:24:28Z</time>
      </trkpt>
      <trkpt lat="44.83801" lon="6.18916">
        <ele>1939.6</ele>
        <time>2016-10-27T12:24:29Z</time>
      </trkpt>
      <trkpt lat="44.83797" lon="6.18914">
        <ele>1937.67</ele>
        <time>2016-10-27T12:24:34Z</time>
      </trkpt>
      <trkpt lat="44.83794" lon="6.18914">
        <ele>1934.31</ele>
        <time>2016-10-27T12:24:44Z</time>
      </trkpt>
      <trkpt lat="44.83792" lon="6.18914">
        <ele>1931.43</ele>
        <time>2016-10-27T12:24:52Z</time>
      </trkpt>
      <trkpt lat="44.8379" lon="6.18917">
        <ele>1927.58</ele>
        <time>2016-10-27T12:25:03Z</time>
      </trkpt>
      <trkpt lat="44.83786" lon="6.18915">
        <ele>1925.66</ele>
        <time>2016-10-27T12:25:12Z</time>
      </trkpt>
      <trkpt lat="44.83786" lon="6.18913">
        <ele>1924.7</ele>
        <time>2016-10-27T12:25:14Z</time>
      </trkpt>
      <trkpt lat="44.8378" lon="6.18908">
        <ele>1921.81</ele>
        <time>2016-10-27T12:25:21Z</time>
      </trkpt>
      <trkpt lat="44.83779" lon="6.18906">
        <ele>1920.37</ele>
        <time>2016-10-27T12:25:26Z</time>
      </trkpt>
      <trkpt lat="44.83774" lon="6.18914">
        <ele>1916.53</ele>
        <time>2016-10-27T12:25:37Z</time>
      </trkpt>
      <trkpt lat="44.83771" lon="6.18916">
        <ele>1915.56</ele>
        <time>2016-10-27T12:25:41Z</time>
      </trkpt>
      <trkpt lat="44.8377" lon="6.18911">
        <ele>1914.12</ele>
        <time>2016-10-27T12:25:44Z</time>
      </trkpt>
      <trkpt lat="44.83769" lon="6.18909">
        <ele>1913.64</ele>
        <time>2016-10-27T12:25:45Z</time>
      </trkpt>
      <trkpt lat="44.83765" lon="6.18906">
        <ele>1913.16</ele>
        <time>2016-10-27T12:25:49Z</time>
      </trkpt>
      <trkpt lat="44.83759" lon="6.18911">
        <ele>1910.28</ele>
        <time>2016-10-27T12:25:56Z</time>
      </trkpt>
      <trkpt lat="44.83753" lon="6.18918">
        <ele>1906.91</ele>
        <time>2016-10-27T12:26:05Z</time>
      </trkpt>
      <trkpt lat="44.83752" lon="6.1892">
        <ele>1905.95</ele>
        <time>2016-10-27T12:26:07Z</time>
      </trkpt>
      <trkpt lat="44.8375" lon="6.18924">
        <ele>1904.99</ele>
        <time>2016-10-27T12:26:09Z</time>
      </trkpt>
      <trkpt lat="44.83748" lon="6.18933">
        <ele>1904.03</ele>
        <time>2016-10-27T12:26:14Z</time>
      </trkpt>
      <trkpt lat="44.8374" lon="6.18943">
        <ele>1901.14</ele>
        <time>2016-10-27T12:26:24Z</time>
      </trkpt>
      <trkpt lat="44.83736" lon="6.18947">
        <ele>1899.7</ele>
        <time>2016-10-27T12:26:29Z</time>
      </trkpt>
      <trkpt lat="44.83732" lon="6.18948">
        <ele>1897.78</ele>
        <time>2016-10-27T12:26:33Z</time>
      </trkpt>
      <trkpt lat="44.8373" lon="6.1895">
        <ele>1896.34</ele>
        <time>2016-10-27T12:26:40Z</time>
      </trkpt>
      <trkpt lat="44.83728" lon="6.18954">
        <ele>1894.42</ele>
        <time>2016-10-27T12:26:46Z</time>
      </trkpt>
      <trkpt lat="44.83726" lon="6.18956">
        <ele>1893.45</ele>
        <time>2016-10-27T12:26:48Z</time>
      </trkpt>
      <trkpt lat="44.83719" lon="6.18965">
        <ele>1890.09</ele>
        <time>2016-10-27T12:26:59Z</time>
      </trkpt>
      <trkpt lat="44.83712" lon="6.18973">
        <ele>1887.21</ele>
        <time>2016-10-27T12:27:09Z</time>
      </trkpt>
      <trkpt lat="44.83707" lon="6.18977">
        <ele>1884.8</ele>
        <time>2016-10-27T12:27:16Z</time>
      </trkpt>
      <trkpt lat="44.83703" lon="6.1898">
        <ele>1883.36</ele>
        <time>2016-10-27T12:27:21Z</time>
      </trkpt>
      <trkpt lat="44.83696" lon="6.1899">
        <ele>1880.48</ele>
        <time>2016-10-27T12:27:31Z</time>
      </trkpt>
      <trkpt lat="44.83692" lon="6.18994">
        <ele>1879.51</ele>
        <time>2016-10-27T12:27:36Z</time>
      </trkpt>
      <trkpt lat="44.83691" lon="6.18997">
        <ele>1878.55</ele>
        <time>2016-10-27T12:27:38Z</time>
      </trkpt>
      <trkpt lat="44.83684" lon="6.19013">
        <ele>1875.67</ele>
        <time>2016-10-27T12:27:50Z</time>
      </trkpt>
      <trkpt lat="44.83677" lon="6.19014">
        <ele>1873.75</ele>
        <time>2016-10-27T12:27:56Z</time>
      </trkpt>
      <trkpt lat="44.83672" lon="6.19012">
        <ele>1872.79</ele>
        <time>2016-10-27T12:28:01Z</time>
      </trkpt>
      <trkpt lat="44.83665" lon="6.19024">
        <ele>1869.9</ele>
        <time>2016-10-27T12:28:10Z</time>
      </trkpt>
      <trkpt lat="44.83657" lon="6.19027">
        <ele>1867.02</ele>
        <time>2016-10-27T12:28:20Z</time>
      </trkpt>
      <trkpt lat="44.8365" lon="6.19025">
        <ele>1865.09</ele>
        <time>2016-10-27T12:28:28Z</time>
      </trkpt>
      <trkpt lat="44.83647" lon="6.19022">
        <ele>1863.65</ele>
        <time>2016-10-27T12:28:32Z</time>
      </trkpt>
      <trkpt lat="44.83641" lon="6.19023">
        <ele>1861.25</ele>
        <time>2016-10-27T12:28:38Z</time>
      </trkpt>
      <trkpt lat="44.83636" lon="6.19018">
        <ele>1860.29</ele>
        <time>2016-10-27T12:28:42Z</time>
      </trkpt>
      <trkpt lat="44.83628" lon="6.19022">
        <ele>1856.92</ele>
        <time>2016-10-27T12:28:52Z</time>
      </trkpt>
      <trkpt lat="44.83624" lon="6.19027">
        <ele>1855.48</ele>
        <time>2016-10-27T12:28:57Z</time>
      </trkpt>
      <trkpt lat="44.83619" lon="6.19035">
        <ele>1852.6</ele>
        <time>2016-10-27T12:29:07Z</time>
      </trkpt>
      <trkpt lat="44.83616" lon="6.19029">
        <ele>1848.75</ele>
        <time>2016-10-27T12:29:20Z</time>
      </trkpt>
      <trkpt lat="44.83613" lon="6.19035">
        <ele>1847.31</ele>
        <time>2016-10-27T12:29:24Z</time>
      </trkpt>
      <trkpt lat="44.83614" lon="6.19036">
        <ele>1847.31</ele>
        <time>2016-10-27T12:29:27Z</time>
      </trkpt>
      <trkpt lat="44.83611" lon="6.19058">
        <ele>1843.95</ele>
        <time>2016-10-27T12:29:38Z</time>
      </trkpt>
      <trkpt lat="44.83607" lon="6.19065">
        <ele>1840.58</ele>
        <time>2016-10-27T12:29:48Z</time>
      </trkpt>
      <trkpt lat="44.83605" lon="6.19074">
        <ele>1837.22</ele>
        <time>2016-10-27T12:29:58Z</time>
      </trkpt>
      <trkpt lat="44.83603" lon="6.19076">
        <ele>1835.77</ele>
        <time>2016-10-27T12:30:10Z</time>
      </trkpt>
      <trkpt lat="44.83598" lon="6.19082">
        <ele>1833.37</ele>
        <time>2016-10-27T12:30:17Z</time>
      </trkpt>
      <trkpt lat="44.83597" lon="6.19085">
        <ele>1832.41</ele>
        <time>2016-10-27T12:30:19Z</time>
      </trkpt>
      <trkpt lat="44.83596" lon="6.19087">
        <ele>1831.45</ele>
        <time>2016-10-27T12:30:21Z</time>
      </trkpt>
      <trkpt lat="44.83592" lon="6.19093">
        <ele>1829.05</ele>
        <time>2016-10-27T12:30:28Z</time>
      </trkpt>
      <trkpt lat="44.83585" lon="6.19101">
        <ele>1826.16</ele>
        <time>2016-10-27T12:30:39Z</time>
      </trkpt>
      <trkpt lat="44.83584" lon="6.19102">
        <ele>1825.68</ele>
        <time>2016-10-27T12:30:40Z</time>
      </trkpt>
      <trkpt lat="44.83575" lon="6.19117">
        <ele>1822.32</ele>
        <time>2016-10-27T12:30:52Z</time>
      </trkpt>
      <trkpt lat="44.83569" lon="6.19123">
        <ele>1818.95</ele>
        <time>2016-10-27T12:31:03Z</time>
      </trkpt>
      <trkpt lat="44.83564" lon="6.19129">
        <ele>1816.55</ele>
        <time>2016-10-27T12:31:12Z</time>
      </trkpt>
      <trkpt lat="44.83559" lon="6.19137">
        <ele>1813.18</ele>
        <time>2016-10-27T12:31:26Z</time>
      </trkpt>
      <trkpt lat="44.83553" lon="6.19143">
        <ele>1809.82</ele>
        <time>2016-10-27T12:31:35Z</time>
      </trkpt>
      <trkpt lat="44.83552" lon="6.19144">
        <ele>1809.34</ele>
        <time>2016-10-27T12:31:36Z</time>
      </trkpt>
      <trkpt lat="44.83548" lon="6.1915">
        <ele>1808.38</ele>
        <time>2016-10-27T12:31:41Z</time>
      </trkpt>
      <trkpt lat="44.83546" lon="6.19152">
        <ele>1808.86</ele>
        <time>2016-10-27T12:31:43Z</time>
      </trkpt>
      <trkpt lat="44.83535" lon="6.19164">
        <ele>1805.01</ele>
        <time>2016-10-27T12:31:55Z</time>
      </trkpt>
      <trkpt lat="44.83527" lon="6.19181">
        <ele>1801.65</ele>
        <time>2016-10-27T12:32:06Z</time>
      </trkpt>
      <trkpt lat="44.83526" lon="6.19185">
        <ele>1801.17</ele>
        <time>2016-10-27T12:32:09Z</time>
      </trkpt>
      <trkpt lat="44.83513" lon="6.19192">
        <ele>1798.28</ele>
        <time>2016-10-27T12:32:19Z</time>
      </trkpt>
      <trkpt lat="44.83508" lon="6.19198">
        <ele>1795.4</ele>
        <time>2016-10-27T12:32:27Z</time>
      </trkpt>
      <trkpt lat="44.83503" lon="6.19203">
        <ele>1793.48</ele>
        <time>2016-10-27T12:32:35Z</time>
      </trkpt>
      <trkpt lat="44.83497" lon="6.19213">
        <ele>1791.55</ele>
        <time>2016-10-27T12:32:42Z</time>
      </trkpt>
      <trkpt lat="44.83495" lon="6.19216">
        <ele>1791.07</ele>
        <time>2016-10-27T12:32:44Z</time>
      </trkpt>
      <trkpt lat="44.83493" lon="6.19218">
        <ele>1789.63</ele>
        <time>2016-10-27T12:32:47Z</time>
      </trkpt>
      <trkpt lat="44.83491" lon="6.1922">
        <ele>1788.67</ele>
        <time>2016-10-27T12:32:51Z</time>
      </trkpt>
      <trkpt lat="44.83488" lon="6.19228">
        <ele>1786.27</ele>
        <time>2016-10-27T12:32:59Z</time>
      </trkpt>
      <trkpt lat="44.83486" lon="6.1923">
        <ele>1785.79</ele>
        <time>2016-10-27T12:33:01Z</time>
      </trkpt>
      <trkpt lat="44.83477" lon="6.19239">
        <ele>1781.94</ele>
        <time>2016-10-27T12:33:12Z</time>
      </trkpt>
      <trkpt lat="44.83476" lon="6.1924">
        <ele>1781.94</ele>
        <time>2016-10-27T12:33:13Z</time>
      </trkpt>
      <trkpt lat="44.83468" lon="6.19245">
        <ele>1779.06</ele>
        <time>2016-10-27T12:33:22Z</time>
      </trkpt>
      <trkpt lat="44.83459" lon="6.19243">
        <ele>1776.17</ele>
        <time>2016-10-27T12:33:31Z</time>
      </trkpt>
      <trkpt lat="44.83454" lon="6.19247">
        <ele>1774.73</ele>
        <time>2016-10-27T12:33:35Z</time>
      </trkpt>
      <trkpt lat="44.83453" lon="6.19249">
        <ele>1774.25</ele>
        <time>2016-10-27T12:33:36Z</time>
      </trkpt>
      <trkpt lat="44.83439" lon="6.19267">
        <ele>1770.41</ele>
        <time>2016-10-27T12:33:48Z</time>
      </trkpt>
      <trkpt lat="44.83438" lon="6.1927">
        <ele>1770.41</ele>
        <time>2016-10-27T12:33:50Z</time>
      </trkpt>
      <trkpt lat="44.83434" lon="6.19274">
        <ele>1768.96</ele>
        <time>2016-10-27T12:33:55Z</time>
      </trkpt>
      <trkpt lat="44.83432" lon="6.19281">
        <ele>1767.52</ele>
        <time>2016-10-27T12:34:01Z</time>
      </trkpt>
      <trkpt lat="44.83432" lon="6.19292">
        <ele>1766.56</ele>
        <time>2016-10-27T12:34:11Z</time>
      </trkpt>
      <trkpt lat="44.83431" lon="6.19297">
        <ele>1766.56</ele>
        <time>2016-10-27T12:34:16Z</time>
      </trkpt>
      <trkpt lat="44.8343" lon="6.193">
        <ele>1766.08</ele>
        <time>2016-10-27T12:34:18Z</time>
      </trkpt>
      <trkpt lat="44.83423" lon="6.19313">
        <ele>1764.64</ele>
        <time>2016-10-27T12:34:28Z</time>
      </trkpt>
      <trkpt lat="44.83418" lon="6.19319">
        <ele>1763.2</ele>
        <time>2016-10-27T12:34:34Z</time>
      </trkpt>
      <trkpt lat="44.83412" lon="6.19328">
        <ele>1762.23</ele>
        <time>2016-10-27T12:34:42Z</time>
      </trkpt>
      <trkpt lat="44.83403" lon="6.1935">
        <ele>1761.27</ele>
        <time>2016-10-27T12:34:53Z</time>
      </trkpt>
      <trkpt lat="44.83397" lon="6.19363">
        <ele>1759.35</ele>
        <time>2016-10-27T12:35:05Z</time>
      </trkpt>
      <trkpt lat="44.83394" lon="6.19369">
        <ele>1759.83</ele>
        <time>2016-10-27T12:35:08Z</time>
      </trkpt>
      <trkpt lat="44.83386" lon="6.19393">
        <ele>1757.91</ele>
        <time>2016-10-27T12:35:21Z</time>
      </trkpt>
      <trkpt lat="44.83385" lon="6.19394">
        <ele>1757.91</ele>
        <time>2016-10-27T12:35:22Z</time>
      </trkpt>
      <trkpt lat="44.83381" lon="6.19401">
        <ele>1756.95</ele>
        <time>2016-10-27T12:35:25Z</time>
      </trkpt>
      <trkpt lat="44.8338" lon="6.19406">
        <ele>1755.99</ele>
        <time>2016-10-27T12:35:29Z</time>
      </trkpt>
      <trkpt lat="44.83371" lon="6.19414">
        <ele>1753.1</ele>
        <time>2016-10-27T12:35:39Z</time>
      </trkpt>
      <trkpt lat="44.83369" lon="6.19415">
        <ele>1751.18</ele>
        <time>2016-10-27T12:35:42Z</time>
      </trkpt>
      <trkpt lat="44.83359" lon="6.19425">
        <ele>1747.81</ele>
        <time>2016-10-27T12:35:54Z</time>
      </trkpt>
      <trkpt lat="44.83357" lon="6.19428">
        <ele>1746.37</ele>
        <time>2016-10-27T12:35:59Z</time>
      </trkpt>
      <trkpt lat="44.83354" lon="6.19432">
        <ele>1746.37</ele>
        <time>2016-10-27T12:36:01Z</time>
      </trkpt>
      <trkpt lat="44.83342" lon="6.19446">
        <ele>1743.01</ele>
        <time>2016-10-27T12:36:10Z</time>
      </trkpt>
      <trkpt lat="44.83341" lon="6.1945">
        <ele>1741.08</ele>
        <time>2016-10-27T12:36:23Z</time>
      </trkpt>
      <trkpt lat="44.83341" lon="6.1945">
        <ele>1741.57</ele>
        <time>2016-10-27T12:36:24Z</time>
      </trkpt>
      <trkpt lat="44.83342" lon="6.19448">
        <ele>1741.08</ele>
        <time>2016-10-27T12:36:34Z</time>
      </trkpt>
      <trkpt lat="44.83342" lon="6.19448">
        <ele>1741.08</ele>
        <time>2016-10-27T12:36:50Z</time>
      </trkpt>
      <trkpt lat="44.83341" lon="6.1945">
        <ele>1740.6</ele>
        <time>2016-10-27T12:37:17Z</time>
      </trkpt>
      <trkpt lat="44.83341" lon="6.19449">
        <ele>1740.6</ele>
        <time>2016-10-27T12:37:34Z</time>
      </trkpt>
      <trkpt lat="44.83341" lon="6.19451">
        <ele>1740.12</ele>
        <time>2016-10-27T12:37:42Z</time>
      </trkpt>
      <trkpt lat="44.83342" lon="6.19466">
        <ele>1737.72</ele>
        <time>2016-10-27T12:37:51Z</time>
      </trkpt>
      <trkpt lat="44.8334" lon="6.19484">
        <ele>1734.84</ele>
        <time>2016-10-27T12:38:03Z</time>
      </trkpt>
      <trkpt lat="44.83338" lon="6.19489">
        <ele>1733.88</ele>
        <time>2016-10-27T12:38:06Z</time>
      </trkpt>
      <trkpt lat="44.83332" lon="6.19506">
        <ele>1731.95</ele>
        <time>2016-10-27T12:38:18Z</time>
      </trkpt>
      <trkpt lat="44.8333" lon="6.19509">
        <ele>1730.99</ele>
        <time>2016-10-27T12:38:24Z</time>
      </trkpt>
      <trkpt lat="44.83329" lon="6.19495">
        <ele>1727.63</ele>
        <time>2016-10-27T12:38:35Z</time>
      </trkpt>
      <trkpt lat="44.83323" lon="6.19479">
        <ele>1724.26</ele>
        <time>2016-10-27T12:38:45Z</time>
      </trkpt>
      <trkpt lat="44.8332" lon="6.19471">
        <ele>1721.86</ele>
        <time>2016-10-27T12:38:55Z</time>
      </trkpt>
      <trkpt lat="44.83315" lon="6.19471">
        <ele>1720.42</ele>
        <time>2016-10-27T12:38:59Z</time>
      </trkpt>
      <trkpt lat="44.83302" lon="6.19461">
        <ele>1717.05</ele>
        <time>2016-10-27T12:39:11Z</time>
      </trkpt>
      <trkpt lat="44.83301" lon="6.1946">
        <ele>1717.05</ele>
        <time>2016-10-27T12:39:12Z</time>
      </trkpt>
      <trkpt lat="44.83292" lon="6.19452">
        <ele>1714.65</ele>
        <time>2016-10-27T12:39:23Z</time>
      </trkpt>
      <trkpt lat="44.83295" lon="6.1945">
        <ele>1714.17</ele>
        <time>2016-10-27T12:39:47Z</time>
      </trkpt>
      <trkpt lat="44.83297" lon="6.19449">
        <ele>1714.17</ele>
        <time>2016-10-27T12:40:06Z</time>
      </trkpt>
      <trkpt lat="44.83296" lon="6.19449">
        <ele>1714.17</ele>
        <time>2016-10-27T12:40:41Z</time>
      </trkpt>
      <trkpt lat="44.83296" lon="6.1945">
        <ele>1714.17</ele>
        <time>2016-10-27T12:41:08Z</time>
      </trkpt>
      <trkpt lat="44.83296" lon="6.19449">
        <ele>1714.17</ele>
        <time>2016-10-27T12:41:41Z</time>
      </trkpt>
      <trkpt lat="44.83296" lon="6.19448">
        <ele>1713.69</ele>
        <time>2016-10-27T12:41:53Z</time>
      </trkpt>
      <trkpt lat="44.83295" lon="6.19441">
        <ele>1711.76</ele>
        <time>2016-10-27T12:41:59Z</time>
      </trkpt>
      <trkpt lat="44.83289" lon="6.19446">
        <ele>1710.8</ele>
        <time>2016-10-27T12:42:13Z</time>
      </trkpt>
      <trkpt lat="44.83289" lon="6.19447">
        <ele>1710.32</ele>
        <time>2016-10-27T12:42:21Z</time>
      </trkpt>
      <trkpt lat="44.83288" lon="6.19448">
        <ele>1710.8</ele>
        <time>2016-10-27T12:42:23Z</time>
      </trkpt>
      <trkpt lat="44.83287" lon="6.19452">
        <ele>1709.36</ele>
        <time>2016-10-27T12:42:26Z</time>
      </trkpt>
      <trkpt lat="44.83286" lon="6.19457">
        <ele>1708.4</ele>
        <time>2016-10-27T12:42:30Z</time>
      </trkpt>
      <trkpt lat="44.83281" lon="6.19465">
        <ele>1706</ele>
        <time>2016-10-27T12:42:42Z</time>
      </trkpt>
      <trkpt lat="44.83281" lon="6.19465">
        <ele>1706</ele>
        <time>2016-10-27T12:42:43Z</time>
      </trkpt>
      <trkpt lat="44.83283" lon="6.19467">
        <ele>1706</ele>
        <time>2016-10-27T12:42:45Z</time>
      </trkpt>
      <trkpt lat="44.83287" lon="6.19467">
        <ele>1704.07</ele>
        <time>2016-10-27T12:42:50Z</time>
      </trkpt>
      <trkpt lat="44.83289" lon="6.19469">
        <ele>1703.11</ele>
        <time>2016-10-27T12:42:53Z</time>
      </trkpt>
      <trkpt lat="44.83291" lon="6.19474">
        <ele>1701.19</ele>
        <time>2016-10-27T12:42:59Z</time>
      </trkpt>
      <trkpt lat="44.83292" lon="6.19476">
        <ele>1700.71</ele>
        <time>2016-10-27T12:43:01Z</time>
      </trkpt>
      <trkpt lat="44.83292" lon="6.19494">
        <ele>1699.27</ele>
        <time>2016-10-27T12:43:13Z</time>
      </trkpt>
      <trkpt lat="44.8329" lon="6.195">
        <ele>1697.34</ele>
        <time>2016-10-27T12:43:22Z</time>
      </trkpt>
      <trkpt lat="44.83283" lon="6.19509">
        <ele>1694.94</ele>
        <time>2016-10-27T12:43:34Z</time>
      </trkpt>
      <trkpt lat="44.83282" lon="6.19508">
        <ele>1693.5</ele>
        <time>2016-10-27T12:43:39Z</time>
      </trkpt>
      <trkpt lat="44.83282" lon="6.19494">
        <ele>1691.1</ele>
        <time>2016-10-27T12:43:49Z</time>
      </trkpt>
      <trkpt lat="44.83281" lon="6.19489">
        <ele>1689.65</ele>
        <time>2016-10-27T12:43:53Z</time>
      </trkpt>
      <trkpt lat="44.83278" lon="6.19491">
        <ele>1687.25</ele>
        <time>2016-10-27T12:44:03Z</time>
      </trkpt>
      <trkpt lat="44.83276" lon="6.19495">
        <ele>1685.81</ele>
        <time>2016-10-27T12:44:06Z</time>
      </trkpt>
      <trkpt lat="44.83272" lon="6.19498">
        <ele>1683.41</ele>
        <time>2016-10-27T12:44:17Z</time>
      </trkpt>
      <trkpt lat="44.8327" lon="6.19498">
        <ele>1681.96</ele>
        <time>2016-10-27T12:44:23Z</time>
      </trkpt>
      <trkpt lat="44.83265" lon="6.19496">
        <ele>1681</ele>
        <time>2016-10-27T12:44:27Z</time>
      </trkpt>
      <trkpt lat="44.83258" lon="6.19489">
        <ele>1678.12</ele>
        <time>2016-10-27T12:44:41Z</time>
      </trkpt>
      <trkpt lat="44.83257" lon="6.19488">
        <ele>1677.64</ele>
        <time>2016-10-27T12:44:43Z</time>
      </trkpt>
      <trkpt lat="44.83256" lon="6.19488">
        <ele>1676.68</ele>
        <time>2016-10-27T12:44:46Z</time>
      </trkpt>
      <trkpt lat="44.83253" lon="6.19487">
        <ele>1675.72</ele>
        <time>2016-10-27T12:44:50Z</time>
      </trkpt>
      <trkpt lat="44.83251" lon="6.19484">
        <ele>1674.27</ele>
        <time>2016-10-27T12:44:54Z</time>
      </trkpt>
      <trkpt lat="44.83246" lon="6.19486">
        <ele>1672.35</ele>
        <time>2016-10-27T12:45:02Z</time>
      </trkpt>
      <trkpt lat="44.83245" lon="6.19485">
        <ele>1671.87</ele>
        <time>2016-10-27T12:45:04Z</time>
      </trkpt>
      <trkpt lat="44.8324" lon="6.19486">
        <ele>1668.51</ele>
        <time>2016-10-27T12:45:15Z</time>
      </trkpt>
      <trkpt lat="44.83241" lon="6.19487">
        <ele>1666.58</ele>
        <time>2016-10-27T12:45:20Z</time>
      </trkpt>
      <trkpt lat="44.83238" lon="6.19495">
        <ele>1664.66</ele>
        <time>2016-10-27T12:45:26Z</time>
      </trkpt>
      <trkpt lat="44.83236" lon="6.19494">
        <ele>1664.18</ele>
        <time>2016-10-27T12:45:29Z</time>
      </trkpt>
      <trkpt lat="44.83233" lon="6.19489">
        <ele>1661.78</ele>
        <time>2016-10-27T12:45:38Z</time>
      </trkpt>
      <trkpt lat="44.83233" lon="6.19492">
        <ele>1661.3</ele>
        <time>2016-10-27T12:45:40Z</time>
      </trkpt>
      <trkpt lat="44.83232" lon="6.19494">
        <ele>1660.33</ele>
        <time>2016-10-27T12:45:43Z</time>
      </trkpt>
      <trkpt lat="44.83227" lon="6.1949">
        <ele>1657.45</ele>
        <time>2016-10-27T12:45:55Z</time>
      </trkpt>
      <trkpt lat="44.83224" lon="6.19491">
        <ele>1656.01</ele>
        <time>2016-10-27T12:46:05Z</time>
      </trkpt>
      <trkpt lat="44.83219" lon="6.1949">
        <ele>1656.01</ele>
        <time>2016-10-27T12:46:15Z</time>
      </trkpt>
      <trkpt lat="44.83215" lon="6.1949">
        <ele>1656.97</ele>
        <time>2016-10-27T12:46:24Z</time>
      </trkpt>
      <trkpt lat="44.83215" lon="6.19484">
        <ele>1656.49</ele>
        <time>2016-10-27T12:46:49Z</time>
      </trkpt>
      <trkpt lat="44.83216" lon="6.19483">
        <ele>1656.49</ele>
        <time>2016-10-27T12:47:16Z</time>
      </trkpt>
      <trkpt lat="44.83219" lon="6.19484">
        <ele>1656.01</ele>
        <time>2016-10-27T12:47:30Z</time>
      </trkpt>
      <trkpt lat="44.8322" lon="6.19486">
        <ele>1655.53</ele>
        <time>2016-10-27T12:47:35Z</time>
      </trkpt>
      <trkpt lat="44.83222" lon="6.19487">
        <ele>1655.53</ele>
        <time>2016-10-27T12:47:37Z</time>
      </trkpt>
      <trkpt lat="44.83222" lon="6.19494">
        <ele>1653.12</ele>
        <time>2016-10-27T12:47:48Z</time>
      </trkpt>
      <trkpt lat="44.83221" lon="6.19504">
        <ele>1650.72</ele>
        <time>2016-10-27T12:47:57Z</time>
      </trkpt>
      <trkpt lat="44.83218" lon="6.19516">
        <ele>1648.8</ele>
        <time>2016-10-27T12:48:08Z</time>
      </trkpt>
      <trkpt lat="44.83215" lon="6.19533">
        <ele>1646.4</ele>
        <time>2016-10-27T12:48:18Z</time>
      </trkpt>
      <trkpt lat="44.83214" lon="6.19536">
        <ele>1645.91</ele>
        <time>2016-10-27T12:48:19Z</time>
      </trkpt>
      <trkpt lat="44.83215" lon="6.1955">
        <ele>1644.47</ele>
        <time>2016-10-27T12:48:30Z</time>
      </trkpt>
      <trkpt lat="44.83217" lon="6.19557">
        <ele>1643.51</ele>
        <time>2016-10-27T12:48:34Z</time>
      </trkpt>
      <trkpt lat="44.83217" lon="6.19569">
        <ele>1641.59</ele>
        <time>2016-10-27T12:48:40Z</time>
      </trkpt>
      <trkpt lat="44.83215" lon="6.19586">
        <ele>1640.63</ele>
        <time>2016-10-27T12:48:48Z</time>
      </trkpt>
      <trkpt lat="44.83215" lon="6.19594">
        <ele>1641.11</ele>
        <time>2016-10-27T12:48:54Z</time>
      </trkpt>
      <trkpt lat="44.8321" lon="6.19616">
        <ele>1640.15</ele>
        <time>2016-10-27T12:49:06Z</time>
      </trkpt>
      <trkpt lat="44.83202" lon="6.19637">
        <ele>1640.15</ele>
        <time>2016-10-27T12:49:17Z</time>
      </trkpt>
      <trkpt lat="44.832" lon="6.19641">
        <ele>1640.15</ele>
        <time>2016-10-27T12:49:20Z</time>
      </trkpt>
      <trkpt lat="44.83197" lon="6.19645">
        <ele>1640.15</ele>
        <time>2016-10-27T12:49:26Z</time>
      </trkpt>
      <trkpt lat="44.83191" lon="6.19653">
        <ele>1642.55</ele>
        <time>2016-10-27T12:49:36Z</time>
      </trkpt>
      <trkpt lat="44.83187" lon="6.19661">
        <ele>1643.99</ele>
        <time>2016-10-27T12:49:45Z</time>
      </trkpt>
      <trkpt lat="44.83187" lon="6.19666">
        <ele>1643.51</ele>
        <time>2016-10-27T12:49:48Z</time>
      </trkpt>
      <trkpt lat="44.83178" lon="6.19671">
        <ele>1641.59</ele>
        <time>2016-10-27T12:50:00Z</time>
      </trkpt>
      <trkpt lat="44.83176" lon="6.19673">
        <ele>1641.11</ele>
        <time>2016-10-27T12:50:03Z</time>
      </trkpt>
      <trkpt lat="44.83171" lon="6.19675">
        <ele>1639.67</ele>
        <time>2016-10-27T12:50:14Z</time>
      </trkpt>
      <trkpt lat="44.83165" lon="6.19677">
        <ele>1637.74</ele>
        <time>2016-10-27T12:50:24Z</time>
      </trkpt>
      <trkpt lat="44.83165" lon="6.19677">
        <ele>1637.74</ele>
        <time>2016-10-27T12:50:25Z</time>
      </trkpt>
      <trkpt lat="44.83159" lon="6.19682">
        <ele>1635.34</ele>
        <time>2016-10-27T12:50:35Z</time>
      </trkpt>
      <trkpt lat="44.83159" lon="6.19683">
        <ele>1635.34</ele>
        <time>2016-10-27T12:50:37Z</time>
      </trkpt>
      <trkpt lat="44.8315" lon="6.19683">
        <ele>1632.46</ele>
        <time>2016-10-27T12:50:48Z</time>
      </trkpt>
      <trkpt lat="44.83149" lon="6.19684">
        <ele>1631.98</ele>
        <time>2016-10-27T12:50:50Z</time>
      </trkpt>
      <trkpt lat="44.83143" lon="6.19686">
        <ele>1630.53</ele>
        <time>2016-10-27T12:50:56Z</time>
      </trkpt>
      <trkpt lat="44.83132" lon="6.19688">
        <ele>1628.13</ele>
        <time>2016-10-27T12:51:06Z</time>
      </trkpt>
      <trkpt lat="44.83129" lon="6.19686">
        <ele>1627.65</ele>
        <time>2016-10-27T12:51:09Z</time>
      </trkpt>
      <trkpt lat="44.83124" lon="6.1969">
        <ele>1626.69</ele>
        <time>2016-10-27T12:51:12Z</time>
      </trkpt>
      <trkpt lat="44.83115" lon="6.19698">
        <ele>1625.73</ele>
        <time>2016-10-27T12:51:20Z</time>
      </trkpt>
      <trkpt lat="44.83106" lon="6.19687">
        <ele>1623.8</ele>
        <time>2016-10-27T12:51:32Z</time>
      </trkpt>
      <trkpt lat="44.83107" lon="6.19687">
        <ele>1624.77</ele>
        <time>2016-10-27T12:51:38Z</time>
      </trkpt>
      <trkpt lat="44.83102" lon="6.19686">
        <ele>1623.32</ele>
        <time>2016-10-27T12:51:44Z</time>
      </trkpt>
      <trkpt lat="44.83098" lon="6.19684">
        <ele>1621.88</ele>
        <time>2016-10-27T12:51:49Z</time>
      </trkpt>
      <trkpt lat="44.83094" lon="6.19679">
        <ele>1620.44</ele>
        <time>2016-10-27T12:52:02Z</time>
      </trkpt>
      <trkpt lat="44.83093" lon="6.19679">
        <ele>1620.44</ele>
        <time>2016-10-27T12:52:24Z</time>
      </trkpt>
      <trkpt lat="44.83094" lon="6.19681">
        <ele>1620.44</ele>
        <time>2016-10-27T12:52:44Z</time>
      </trkpt>
      <trkpt lat="44.83095" lon="6.19688">
        <ele>1620.92</ele>
        <time>2016-10-27T12:52:47Z</time>
      </trkpt>
      <trkpt lat="44.831" lon="6.19693">
        <ele>1621.88</ele>
        <time>2016-10-27T12:52:52Z</time>
      </trkpt>
      <trkpt lat="44.83102" lon="6.19695">
        <ele>1622.36</ele>
        <time>2016-10-27T12:52:56Z</time>
      </trkpt>
      <trkpt lat="44.83106" lon="6.19703">
        <ele>1621.4</ele>
        <time>2016-10-27T12:53:02Z</time>
      </trkpt>
      <trkpt lat="44.831" lon="6.1971">
        <ele>1618.04</ele>
        <time>2016-10-27T12:53:13Z</time>
      </trkpt>
      <trkpt lat="44.83095" lon="6.19711">
        <ele>1615.15</ele>
        <time>2016-10-27T12:53:22Z</time>
      </trkpt>
      <trkpt lat="44.83093" lon="6.1971">
        <ele>1614.19</ele>
        <time>2016-10-27T12:53:25Z</time>
      </trkpt>
      <trkpt lat="44.83091" lon="6.19708">
        <ele>1613.71</ele>
        <time>2016-10-27T12:53:28Z</time>
      </trkpt>
      <trkpt lat="44.8309" lon="6.19709">
        <ele>1612.27</ele>
        <time>2016-10-27T12:53:32Z</time>
      </trkpt>
      <trkpt lat="44.83086" lon="6.19718">
        <ele>1609.38</ele>
        <time>2016-10-27T12:53:43Z</time>
      </trkpt>
      <trkpt lat="44.83085" lon="6.19717">
        <ele>1610.35</ele>
        <time>2016-10-27T12:53:45Z</time>
      </trkpt>
      <trkpt lat="44.83079" lon="6.19713">
        <ele>1608.42</ele>
        <time>2016-10-27T12:53:50Z</time>
      </trkpt>
      <trkpt lat="44.83079" lon="6.19708">
        <ele>1606.5</ele>
        <time>2016-10-27T12:53:57Z</time>
      </trkpt>
      <trkpt lat="44.83075" lon="6.19708">
        <ele>1606.02</ele>
        <time>2016-10-27T12:54:00Z</time>
      </trkpt>
      <trkpt lat="44.83075" lon="6.19705">
        <ele>1605.54</ele>
        <time>2016-10-27T12:54:03Z</time>
      </trkpt>
      <trkpt lat="44.8307" lon="6.19705">
        <ele>1603.14</ele>
        <time>2016-10-27T12:54:12Z</time>
      </trkpt>
      <trkpt lat="44.83068" lon="6.19706">
        <ele>1601.69</ele>
        <time>2016-10-27T12:54:16Z</time>
      </trkpt>
      <trkpt lat="44.83068" lon="6.19695">
        <ele>1598.81</ele>
        <time>2016-10-27T12:54:26Z</time>
      </trkpt>
      <trkpt lat="44.83068" lon="6.19684">
        <ele>1595.93</ele>
        <time>2016-10-27T12:54:36Z</time>
      </trkpt>
      <trkpt lat="44.83067" lon="6.19685">
        <ele>1595.45</ele>
        <time>2016-10-27T12:54:38Z</time>
      </trkpt>
      <trkpt lat="44.83063" lon="6.19685">
        <ele>1594.48</ele>
        <time>2016-10-27T12:54:42Z</time>
      </trkpt>
      <trkpt lat="44.83061" lon="6.19687">
        <ele>1594</ele>
        <time>2016-10-27T12:54:44Z</time>
      </trkpt>
      <trkpt lat="44.83056" lon="6.19693">
        <ele>1592.56</ele>
        <time>2016-10-27T12:54:49Z</time>
      </trkpt>
      <trkpt lat="44.83048" lon="6.19697">
        <ele>1589.2</ele>
        <time>2016-10-27T12:55:01Z</time>
      </trkpt>
      <trkpt lat="44.83045" lon="6.19695">
        <ele>1588.24</ele>
        <time>2016-10-27T12:55:05Z</time>
      </trkpt>
      <trkpt lat="44.83037" lon="6.19691">
        <ele>1584.87</ele>
        <time>2016-10-27T12:55:17Z</time>
      </trkpt>
      <trkpt lat="44.83036" lon="6.19694">
        <ele>1583.91</ele>
        <time>2016-10-27T12:55:20Z</time>
      </trkpt>
      <trkpt lat="44.83035" lon="6.19696">
        <ele>1583.43</ele>
        <time>2016-10-27T12:55:22Z</time>
      </trkpt>
      <trkpt lat="44.83033" lon="6.19697">
        <ele>1582.47</ele>
        <time>2016-10-27T12:55:25Z</time>
      </trkpt>
      <trkpt lat="44.83027" lon="6.19696">
        <ele>1580.54</ele>
        <time>2016-10-27T12:55:32Z</time>
      </trkpt>
      <trkpt lat="44.83018" lon="6.197">
        <ele>1578.62</ele>
        <time>2016-10-27T12:55:42Z</time>
      </trkpt>
      <trkpt lat="44.83016" lon="6.19696">
        <ele>1577.66</ele>
        <time>2016-10-27T12:55:56Z</time>
      </trkpt>
      <trkpt lat="44.83014" lon="6.19696">
        <ele>1577.18</ele>
        <time>2016-10-27T12:55:59Z</time>
      </trkpt>
      <trkpt lat="44.83011" lon="6.19691">
        <ele>1575.74</ele>
        <time>2016-10-27T12:56:04Z</time>
      </trkpt>
      <trkpt lat="44.83005" lon="6.19693">
        <ele>1574.78</ele>
        <time>2016-10-27T12:56:09Z</time>
      </trkpt>
      <trkpt lat="44.82998" lon="6.19695">
        <ele>1572.37</ele>
        <time>2016-10-27T12:56:20Z</time>
      </trkpt>
      <trkpt lat="44.82995" lon="6.19697">
        <ele>1572.37</ele>
        <time>2016-10-27T12:56:25Z</time>
      </trkpt>
      <trkpt lat="44.82987" lon="6.19699">
        <ele>1572.37</ele>
        <time>2016-10-27T12:56:35Z</time>
      </trkpt>
      <trkpt lat="44.82984" lon="6.19694">
        <ele>1571.41</ele>
        <time>2016-10-27T12:56:45Z</time>
      </trkpt>
      <trkpt lat="44.82983" lon="6.19694">
        <ele>1571.41</ele>
        <time>2016-10-27T12:56:46Z</time>
      </trkpt>
      <trkpt lat="44.82984" lon="6.19692">
        <ele>1570.93</ele>
        <time>2016-10-27T12:57:01Z</time>
      </trkpt>
      <trkpt lat="44.82983" lon="6.19692">
        <ele>1570.93</ele>
        <time>2016-10-27T12:57:27Z</time>
      </trkpt>
      <trkpt lat="44.82984" lon="6.19693">
        <ele>1570.93</ele>
        <time>2016-10-27T12:57:53Z</time>
      </trkpt>
      <trkpt lat="44.82984" lon="6.19691">
        <ele>1570.93</ele>
        <time>2016-10-27T12:58:08Z</time>
      </trkpt>
      <trkpt lat="44.82993" lon="6.19692">
        <ele>1571.41</ele>
        <time>2016-10-27T12:58:18Z</time>
      </trkpt>
      <trkpt lat="44.82995" lon="6.19693">
        <ele>1569.49</ele>
        <time>2016-10-27T12:58:27Z</time>
      </trkpt>
      <trkpt lat="44.82995" lon="6.19694">
        <ele>1568.05</ele>
        <time>2016-10-27T12:58:33Z</time>
      </trkpt>
      <trkpt lat="44.82988" lon="6.197">
        <ele>1565.16</ele>
        <time>2016-10-27T12:58:44Z</time>
      </trkpt>
      <trkpt lat="44.82984" lon="6.19701">
        <ele>1563.24</ele>
        <time>2016-10-27T12:58:52Z</time>
      </trkpt>
      <trkpt lat="44.8299" lon="6.19704">
        <ele>1562.28</ele>
        <time>2016-10-27T12:58:57Z</time>
      </trkpt>
      <trkpt lat="44.82992" lon="6.19704">
        <ele>1562.76</ele>
        <time>2016-10-27T12:59:00Z</time>
      </trkpt>
      <trkpt lat="44.83001" lon="6.19713">
        <ele>1560.84</ele>
        <time>2016-10-27T12:59:11Z</time>
      </trkpt>
      <trkpt lat="44.83002" lon="6.19713">
        <ele>1559.88</ele>
        <time>2016-10-27T12:59:30Z</time>
      </trkpt>
      <trkpt lat="44.83004" lon="6.19715">
        <ele>1558.92</ele>
        <time>2016-10-27T12:59:34Z</time>
      </trkpt>
      <trkpt lat="44.83012" lon="6.19721">
        <ele>1556.51</ele>
        <time>2016-10-27T12:59:43Z</time>
      </trkpt>
      <trkpt lat="44.83013" lon="6.19723">
        <ele>1555.55</ele>
        <time>2016-10-27T12:59:47Z</time>
      </trkpt>
      <trkpt lat="44.83015" lon="6.19724">
        <ele>1555.07</ele>
        <time>2016-10-27T12:59:49Z</time>
      </trkpt>
      <trkpt lat="44.83019" lon="6.19743">
        <ele>1552.67</ele>
        <time>2016-10-27T13:00:00Z</time>
      </trkpt>
      <trkpt lat="44.83016" lon="6.1975">
        <ele>1550.74</ele>
        <time>2016-10-27T13:00:07Z</time>
      </trkpt>
      <trkpt lat="44.83011" lon="6.19745">
        <ele>1548.82</ele>
        <time>2016-10-27T13:00:18Z</time>
      </trkpt>
      <trkpt lat="44.83006" lon="6.19744">
        <ele>1547.38</ele>
        <time>2016-10-27T13:00:22Z</time>
      </trkpt>
      <trkpt lat="44.83" lon="6.19746">
        <ele>1545.46</ele>
        <time>2016-10-27T13:00:29Z</time>
      </trkpt>
      <trkpt lat="44.83" lon="6.19746">
        <ele>1544.98</ele>
        <time>2016-10-27T13:00:31Z</time>
      </trkpt>
      <trkpt lat="44.83003" lon="6.19759">
        <ele>1542.09</ele>
        <time>2016-10-27T13:00:42Z</time>
      </trkpt>
      <trkpt lat="44.83003" lon="6.19763">
        <ele>1541.13</ele>
        <time>2016-10-27T13:00:45Z</time>
      </trkpt>
      <trkpt lat="44.83003" lon="6.19766">
        <ele>1540.65</ele>
        <time>2016-10-27T13:00:47Z</time>
      </trkpt>
      <trkpt lat="44.83" lon="6.19784">
        <ele>1536.8</ele>
        <time>2016-10-27T13:00:59Z</time>
      </trkpt>
      <trkpt lat="44.82996" lon="6.19788">
        <ele>1535.36</ele>
        <time>2016-10-27T13:01:05Z</time>
      </trkpt>
      <trkpt lat="44.82994" lon="6.19784">
        <ele>1533.44</ele>
        <time>2016-10-27T13:01:13Z</time>
      </trkpt>
      <trkpt lat="44.82992" lon="6.1978">
        <ele>1531.52</ele>
        <time>2016-10-27T13:01:21Z</time>
      </trkpt>
      <trkpt lat="44.82986" lon="6.19776">
        <ele>1530.08</ele>
        <time>2016-10-27T13:01:27Z</time>
      </trkpt>
      <trkpt lat="44.82977" lon="6.19759">
        <ele>1527.67</ele>
        <time>2016-10-27T13:01:37Z</time>
      </trkpt>
      <trkpt lat="44.82972" lon="6.19759">
        <ele>1524.79</ele>
        <time>2016-10-27T13:01:47Z</time>
      </trkpt>
      <trkpt lat="44.82972" lon="6.19768">
        <ele>1523.35</ele>
        <time>2016-10-27T13:01:53Z</time>
      </trkpt>
      <trkpt lat="44.82974" lon="6.19778">
        <ele>1521.9</ele>
        <time>2016-10-27T13:01:58Z</time>
      </trkpt>
      <trkpt lat="44.82971" lon="6.19791">
        <ele>1519.5</ele>
        <time>2016-10-27T13:02:08Z</time>
      </trkpt>
      <trkpt lat="44.82966" lon="6.19812">
        <ele>1519.02</ele>
        <time>2016-10-27T13:02:15Z</time>
      </trkpt>
      <trkpt lat="44.82959" lon="6.19822">
        <ele>1516.62</ele>
        <time>2016-10-27T13:02:23Z</time>
      </trkpt>
      <trkpt lat="44.82955" lon="6.19826">
        <ele>1515.66</ele>
        <time>2016-10-27T13:02:29Z</time>
      </trkpt>
      <trkpt lat="44.82953" lon="6.19826">
        <ele>1514.69</ele>
        <time>2016-10-27T13:02:31Z</time>
      </trkpt>
      <trkpt lat="44.82948" lon="6.19843">
        <ele>1512.77</ele>
        <time>2016-10-27T13:02:40Z</time>
      </trkpt>
      <trkpt lat="44.82947" lon="6.19847">
        <ele>1512.29</ele>
        <time>2016-10-27T13:02:42Z</time>
      </trkpt>
      <trkpt lat="44.82948" lon="6.19858">
        <ele>1509.89</ele>
        <time>2016-10-27T13:02:52Z</time>
      </trkpt>
      <trkpt lat="44.8294" lon="6.19859">
        <ele>1507.48</ele>
        <time>2016-10-27T13:03:02Z</time>
      </trkpt>
      <trkpt lat="44.82937" lon="6.19858">
        <ele>1507</ele>
        <time>2016-10-27T13:03:06Z</time>
      </trkpt>
      <trkpt lat="44.82931" lon="6.19847">
        <ele>1506.04</ele>
        <time>2016-10-27T13:03:10Z</time>
      </trkpt>
      <trkpt lat="44.82929" lon="6.19833">
        <ele>1503.16</ele>
        <time>2016-10-27T13:03:20Z</time>
      </trkpt>
      <trkpt lat="44.82928" lon="6.1982">
        <ele>1500.76</ele>
        <time>2016-10-27T13:03:29Z</time>
      </trkpt>
      <trkpt lat="44.82924" lon="6.19816">
        <ele>1499.31</ele>
        <time>2016-10-27T13:03:35Z</time>
      </trkpt>
      <trkpt lat="44.82921" lon="6.19819">
        <ele>1498.35</ele>
        <time>2016-10-27T13:03:38Z</time>
      </trkpt>
      <trkpt lat="44.82919" lon="6.1982">
        <ele>1496.91</ele>
        <time>2016-10-27T13:03:42Z</time>
      </trkpt>
      <trkpt lat="44.82917" lon="6.1982">
        <ele>1496.91</ele>
        <time>2016-10-27T13:03:44Z</time>
      </trkpt>
      <trkpt lat="44.8291" lon="6.19837">
        <ele>1494.51</ele>
        <time>2016-10-27T13:03:54Z</time>
      </trkpt>
      <trkpt lat="44.82909" lon="6.19843">
        <ele>1493.55</ele>
        <time>2016-10-27T13:03:59Z</time>
      </trkpt>
      <trkpt lat="44.82908" lon="6.1985">
        <ele>1492.1</ele>
        <time>2016-10-27T13:04:06Z</time>
      </trkpt>
      <trkpt lat="44.82897" lon="6.19832">
        <ele>1488.26</ele>
        <time>2016-10-27T13:04:18Z</time>
      </trkpt>
      <trkpt lat="44.82895" lon="6.19826">
        <ele>1487.3</ele>
        <time>2016-10-27T13:04:21Z</time>
      </trkpt>
      <trkpt lat="44.82892" lon="6.19819">
        <ele>1486.34</ele>
        <time>2016-10-27T13:04:26Z</time>
      </trkpt>
      <trkpt lat="44.8289" lon="6.19802">
        <ele>1482.97</ele>
        <time>2016-10-27T13:04:37Z</time>
      </trkpt>
      <trkpt lat="44.82888" lon="6.19792">
        <ele>1480.57</ele>
        <time>2016-10-27T13:04:48Z</time>
      </trkpt>
      <trkpt lat="44.82886" lon="6.19793">
        <ele>1479.13</ele>
        <time>2016-10-27T13:04:53Z</time>
      </trkpt>
      <trkpt lat="44.82885" lon="6.19793">
        <ele>1478.65</ele>
        <time>2016-10-27T13:04:55Z</time>
      </trkpt>
      <trkpt lat="44.82879" lon="6.19795">
        <ele>1476.72</ele>
        <time>2016-10-27T13:05:00Z</time>
      </trkpt>
      <trkpt lat="44.82877" lon="6.19805">
        <ele>1474.32</ele>
        <time>2016-10-27T13:05:08Z</time>
      </trkpt>
      <trkpt lat="44.82867" lon="6.19821">
        <ele>1472.4</ele>
        <time>2016-10-27T13:05:17Z</time>
      </trkpt>
      <trkpt lat="44.82865" lon="6.19824">
        <ele>1471.92</ele>
        <time>2016-10-27T13:05:19Z</time>
      </trkpt>
      <trkpt lat="44.82862" lon="6.19829">
        <ele>1470.95</ele>
        <time>2016-10-27T13:05:22Z</time>
      </trkpt>
      <trkpt lat="44.8286" lon="6.19831">
        <ele>1469.03</ele>
        <time>2016-10-27T13:05:28Z</time>
      </trkpt>
      <trkpt lat="44.82857" lon="6.19831">
        <ele>1468.55</ele>
        <time>2016-10-27T13:05:31Z</time>
      </trkpt>
      <trkpt lat="44.82854" lon="6.19812">
        <ele>1466.15</ele>
        <time>2016-10-27T13:05:40Z</time>
      </trkpt>
      <trkpt lat="44.82852" lon="6.19807">
        <ele>1465.67</ele>
        <time>2016-10-27T13:05:43Z</time>
      </trkpt>
      <trkpt lat="44.82846" lon="6.19792">
        <ele>1463.26</ele>
        <time>2016-10-27T13:05:52Z</time>
      </trkpt>
      <trkpt lat="44.82842" lon="6.19787">
        <ele>1461.34</ele>
        <time>2016-10-27T13:05:58Z</time>
      </trkpt>
      <trkpt lat="44.8284" lon="6.19787">
        <ele>1460.38</ele>
        <time>2016-10-27T13:06:04Z</time>
      </trkpt>
      <trkpt lat="44.82837" lon="6.19788">
        <ele>1458.94</ele>
        <time>2016-10-27T13:06:08Z</time>
      </trkpt>
      <trkpt lat="44.82829" lon="6.19804">
        <ele>1457.02</ele>
        <time>2016-10-27T13:06:17Z</time>
      </trkpt>
      <trkpt lat="44.82824" lon="6.19813">
        <ele>1455.57</ele>
        <time>2016-10-27T13:06:23Z</time>
      </trkpt>
      <trkpt lat="44.82817" lon="6.19818">
        <ele>1453.65</ele>
        <time>2016-10-27T13:06:31Z</time>
      </trkpt>
      <trkpt lat="44.82814" lon="6.19812">
        <ele>1452.21</ele>
        <time>2016-10-27T13:06:36Z</time>
      </trkpt>
      <trkpt lat="44.82808" lon="6.19796">
        <ele>1449.32</ele>
        <time>2016-10-27T13:06:47Z</time>
      </trkpt>
      <trkpt lat="44.82803" lon="6.19786">
        <ele>1445.96</ele>
        <time>2016-10-27T13:06:56Z</time>
      </trkpt>
      <trkpt lat="44.82802" lon="6.19785">
        <ele>1445.48</ele>
        <time>2016-10-27T13:06:58Z</time>
      </trkpt>
      <trkpt lat="44.82801" lon="6.19787">
        <ele>1445.48</ele>
        <time>2016-10-27T13:07:00Z</time>
      </trkpt>
      <trkpt lat="44.828" lon="6.19788">
        <ele>1445</ele>
        <time>2016-10-27T13:07:01Z</time>
      </trkpt>
      <trkpt lat="44.82798" lon="6.1979">
        <ele>1444.04</ele>
        <time>2016-10-27T13:07:06Z</time>
      </trkpt>
      <trkpt lat="44.82792" lon="6.19793">
        <ele>1442.11</ele>
        <time>2016-10-27T13:07:13Z</time>
      </trkpt>
      <trkpt lat="44.82782" lon="6.19805">
        <ele>1440.19</ele>
        <time>2016-10-27T13:07:21Z</time>
      </trkpt>
      <trkpt lat="44.82775" lon="6.19816">
        <ele>1436.83</ele>
        <time>2016-10-27T13:07:32Z</time>
      </trkpt>
      <trkpt lat="44.82775" lon="6.19818">
        <ele>1436.83</ele>
        <time>2016-10-27T13:07:33Z</time>
      </trkpt>
      <trkpt lat="44.8277" lon="6.19817">
        <ele>1434.42</ele>
        <time>2016-10-27T13:07:40Z</time>
      </trkpt>
      <trkpt lat="44.82768" lon="6.19811">
        <ele>1432.02</ele>
        <time>2016-10-27T13:07:50Z</time>
      </trkpt>
      <trkpt lat="44.82767" lon="6.1981">
        <ele>1431.06</ele>
        <time>2016-10-27T13:07:53Z</time>
      </trkpt>
      <trkpt lat="44.82761" lon="6.19813">
        <ele>1429.62</ele>
        <time>2016-10-27T13:08:00Z</time>
      </trkpt>
      <trkpt lat="44.8276" lon="6.19815">
        <ele>1429.14</ele>
        <time>2016-10-27T13:08:01Z</time>
      </trkpt>
      <trkpt lat="44.82755" lon="6.1982">
        <ele>1426.73</ele>
        <time>2016-10-27T13:08:11Z</time>
      </trkpt>
      <trkpt lat="44.82754" lon="6.19819">
        <ele>1425.77</ele>
        <time>2016-10-27T13:08:12Z</time>
      </trkpt>
      <trkpt lat="44.82753" lon="6.19813">
        <ele>1425.29</ele>
        <time>2016-10-27T13:08:15Z</time>
      </trkpt>
      <trkpt lat="44.82749" lon="6.19815">
        <ele>1424.81</ele>
        <time>2016-10-27T13:08:17Z</time>
      </trkpt>
      <trkpt lat="44.82748" lon="6.19817">
        <ele>1424.33</ele>
        <time>2016-10-27T13:08:18Z</time>
      </trkpt>
      <trkpt lat="44.82745" lon="6.19822">
        <ele>1423.37</ele>
        <time>2016-10-27T13:08:22Z</time>
      </trkpt>
      <trkpt lat="44.82741" lon="6.19819">
        <ele>1420.49</ele>
        <time>2016-10-27T13:08:29Z</time>
      </trkpt>
      <trkpt lat="44.8274" lon="6.1982">
        <ele>1420</ele>
        <time>2016-10-27T13:08:30Z</time>
      </trkpt>
      <trkpt lat="44.82733" lon="6.19822">
        <ele>1418.08</ele>
        <time>2016-10-27T13:08:38Z</time>
      </trkpt>
      <trkpt lat="44.82729" lon="6.19814">
        <ele>1416.64</ele>
        <time>2016-10-27T13:08:54Z</time>
      </trkpt>
      <trkpt lat="44.82726" lon="6.19813">
        <ele>1416.64</ele>
        <time>2016-10-27T13:09:12Z</time>
      </trkpt>
      <trkpt lat="44.82725" lon="6.19812">
        <ele>1416.64</ele>
        <time>2016-10-27T13:09:36Z</time>
      </trkpt>
      <trkpt lat="44.82725" lon="6.19812">
        <ele>1416.64</ele>
        <time>2016-10-27T13:09:48Z</time>
      </trkpt>
      <trkpt lat="44.82644" lon="6.19845">
        <ele>1417.12</ele>
        <time>2016-10-27T13:10:10Z</time>
      </trkpt>
      <trkpt lat="44.82647" lon="6.19809">
        <ele>1417.12</ele>
        <time>2016-10-27T13:10:28Z</time>
      </trkpt>
      <trkpt lat="44.8265" lon="6.198">
        <ele>1417.6</ele>
        <time>2016-10-27T13:10:51Z</time>
      </trkpt>
      <trkpt lat="44.82652" lon="6.19802">
        <ele>1414.72</ele>
        <time>2016-10-27T13:11:00Z</time>
      </trkpt>
      <trkpt lat="44.82652" lon="6.19801">
        <ele>1416.64</ele>
        <time>2016-10-27T13:11:01Z</time>
      </trkpt>
      <trkpt lat="44.82662" lon="6.19811">
        <ele>1418.56</ele>
        <time>2016-10-27T13:11:28Z</time>
      </trkpt>
      <trkpt lat="44.82661" lon="6.19809">
        <ele>1417.12</ele>
        <time>2016-10-27T13:11:29Z</time>
      </trkpt>
      <trkpt lat="44.82659" lon="6.19803">
        <ele>1416.16</ele>
        <time>2016-10-27T13:11:33Z</time>
      </trkpt>
      <trkpt lat="44.82656" lon="6.19814">
        <ele>1416.64</ele>
        <time>2016-10-27T13:11:59Z</time>
      </trkpt>
      <trkpt lat="44.82669" lon="6.19823">
        <ele>1416.64</ele>
        <time>2016-10-27T13:12:21Z</time>
      </trkpt>
      <trkpt lat="44.82667" lon="6.19815">
        <ele>1417.12</ele>
        <time>2016-10-27T13:12:39Z</time>
      </trkpt>
      <trkpt lat="44.82663" lon="6.19811">
        <ele>1417.12</ele>
        <time>2016-10-27T13:13:03Z</time>
      </trkpt>
      <trkpt lat="44.82661" lon="6.19808">
        <ele>1417.12</ele>
        <time>2016-10-27T13:13:27Z</time>
      </trkpt>
      <trkpt lat="44.8266" lon="6.19808">
        <ele>1417.12</ele>
        <time>2016-10-27T13:13:49Z</time>
      </trkpt>
      <trkpt lat="44.8266" lon="6.1981">
        <ele>1417.12</ele>
        <time>2016-10-27T13:14:16Z</time>
      </trkpt>
      <trkpt lat="44.82659" lon="6.19812">
        <ele>1417.12</ele>
        <time>2016-10-27T13:14:42Z</time>
      </trkpt>
      <trkpt lat="44.82658" lon="6.1981">
        <ele>1417.12</ele>
        <time>2016-10-27T13:14:58Z</time>
      </trkpt>
      <trkpt lat="44.82655" lon="6.19807">
        <ele>1417.12</ele>
        <time>2016-10-27T13:15:23Z</time>
      </trkpt>
      <trkpt lat="44.82654" lon="6.19807">
        <ele>1416.64</ele>
        <time>2016-10-27T13:15:31Z</time>
      </trkpt>
      <trkpt lat="44.82655" lon="6.19806">
        <ele>1416.64</ele>
        <time>2016-10-27T13:15:45Z</time>
      </trkpt>
      <trkpt lat="44.82657" lon="6.19805">
        <ele>1416.64</ele>
        <time>2016-10-27T13:16:08Z</time>
      </trkpt>
      <trkpt lat="44.8266" lon="6.19805">
        <ele>1416.64</ele>
        <time>2016-10-27T13:16:32Z</time>
      </trkpt>
      <trkpt lat="44.82661" lon="6.19806">
        <ele>1416.16</ele>
        <time>2016-10-27T13:16:55Z</time>
      </trkpt>
      <trkpt lat="44.82663" lon="6.19807">
        <ele>1416.64</ele>
        <time>2016-10-27T13:17:10Z</time>
      </trkpt>
      <trkpt lat="44.82671" lon="6.19807">
        <ele>1416.64</ele>
        <time>2016-10-27T13:17:32Z</time>
      </trkpt>
      <trkpt lat="44.82671" lon="6.19809">
        <ele>1416.64</ele>
        <time>2016-10-27T13:17:57Z</time>
      </trkpt>
      <trkpt lat="44.82671" lon="6.1981">
        <ele>1416.64</ele>
        <time>2016-10-27T13:18:09Z</time>
      </trkpt>
      <trkpt lat="44.82669" lon="6.19812">
        <ele>1416.64</ele>
        <time>2016-10-27T13:18:26Z</time>
      </trkpt>
      <trkpt lat="44.82666" lon="6.19811">
        <ele>1416.64</ele>
        <time>2016-10-27T13:18:43Z</time>
      </trkpt>
      <trkpt lat="44.82677" lon="6.19826">
        <ele>1416.64</ele>
        <time>2016-10-27T13:19:10Z</time>
      </trkpt>
      <trkpt lat="44.8268" lon="6.19823">
        <ele>1416.16</ele>
        <time>2016-10-27T13:19:28Z</time>
      </trkpt>
      <trkpt lat="44.82681" lon="6.19823">
        <ele>1416.64</ele>
        <time>2016-10-27T13:19:49Z</time>
      </trkpt>
      <trkpt lat="44.8269" lon="6.19829">
        <ele>1416.64</ele>
        <time>2016-10-27T13:20:13Z</time>
      </trkpt>
      <trkpt lat="44.82693" lon="6.19832">
        <ele>1416.16</ele>
        <time>2016-10-27T13:20:40Z</time>
      </trkpt>
      <trkpt lat="44.82691" lon="6.19836">
        <ele>1414.72</ele>
        <time>2016-10-27T13:20:51Z</time>
      </trkpt>
      <trkpt lat="44.8269" lon="6.19838">
        <ele>1414.72</ele>
        <time>2016-10-27T13:20:52Z</time>
      </trkpt>
      <trkpt lat="44.82683" lon="6.19833">
        <ele>1412.31</ele>
        <time>2016-10-27T13:20:59Z</time>
      </trkpt>
      <trkpt lat="44.82676" lon="6.19829">
        <ele>1410.39</ele>
        <time>2016-10-27T13:21:05Z</time>
      </trkpt>
      <trkpt lat="44.82675" lon="6.1983">
        <ele>1409.91</ele>
        <time>2016-10-27T13:21:06Z</time>
      </trkpt>
      <trkpt lat="44.82671" lon="6.19831">
        <ele>1409.43</ele>
        <time>2016-10-27T13:21:08Z</time>
      </trkpt>
      <trkpt lat="44.82661" lon="6.19835">
        <ele>1406.55</ele>
        <time>2016-10-27T13:21:18Z</time>
      </trkpt>
      <trkpt lat="44.8266" lon="6.19838">
        <ele>1405.58</ele>
        <time>2016-10-27T13:21:20Z</time>
      </trkpt>
      <trkpt lat="44.8266" lon="6.19843">
        <ele>1404.62</ele>
        <time>2016-10-27T13:21:25Z</time>
      </trkpt>
      <trkpt lat="44.82662" lon="6.19843">
        <ele>1404.14</ele>
        <time>2016-10-27T13:21:27Z</time>
      </trkpt>
      <trkpt lat="44.82664" lon="6.19861">
        <ele>1401.74</ele>
        <time>2016-10-27T13:21:33Z</time>
      </trkpt>
      <trkpt lat="44.82661" lon="6.19871">
        <ele>1400.78</ele>
        <time>2016-10-27T13:21:36Z</time>
      </trkpt>
      <trkpt lat="44.82658" lon="6.19877">
        <ele>1399.82</ele>
        <time>2016-10-27T13:21:39Z</time>
      </trkpt>
      <trkpt lat="44.82651" lon="6.19894">
        <ele>1396.93</ele>
        <time>2016-10-27T13:21:49Z</time>
      </trkpt>
      <trkpt lat="44.82649" lon="6.19899">
        <ele>1396.45</ele>
        <time>2016-10-27T13:21:51Z</time>
      </trkpt>
      <trkpt lat="44.82643" lon="6.19905">
        <ele>1395.49</ele>
        <time>2016-10-27T13:21:54Z</time>
      </trkpt>
      <trkpt lat="44.8264" lon="6.19905">
        <ele>1395.49</ele>
        <time>2016-10-27T13:21:56Z</time>
      </trkpt>
      <trkpt lat="44.82638" lon="6.19908">
        <ele>1394.53</ele>
        <time>2016-10-27T13:21:58Z</time>
      </trkpt>
      <trkpt lat="44.82635" lon="6.1991">
        <ele>1393.57</ele>
        <time>2016-10-27T13:22:01Z</time>
      </trkpt>
      <trkpt lat="44.82634" lon="6.19911">
        <ele>1393.57</ele>
        <time>2016-10-27T13:22:02Z</time>
      </trkpt>
      <trkpt lat="44.82627" lon="6.19913">
        <ele>1390.68</ele>
        <time>2016-10-27T13:22:10Z</time>
      </trkpt>
      <trkpt lat="44.82622" lon="6.19912">
        <ele>1388.76</ele>
        <time>2016-10-27T13:22:16Z</time>
      </trkpt>
      <trkpt lat="44.82621" lon="6.19914">
        <ele>1388.76</ele>
        <time>2016-10-27T13:22:17Z</time>
      </trkpt>
      <trkpt lat="44.82616" lon="6.19917">
        <ele>1388.28</ele>
        <time>2016-10-27T13:22:20Z</time>
      </trkpt>
      <trkpt lat="44.82608" lon="6.19924">
        <ele>1386.36</ele>
        <time>2016-10-27T13:22:30Z</time>
      </trkpt>
      <trkpt lat="44.82601" lon="6.19932">
        <ele>1384.92</ele>
        <time>2016-10-27T13:22:39Z</time>
      </trkpt>
      <trkpt lat="44.826" lon="6.19932">
        <ele>1384.44</ele>
        <time>2016-10-27T13:22:40Z</time>
      </trkpt>
      <trkpt lat="44.826" lon="6.19932">
        <ele>1384.44</ele>
        <time>2016-10-27T13:22:41Z</time>
      </trkpt>
      <trkpt lat="44.82593" lon="6.19942">
        <ele>1382.51</ele>
        <time>2016-10-27T13:22:46Z</time>
      </trkpt>
      <trkpt lat="44.82589" lon="6.19943">
        <ele>1382.03</ele>
        <time>2016-10-27T13:22:48Z</time>
      </trkpt>
      <trkpt lat="44.82586" lon="6.19947">
        <ele>1381.55</ele>
        <time>2016-10-27T13:22:51Z</time>
      </trkpt>
      <trkpt lat="44.82577" lon="6.19953">
        <ele>1378.19</ele>
        <time>2016-10-27T13:23:00Z</time>
      </trkpt>
      <trkpt lat="44.82575" lon="6.19955">
        <ele>1377.23</ele>
        <time>2016-10-27T13:23:03Z</time>
      </trkpt>
      <trkpt lat="44.82568" lon="6.19959">
        <ele>1376.26</ele>
        <time>2016-10-27T13:23:07Z</time>
      </trkpt>
      <trkpt lat="44.82556" lon="6.19969">
        <ele>1373.86</ele>
        <time>2016-10-27T13:23:13Z</time>
      </trkpt>
      <trkpt lat="44.82554" lon="6.19971">
        <ele>1373.38</ele>
        <time>2016-10-27T13:23:14Z</time>
      </trkpt>
      <trkpt lat="44.82551" lon="6.19972">
        <ele>1372.9</ele>
        <time>2016-10-27T13:23:16Z</time>
      </trkpt>
      <trkpt lat="44.8254" lon="6.19987">
        <ele>1370.98</ele>
        <time>2016-10-27T13:23:24Z</time>
      </trkpt>
      <trkpt lat="44.82539" lon="6.19986">
        <ele>1370.5</ele>
        <time>2016-10-27T13:23:25Z</time>
      </trkpt>
      <trkpt lat="44.82538" lon="6.19984">
        <ele>1370.5</ele>
        <time>2016-10-27T13:23:26Z</time>
      </trkpt>
      <trkpt lat="44.82533" lon="6.19977">
        <ele>1369.54</ele>
        <time>2016-10-27T13:23:30Z</time>
      </trkpt>
      <trkpt lat="44.8253" lon="6.19975">
        <ele>1368.09</ele>
        <time>2016-10-27T13:23:33Z</time>
      </trkpt>
      <trkpt lat="44.82529" lon="6.19973">
        <ele>1367.61</ele>
        <time>2016-10-27T13:23:34Z</time>
      </trkpt>
      <trkpt lat="44.82528" lon="6.19973">
        <ele>1367.61</ele>
        <time>2016-10-27T13:23:35Z</time>
      </trkpt>
      <trkpt lat="44.82524" lon="6.19976">
        <ele>1366.65</ele>
        <time>2016-10-27T13:23:38Z</time>
      </trkpt>
      <trkpt lat="44.82521" lon="6.19983">
        <ele>1365.69</ele>
        <time>2016-10-27T13:23:41Z</time>
      </trkpt>
      <trkpt lat="44.8252" lon="6.19985">
        <ele>1365.69</ele>
        <time>2016-10-27T13:23:42Z</time>
      </trkpt>
      <trkpt lat="44.82518" lon="6.19985">
        <ele>1365.21</ele>
        <time>2016-10-27T13:23:43Z</time>
      </trkpt>
      <trkpt lat="44.82514" lon="6.1999">
        <ele>1364.25</ele>
        <time>2016-10-27T13:23:47Z</time>
      </trkpt>
      <trkpt lat="44.82509" lon="6.1999">
        <ele>1363.29</ele>
        <time>2016-10-27T13:23:50Z</time>
      </trkpt>
      <trkpt lat="44.82505" lon="6.19995">
        <ele>1362.33</ele>
        <time>2016-10-27T13:23:53Z</time>
      </trkpt>
      <trkpt lat="44.82504" lon="6.19996">
        <ele>1361.84</ele>
        <time>2016-10-27T13:23:55Z</time>
      </trkpt>
      <trkpt lat="44.82503" lon="6.19994">
        <ele>1360.88</ele>
        <time>2016-10-27T13:23:57Z</time>
      </trkpt>
      <trkpt lat="44.82498" lon="6.19996">
        <ele>1359.92</ele>
        <time>2016-10-27T13:24:01Z</time>
      </trkpt>
      <trkpt lat="44.82498" lon="6.19995">
        <ele>1359.44</ele>
        <time>2016-10-27T13:24:02Z</time>
      </trkpt>
      <trkpt lat="44.82493" lon="6.19998">
        <ele>1358</ele>
        <time>2016-10-27T13:24:07Z</time>
      </trkpt>
      <trkpt lat="44.82492" lon="6.19999">
        <ele>1357.04</ele>
        <time>2016-10-27T13:24:09Z</time>
      </trkpt>
      <trkpt lat="44.82491" lon="6.20001">
        <ele>1357.04</ele>
        <time>2016-10-27T13:24:11Z</time>
      </trkpt>
      <trkpt lat="44.82485" lon="6.19995">
        <ele>1353.67</ele>
        <time>2016-10-27T13:24:18Z</time>
      </trkpt>
      <trkpt lat="44.8248" lon="6.20003">
        <ele>1352.71</ele>
        <time>2016-10-27T13:24:22Z</time>
      </trkpt>
      <trkpt lat="44.82479" lon="6.20003">
        <ele>1352.23</ele>
        <time>2016-10-27T13:24:23Z</time>
      </trkpt>
      <trkpt lat="44.82475" lon="6.20009">
        <ele>1350.31</ele>
        <time>2016-10-27T13:24:27Z</time>
      </trkpt>
      <trkpt lat="44.82474" lon="6.20009">
        <ele>1349.83</ele>
        <time>2016-10-27T13:24:28Z</time>
      </trkpt>
      <trkpt lat="44.82473" lon="6.2001">
        <ele>1349.83</ele>
        <time>2016-10-27T13:24:29Z</time>
      </trkpt>
      <trkpt lat="44.82466" lon="6.20023">
        <ele>1346.46</ele>
        <time>2016-10-27T13:24:39Z</time>
      </trkpt>
      <trkpt lat="44.82465" lon="6.20025">
        <ele>1346.46</ele>
        <time>2016-10-27T13:24:40Z</time>
      </trkpt>
      <trkpt lat="44.82464" lon="6.20027">
        <ele>1344.54</ele>
        <time>2016-10-27T13:24:44Z</time>
      </trkpt>
      <trkpt lat="44.82463" lon="6.20028">
        <ele>1344.06</ele>
        <time>2016-10-27T13:24:46Z</time>
      </trkpt>
      <trkpt lat="44.82457" lon="6.20031">
        <ele>1341.66</ele>
        <time>2016-10-27T13:24:55Z</time>
      </trkpt>
      <trkpt lat="44.82456" lon="6.20031">
        <ele>1340.7</ele>
        <time>2016-10-27T13:24:58Z</time>
      </trkpt>
      <trkpt lat="44.82456" lon="6.20033">
        <ele>1340.7</ele>
        <time>2016-10-27T13:24:59Z</time>
      </trkpt>
      <trkpt lat="44.82455" lon="6.20034">
        <ele>1340.22</ele>
        <time>2016-10-27T13:25:01Z</time>
      </trkpt>
      <trkpt lat="44.8245" lon="6.20045">
        <ele>1336.85</ele>
        <time>2016-10-27T13:25:10Z</time>
      </trkpt>
      <trkpt lat="44.82447" lon="6.20061">
        <ele>1334.93</ele>
        <time>2016-10-27T13:25:16Z</time>
      </trkpt>
      <trkpt lat="44.82446" lon="6.20061">
        <ele>1334.45</ele>
        <time>2016-10-27T13:25:17Z</time>
      </trkpt>
      <trkpt lat="44.82441" lon="6.20066">
        <ele>1332.52</ele>
        <time>2016-10-27T13:25:23Z</time>
      </trkpt>
      <trkpt lat="44.82434" lon="6.20084">
        <ele>1331.08</ele>
        <time>2016-10-27T13:25:35Z</time>
      </trkpt>
      <trkpt lat="44.82432" lon="6.20091">
        <ele>1330.12</ele>
        <time>2016-10-27T13:25:37Z</time>
      </trkpt>
      <trkpt lat="44.82426" lon="6.20098">
        <ele>1327.72</ele>
        <time>2016-10-27T13:25:44Z</time>
      </trkpt>
      <trkpt lat="44.82425" lon="6.20104">
        <ele>1326.76</ele>
        <time>2016-10-27T13:25:48Z</time>
      </trkpt>
      <trkpt lat="44.82424" lon="6.20104">
        <ele>1325.8</ele>
        <time>2016-10-27T13:25:49Z</time>
      </trkpt>
      <trkpt lat="44.82417" lon="6.2012">
        <ele>1322.91</ele>
        <time>2016-10-27T13:25:57Z</time>
      </trkpt>
      <trkpt lat="44.82438" lon="6.20074">
        <ele>1321.95</ele>
        <time>2016-10-27T13:26:00Z</time>
      </trkpt>
      <trkpt lat="44.82448" lon="6.20091">
        <ele>1319.07</ele>
        <time>2016-10-27T13:26:09Z</time>
      </trkpt>
      <trkpt lat="44.82454" lon="6.2011">
        <ele>1318.1</ele>
        <time>2016-10-27T13:26:15Z</time>
      </trkpt>
      <trkpt lat="44.82459" lon="6.20131">
        <ele>1317.62</ele>
        <time>2016-10-27T13:26:24Z</time>
      </trkpt>
      <trkpt lat="44.82463" lon="6.20147">
        <ele>1314.74</ele>
        <time>2016-10-27T13:26:36Z</time>
      </trkpt>
      <trkpt lat="44.82463" lon="6.20146">
        <ele>1314.26</ele>
        <time>2016-10-27T13:26:38Z</time>
      </trkpt>
      <trkpt lat="44.82458" lon="6.20157">
        <ele>1311.38</ele>
        <time>2016-10-27T13:26:48Z</time>
      </trkpt>
      <trkpt lat="44.82454" lon="6.20164">
        <ele>1309.45</ele>
        <time>2016-10-27T13:26:53Z</time>
      </trkpt>
      <trkpt lat="44.8245" lon="6.20165">
        <ele>1308.49</ele>
        <time>2016-10-27T13:26:55Z</time>
      </trkpt>
      <trkpt lat="44.82446" lon="6.20172">
        <ele>1307.05</ele>
        <time>2016-10-27T13:26:59Z</time>
      </trkpt>
      <trkpt lat="44.82444" lon="6.20174">
        <ele>1305.61</ele>
        <time>2016-10-27T13:27:03Z</time>
      </trkpt>
      <trkpt lat="44.8244" lon="6.20184">
        <ele>1303.2</ele>
        <time>2016-10-27T13:27:09Z</time>
      </trkpt>
      <trkpt lat="44.82435" lon="6.20193">
        <ele>1301.28</ele>
        <time>2016-10-27T13:27:18Z</time>
      </trkpt>
      <trkpt lat="44.82431" lon="6.20197">
        <ele>1299.84</ele>
        <time>2016-10-27T13:27:25Z</time>
      </trkpt>
      <trkpt lat="44.82419" lon="6.20204">
        <ele>1296.96</ele>
        <time>2016-10-27T13:27:33Z</time>
      </trkpt>
      <trkpt lat="44.82413" lon="6.2021">
        <ele>1295.03</ele>
        <time>2016-10-27T13:27:38Z</time>
      </trkpt>
      <trkpt lat="44.82411" lon="6.20211">
        <ele>1294.07</ele>
        <time>2016-10-27T13:27:40Z</time>
      </trkpt>
      <trkpt lat="44.82409" lon="6.20217">
        <ele>1293.59</ele>
        <time>2016-10-27T13:27:43Z</time>
      </trkpt>
      <trkpt lat="44.82405" lon="6.20231">
        <ele>1290.23</ele>
        <time>2016-10-27T13:27:53Z</time>
      </trkpt>
      <trkpt lat="44.82404" lon="6.20234">
        <ele>1289.75</ele>
        <time>2016-10-27T13:27:55Z</time>
      </trkpt>
      <trkpt lat="44.82402" lon="6.20237">
        <ele>1288.78</ele>
        <time>2016-10-27T13:27:57Z</time>
      </trkpt>
      <trkpt lat="44.82393" lon="6.20218">
        <ele>1285.42</ele>
        <time>2016-10-27T13:28:06Z</time>
      </trkpt>
      <trkpt lat="44.82394" lon="6.20216">
        <ele>1284.46</ele>
        <time>2016-10-27T13:28:08Z</time>
      </trkpt>
      <trkpt lat="44.82394" lon="6.20213">
        <ele>1283.98</ele>
        <time>2016-10-27T13:28:10Z</time>
      </trkpt>
      <trkpt lat="44.82394" lon="6.20199">
        <ele>1280.61</ele>
        <time>2016-10-27T13:28:21Z</time>
      </trkpt>
      <trkpt lat="44.82395" lon="6.20198">
        <ele>1280.61</ele>
        <time>2016-10-27T13:28:22Z</time>
      </trkpt>
      <trkpt lat="44.82398" lon="6.20188">
        <ele>1279.17</ele>
        <time>2016-10-27T13:28:26Z</time>
      </trkpt>
      <trkpt lat="44.82399" lon="6.20185">
        <ele>1277.25</ele>
        <time>2016-10-27T13:28:34Z</time>
      </trkpt>
      <trkpt lat="44.82394" lon="6.20191">
        <ele>1276.77</ele>
        <time>2016-10-27T13:28:38Z</time>
      </trkpt>
      <trkpt lat="44.82384" lon="6.202">
        <ele>1274.36</ele>
        <time>2016-10-27T13:28:44Z</time>
      </trkpt>
      <trkpt lat="44.8238" lon="6.202">
        <ele>1273.4</ele>
        <time>2016-10-27T13:28:47Z</time>
      </trkpt>
      <trkpt lat="44.82378" lon="6.20203">
        <ele>1272.44</ele>
        <time>2016-10-27T13:28:50Z</time>
      </trkpt>
      <trkpt lat="44.82375" lon="6.20211">
        <ele>1270.04</ele>
        <time>2016-10-27T13:28:55Z</time>
      </trkpt>
      <trkpt lat="44.82373" lon="6.20221">
        <ele>1268.12</ele>
        <time>2016-10-27T13:29:03Z</time>
      </trkpt>
      <trkpt lat="44.82372" lon="6.20214">
        <ele>1267.16</ele>
        <time>2016-10-27T13:29:07Z</time>
      </trkpt>
      <trkpt lat="44.8237" lon="6.20199">
        <ele>1264.75</ele>
        <time>2016-10-27T13:29:15Z</time>
      </trkpt>
      <trkpt lat="44.8237" lon="6.20193">
        <ele>1263.79</ele>
        <time>2016-10-27T13:29:18Z</time>
      </trkpt>
      <trkpt lat="44.82373" lon="6.20178">
        <ele>1261.39</ele>
        <time>2016-10-27T13:29:26Z</time>
      </trkpt>
      <trkpt lat="44.82373" lon="6.20174">
        <ele>1260.91</ele>
        <time>2016-10-27T13:29:28Z</time>
      </trkpt>
      <trkpt lat="44.82374" lon="6.20167">
        <ele>1259.46</ele>
        <time>2016-10-27T13:29:32Z</time>
      </trkpt>
      <trkpt lat="44.82375" lon="6.20163">
        <ele>1258.98</ele>
        <time>2016-10-27T13:29:34Z</time>
      </trkpt>
      <trkpt lat="44.82375" lon="6.20161">
        <ele>1258.5</ele>
        <time>2016-10-27T13:29:36Z</time>
      </trkpt>
      <trkpt lat="44.82367" lon="6.2017">
        <ele>1255.62</ele>
        <time>2016-10-27T13:29:44Z</time>
      </trkpt>
      <trkpt lat="44.82355" lon="6.20185">
        <ele>1252.25</ele>
        <time>2016-10-27T13:29:54Z</time>
      </trkpt>
      <trkpt lat="44.82348" lon="6.20197">
        <ele>1248.89</ele>
        <time>2016-10-27T13:30:04Z</time>
      </trkpt>
      <trkpt lat="44.82344" lon="6.20205">
        <ele>1246.49</ele>
        <time>2016-10-27T13:30:09Z</time>
      </trkpt>
      <trkpt lat="44.82343" lon="6.20211">
        <ele>1246.01</ele>
        <time>2016-10-27T13:30:12Z</time>
      </trkpt>
      <trkpt lat="44.82339" lon="6.20216">
        <ele>1244.56</ele>
        <time>2016-10-27T13:30:16Z</time>
      </trkpt>
      <trkpt lat="44.82333" lon="6.20231">
        <ele>1241.2</ele>
        <time>2016-10-27T13:30:25Z</time>
      </trkpt>
      <trkpt lat="44.8233" lon="6.20249">
        <ele>1239.28</ele>
        <time>2016-10-27T13:30:32Z</time>
      </trkpt>
      <trkpt lat="44.82329" lon="6.20253">
        <ele>1238.8</ele>
        <time>2016-10-27T13:30:35Z</time>
      </trkpt>
      <trkpt lat="44.82326" lon="6.20253">
        <ele>1237.83</ele>
        <time>2016-10-27T13:30:38Z</time>
      </trkpt>
      <trkpt lat="44.82325" lon="6.20247">
        <ele>1236.39</ele>
        <time>2016-10-27T13:30:42Z</time>
      </trkpt>
      <trkpt lat="44.82326" lon="6.20244">
        <ele>1235.91</ele>
        <time>2016-10-27T13:30:44Z</time>
      </trkpt>
      <trkpt lat="44.82321" lon="6.20216">
        <ele>1233.51</ele>
        <time>2016-10-27T13:30:55Z</time>
      </trkpt>
      <trkpt lat="44.82321" lon="6.20214">
        <ele>1233.51</ele>
        <time>2016-10-27T13:30:56Z</time>
      </trkpt>
      <trkpt lat="44.82319" lon="6.202">
        <ele>1231.59</ele>
        <time>2016-10-27T13:31:03Z</time>
      </trkpt>
      <trkpt lat="44.82319" lon="6.20181">
        <ele>1227.26</ele>
        <time>2016-10-27T13:31:13Z</time>
      </trkpt>
      <trkpt lat="44.82319" lon="6.20179">
        <ele>1227.26</ele>
        <time>2016-10-27T13:31:14Z</time>
      </trkpt>
      <trkpt lat="44.82322" lon="6.20167">
        <ele>1225.34</ele>
        <time>2016-10-27T13:31:20Z</time>
      </trkpt>
      <trkpt lat="44.82323" lon="6.20147">
        <ele>1221.49</ele>
        <time>2016-10-27T13:31:33Z</time>
      </trkpt>
      <trkpt lat="44.82324" lon="6.20144">
        <ele>1221.01</ele>
        <time>2016-10-27T13:31:36Z</time>
      </trkpt>
      <trkpt lat="44.82325" lon="6.20131">
        <ele>1219.57</ele>
        <time>2016-10-27T13:31:41Z</time>
      </trkpt>
      <trkpt lat="44.82324" lon="6.20127">
        <ele>1218.61</ele>
        <time>2016-10-27T13:31:45Z</time>
      </trkpt>
      <trkpt lat="44.82322" lon="6.2013">
        <ele>1217.65</ele>
        <time>2016-10-27T13:31:48Z</time>
      </trkpt>
      <trkpt lat="44.8232" lon="6.20137">
        <ele>1216.21</ele>
        <time>2016-10-27T13:31:53Z</time>
      </trkpt>
      <trkpt lat="44.82316" lon="6.20141">
        <ele>1214.76</ele>
        <time>2016-10-27T13:31:57Z</time>
      </trkpt>
      <trkpt lat="44.8231" lon="6.20151">
        <ele>1212.84</ele>
        <time>2016-10-27T13:32:03Z</time>
      </trkpt>
      <trkpt lat="44.82305" lon="6.2016">
        <ele>1211.4</ele>
        <time>2016-10-27T13:32:09Z</time>
      </trkpt>
      <trkpt lat="44.82304" lon="6.20163">
        <ele>1210.44</ele>
        <time>2016-10-27T13:32:11Z</time>
      </trkpt>
      <trkpt lat="44.82299" lon="6.20172">
        <ele>1207.07</ele>
        <time>2016-10-27T13:32:22Z</time>
      </trkpt>
      <trkpt lat="44.82296" lon="6.20172">
        <ele>1206.59</ele>
        <time>2016-10-27T13:32:25Z</time>
      </trkpt>
      <trkpt lat="44.82294" lon="6.20177">
        <ele>1205.63</ele>
        <time>2016-10-27T13:32:28Z</time>
      </trkpt>
      <trkpt lat="44.82293" lon="6.20183">
        <ele>1205.15</ele>
        <time>2016-10-27T13:32:30Z</time>
      </trkpt>
      <trkpt lat="44.82285" lon="6.20189">
        <ele>1201.79</ele>
        <time>2016-10-27T13:32:39Z</time>
      </trkpt>
      <trkpt lat="44.82284" lon="6.20189">
        <ele>1200.82</ele>
        <time>2016-10-27T13:32:41Z</time>
      </trkpt>
      <trkpt lat="44.82283" lon="6.20185">
        <ele>1200.34</ele>
        <time>2016-10-27T13:32:43Z</time>
      </trkpt>
      <trkpt lat="44.82282" lon="6.20176">
        <ele>1199.38</ele>
        <time>2016-10-27T13:32:47Z</time>
      </trkpt>
      <trkpt lat="44.82281" lon="6.20172">
        <ele>1198.42</ele>
        <time>2016-10-27T13:32:50Z</time>
      </trkpt>
      <trkpt lat="44.82281" lon="6.20161">
        <ele>1196.98</ele>
        <time>2016-10-27T13:32:56Z</time>
      </trkpt>
      <trkpt lat="44.82282" lon="6.2015">
        <ele>1194.58</ele>
        <time>2016-10-27T13:33:02Z</time>
      </trkpt>
      <trkpt lat="44.82285" lon="6.2014">
        <ele>1193.61</ele>
        <time>2016-10-27T13:33:07Z</time>
      </trkpt>
      <trkpt lat="44.82284" lon="6.20125">
        <ele>1190.25</ele>
        <time>2016-10-27T13:33:18Z</time>
      </trkpt>
      <trkpt lat="44.82287" lon="6.20116">
        <ele>1189.29</ele>
        <time>2016-10-27T13:33:22Z</time>
      </trkpt>
      <trkpt lat="44.82287" lon="6.20111">
        <ele>1188.33</ele>
        <time>2016-10-27T13:33:25Z</time>
      </trkpt>
      <trkpt lat="44.8229" lon="6.20099">
        <ele>1187.37</ele>
        <time>2016-10-27T13:33:29Z</time>
      </trkpt>
      <trkpt lat="44.82293" lon="6.20086">
        <ele>1185.92</ele>
        <time>2016-10-27T13:33:35Z</time>
      </trkpt>
      <trkpt lat="44.8229" lon="6.20089">
        <ele>1184.96</ele>
        <time>2016-10-27T13:33:40Z</time>
      </trkpt>
      <trkpt lat="44.82286" lon="6.20096">
        <ele>1183.52</ele>
        <time>2016-10-27T13:33:43Z</time>
      </trkpt>
      <trkpt lat="44.82277" lon="6.20101">
        <ele>1181.6</ele>
        <time>2016-10-27T13:33:50Z</time>
      </trkpt>
      <trkpt lat="44.82268" lon="6.20108">
        <ele>1178.71</ele>
        <time>2016-10-27T13:33:57Z</time>
      </trkpt>
      <trkpt lat="44.82263" lon="6.20114">
        <ele>1176.79</ele>
        <time>2016-10-27T13:34:02Z</time>
      </trkpt>
      <trkpt lat="44.82258" lon="6.20127">
        <ele>1174.87</ele>
        <time>2016-10-27T13:34:09Z</time>
      </trkpt>
      <trkpt lat="44.82257" lon="6.20134">
        <ele>1173.91</ele>
        <time>2016-10-27T13:34:12Z</time>
      </trkpt>
      <trkpt lat="44.82251" lon="6.2015">
        <ele>1171.98</ele>
        <time>2016-10-27T13:34:21Z</time>
      </trkpt>
      <trkpt lat="44.82249" lon="6.20154">
        <ele>1170.54</ele>
        <time>2016-10-27T13:34:24Z</time>
      </trkpt>
      <trkpt lat="44.82238" lon="6.20166">
        <ele>1168.62</ele>
        <time>2016-10-27T13:34:32Z</time>
      </trkpt>
      <trkpt lat="44.82233" lon="6.20173">
        <ele>1165.74</ele>
        <time>2016-10-27T13:34:42Z</time>
      </trkpt>
      <trkpt lat="44.82231" lon="6.20167">
        <ele>1162.85</ele>
        <time>2016-10-27T13:34:50Z</time>
      </trkpt>
      <trkpt lat="44.82225" lon="6.20147">
        <ele>1160.45</ele>
        <time>2016-10-27T13:34:58Z</time>
      </trkpt>
      <trkpt lat="44.82223" lon="6.20137">
        <ele>1157.08</ele>
        <time>2016-10-27T13:35:07Z</time>
      </trkpt>
      <trkpt lat="44.82224" lon="6.20131">
        <ele>1156.12</ele>
        <time>2016-10-27T13:35:12Z</time>
      </trkpt>
      <trkpt lat="44.82222" lon="6.20129">
        <ele>1155.16</ele>
        <time>2016-10-27T13:35:14Z</time>
      </trkpt>
      <trkpt lat="44.82222" lon="6.20113">
        <ele>1152.76</ele>
        <time>2016-10-27T13:35:22Z</time>
      </trkpt>
      <trkpt lat="44.8222" lon="6.20101">
        <ele>1150.35</ele>
        <time>2016-10-27T13:35:30Z</time>
      </trkpt>
      <trkpt lat="44.82224" lon="6.20087">
        <ele>1148.43</ele>
        <time>2016-10-27T13:35:37Z</time>
      </trkpt>
      <trkpt lat="44.82219" lon="6.20081">
        <ele>1146.99</ele>
        <time>2016-10-27T13:35:44Z</time>
      </trkpt>
      <trkpt lat="44.82213" lon="6.20084">
        <ele>1145.07</ele>
        <time>2016-10-27T13:35:51Z</time>
      </trkpt>
      <trkpt lat="44.8221" lon="6.2008">
        <ele>1144.11</ele>
        <time>2016-10-27T13:35:54Z</time>
      </trkpt>
      <trkpt lat="44.822" lon="6.20092">
        <ele>1142.66</ele>
        <time>2016-10-27T13:36:02Z</time>
      </trkpt>
      <trkpt lat="44.82193" lon="6.20097">
        <ele>1141.7</ele>
        <time>2016-10-27T13:36:09Z</time>
      </trkpt>
      <trkpt lat="44.82186" lon="6.20096">
        <ele>1141.22</ele>
        <time>2016-10-27T13:36:14Z</time>
      </trkpt>
      <trkpt lat="44.82177" lon="6.20098">
        <ele>1139.3</ele>
        <time>2016-10-27T13:36:21Z</time>
      </trkpt>
      <trkpt lat="44.82165" lon="6.20088">
        <ele>1137.38</ele>
        <time>2016-10-27T13:36:30Z</time>
      </trkpt>
      <trkpt lat="44.82159" lon="6.20089">
        <ele>1136.42</ele>
        <time>2016-10-27T13:36:34Z</time>
      </trkpt>
      <trkpt lat="44.82146" lon="6.20086">
        <ele>1134.97</ele>
        <time>2016-10-27T13:36:42Z</time>
      </trkpt>
      <trkpt lat="44.82144" lon="6.20084">
        <ele>1134.97</ele>
        <time>2016-10-27T13:36:44Z</time>
      </trkpt>
      <trkpt lat="44.82142" lon="6.20084">
        <ele>1134.49</ele>
        <time>2016-10-27T13:36:46Z</time>
      </trkpt>
      <trkpt lat="44.82132" lon="6.20084">
        <ele>1132.57</ele>
        <time>2016-10-27T13:36:57Z</time>
      </trkpt>
      <trkpt lat="44.82125" lon="6.20079">
        <ele>1132.09</ele>
        <time>2016-10-27T13:37:02Z</time>
      </trkpt>
      <trkpt lat="44.82118" lon="6.20073">
        <ele>1130.65</ele>
        <time>2016-10-27T13:37:07Z</time>
      </trkpt>
      <trkpt lat="44.82113" lon="6.20069">
        <ele>1130.17</ele>
        <time>2016-10-27T13:37:10Z</time>
      </trkpt>
      <trkpt lat="44.82103" lon="6.20064">
        <ele>1129.21</ele>
        <time>2016-10-27T13:37:17Z</time>
      </trkpt>
      <trkpt lat="44.82096" lon="6.20061">
        <ele>1128.73</ele>
        <time>2016-10-27T13:37:21Z</time>
      </trkpt>
      <trkpt lat="44.82087" lon="6.20058">
        <ele>1127.76</ele>
        <time>2016-10-27T13:37:26Z</time>
      </trkpt>
      <trkpt lat="44.82076" lon="6.20049">
        <ele>1125.84</ele>
        <time>2016-10-27T13:37:34Z</time>
      </trkpt>
      <trkpt lat="44.82072" lon="6.20048">
        <ele>1125.36</ele>
        <time>2016-10-27T13:37:38Z</time>
      </trkpt>
      <trkpt lat="44.8207" lon="6.20047">
        <ele>1124.88</ele>
        <time>2016-10-27T13:37:40Z</time>
      </trkpt>
      <trkpt lat="44.82063" lon="6.20052">
        <ele>1123.44</ele>
        <time>2016-10-27T13:37:48Z</time>
      </trkpt>
      <trkpt lat="44.8206" lon="6.20052">
        <ele>1123.92</ele>
        <time>2016-10-27T13:37:50Z</time>
      </trkpt>
      <trkpt lat="44.82051" lon="6.20037">
        <ele>1121.52</ele>
        <time>2016-10-27T13:38:01Z</time>
      </trkpt>
      <trkpt lat="44.82049" lon="6.20031">
        <ele>1121.03</ele>
        <time>2016-10-27T13:38:14Z</time>
      </trkpt>
      <trkpt lat="44.82049" lon="6.20031">
        <ele>1122</ele>
        <time>2016-10-27T13:38:28Z</time>
      </trkpt>
      <trkpt lat="44.82049" lon="6.20031">
        <ele>1122.48</ele>
        <time>2016-10-27T13:38:35Z</time>
      </trkpt>
    </trkseg>
  </trk>
</gpx>